GFSGBSN_925_spd_000.txt.gz
Wind_Speed
12 15 12 13 12 10 12 12 11 11 11 11 11 12 11 11 10 9 10 10 11 12 12 12 14 13 9 6 10 7 5 9 22 23 19 9 6 6 8 7 5 4 4 3 7 9 7
15 16 14 12 14 13 12 13 12 12 12 12 13 12 11 10 11 11 11 11 10 14 12 13 14 14 4 14 12 26 24 18 7 24 19 13 8 6 6 6 10 6 7 8 5 10 5
15 16 11 12 13 13 12 13 13 12 12 13 14 13 12 12 11 12 13 12 10 12 15 14 13 12 7 16 4 3 7 19 13 22 15 20 15 6 6 3 5 3 3 7 6 5 7
15 16 12 12 13 14 12 13 14 13 13 14 14 14 12 13 15 15 14 14 13 12 13 15 12 10 7 2 27 17 8 5 10 20 25 14 26 2 3 2 4 6 2 4 4 2 4
15 15 14 12 14 15 15 15 14 14 14 15 13 13 13 16 16 16 17 15 15 13 10 9 6 6 6 5 16 19 19 7 5 19 12 15 5 4 3 5 4 3 4 6 7 4 3
15 15 15 14 15 15 15 15 14 15 14 14 16 16 16 17 17 17 19 13 10 8 7 4 1 2 7 4 6 12 21 20 4 10 7 8 5 5 4 5 7 6 4 3 5 2 2
17 15 16 15 15 14 14 15 15 16 16 14 17 19 17 19 18 19 18 8 5 1 7 7 9 3 2 13 11 12 16 11 4 5 12 9 9 12 13 13 4 6 4 7 4 4 2
14 15 15 16 15 13 14 13 15 16 16 16 16 19 19 17 16 11 25 5 7 5 5 13 3 13 13 1 4 8 22 9 6 9 14 8 16 14 7 7 4 3 3 5 6 1 3
14 13 15 15 14 14 14 13 14 16 15 16 13 16 18 17 10 13 24 20 14 4 2 6 11 4 5 10 7 13 18 5 5 13 20 11 4 15 13 6 10 3 5 4 5 7 4
16 14 15 15 15 14 14 14 13 15 14 15 13 14 15 14 4 7 9 21 9 9 4 7 10 7 9 2 5 18 21 9 5 17 20 6 4 13 16 11 6 9 6 3 3 4 3
18 17 16 15 15 15 15 15 13 15 14 14 14 14 13 8 5 5 5 26 19 6 1 11 8 6 11 7 5 14 25 9 9 9 9 7 14 11 15 17 9 4 5 6 2 3 3
18 18 18 16 16 16 15 15 15 14 15 14 15 14 9 7 15 2 14 25 12 3 5 9 8 10 11 11 4 9 9 1 2 8 3 3 5 9 7 4 11 6 5 2 3 2 2
19 18 18 17 17 16 15 15 17 15 15 14 16 15 10 10 6 14 26 7 3 4 3 7 7 10 13 7 10 10 16 15 9 12 14 1 4 3 6 6 3 4 7 2 1 1 6
19 18 19 20 20 17 15 16 17 17 16 15 17 14 14 18 17 24 7 2 6 3 8 6 7 12 7 9 8 12 13 11 12 1 13 7 5 8 6 6 6 7 8 5 6 4 4
20 18 19 21 21 18 15 16 17 17 17 15 17 11 7 18 30 27 5 3 4 5 7 11 11 8 4 10 2 10 17 11 13 11 10 8 5 2 5 5 12 6 8 4 5 1 1
19 18 19 21 21 19 17 15 17 16 16 15 5 3 4 15 34 18 3 4 7 6 12 15 7 5 9 15 8 5 8 9 11 11 7 7 5 0 2 6 3 7 8 2 2 3 4
18 17 19 21 20 19 16 15 15 15 15 9 4 1 5 26 24 5 3 6 4 13 10 7 6 6 7 8 5 4 8 3 10 9 4 6 4 2 6 6 8 2 4 4 4 3 4
18 17 18 19 18 17 15 14 14 14 12 2 2 1 11 25 5 3 6 5 6 11 1 2 4 6 8 8 5 6 8 6 9 8 8 4 6 6 3 1 5 4 7 6 5 4 1
19 18 16 18 17 16 16 13 12 11 8 3 2 2 10 6 3 2 2 2 3 3 1 3 3 4 9 6 6 4 5 3 7 7 9 8 2 5 2 1 2 4 4 4 5 3 6
19 18 16 17 17 16 15 13 12 9 6 2 2 2 2 3 2 2 3 4 3 1 3 4 5 7 10 4 2 6 6 1 3 3 5 7 3 6 9 4 6 5 5 5 6 4 5
20 17 15 16 17 16 15 14 12 9 7 6 2 3 3 4 4 5 4 6 3 5 7 3 3 14 7 5 4 5 3 4 4 5 4 4 4 3 3 4 4 6 9 11 9 9 7
21 17 15 16 16 15 14 13 12 7 5 5 3 3 1 1 1 5 4 5 4 3 4 1 7 4 4 4 4 8 8 4 5 3 3 3 2 3 2 3 3 2 4 8 4 4 2
22 18 15 15 15 15 14 13 12 7 6 4 2 1 2 0 2 3 3 5 5 5 3 4 7 6 9 1 1 4 6 7 6 7 3 5 5 3 3 2 2 4 8 8 5 4 7
23 18 15 16 15 15 13 12 11 8 8 6 4 2 3 2 2 2 2 2 5 3 4 4 7 4 3 4 5 7 11 12 11 7 2 5 5 3 3 1 1 3 1 6 7 2 5
23 21 17 15 15 15 14 12 11 9 8 6 4 3 3 2 1 2 4 5 6 7 5 4 4 3 4 4 4 5 4 3 5 6 6 3 5 3 5 4 3 0 4 7 6 3 1
23 24 18 16 15 15 15 12 11 10 8 7 3 5 2 5 3 3 4 3 4 4 3 1 1 1 4 3 4 3 3 3 3 2 4 5 6 4 2 4 7 1 2 5 4 2 6
22 23 18 17 15 16 15 13 12 10 8 6 4 4 2 4 2 1 3 5 5 3 4 3 4 2 1 2 3 3 4 1 4 7 5 3 3 4 2 2 5 3 3 2 5 3 4
21 24 18 17 16 17 15 14 12 10 8 6 3 2 2 3 1 2 2 4 3 2 4 5 4 1 2 3 3 3 3 4 3 3 5 6 6 4 3 2 6 2 4 6 3 3 6
19 26 20 17 17 18 16 14 13 12 10 6 2 3 5 4 3 3 6 6 3 3 5 2 1 3 4 4 1 3 2 2 3 3 3 1 4 4 6 4 1 1 2 4 4 6 5

GFSGBSN_925_spd_003.txt.gz
Wind_Speed
15 15 15 16 13 13 11 10 9 10 10 10 11 9 9 9 11 9 9 9 9 10 11 10 10 11 10 5 9 8 3 8 4 23 20 16 10 6 11 10 5 5 4 4 6 6 6
15 16 16 13 13 13 13 11 10 11 10 11 11 10 9 10 11 12 12 11 10 10 12 11 9 12 6 13 9 18 23 18 9 18 21 18 8 7 6 7 15 8 10 11 3 6 4
15 17 15 14 13 12 13 12 11 12 12 12 12 12 12 10 13 13 12 12 11 11 12 11 10 14 7 12 3 3 7 10 16 11 18 23 18 8 8 6 4 5 4 3 4 3 6
16 18 15 15 12 12 12 14 12 13 13 13 14 14 14 10 12 13 14 14 14 13 11 9 7 9 6 3 17 23 5 7 8 13 23 20 19 7 4 6 4 10 3 9 2 2 3
16 17 16 15 14 13 13 14 16 13 13 13 14 15 13 11 14 16 15 16 15 15 11 6 5 4 5 7 13 22 22 8 6 10 20 15 8 7 4 7 4 2 5 6 6 6 5
16 16 17 17 15 14 14 14 13 13 13 13 13 16 16 15 15 18 17 13 12 10 7 7 3 3 3 5 7 8 15 18 3 9 7 9 7 8 8 9 11 7 7 3 5 2 2
16 15 16 15 17 16 13 14 13 14 13 14 14 17 18 17 19 18 18 7 6 4 8 6 7 3 2 15 8 9 12 12 3 8 10 14 11 15 17 12 5 7 7 11 2 2 1
15 15 15 12 14 15 13 12 13 13 13 14 14 16 17 16 18 17 22 7 7 6 4 14 7 14 8 3 5 4 15 9 7 7 11 11 14 12 9 8 7 5 5 5 3 1 3
18 15 15 15 13 14 13 12 13 11 12 14 13 13 15 16 13 16 15 15 15 7 2 4 17 7 4 13 4 6 13 9 9 11 18 17 7 15 12 7 9 4 6 4 4 3 1
19 16 17 16 14 13 13 12 12 11 12 13 12 12 12 12 7 2 3 19 19 12 0 6 10 7 7 7 5 12 22 12 7 15 17 11 6 16 14 12 9 9 4 2 2 4 2
21 18 18 16 15 13 14 13 12 11 12 13 13 12 10 9 2 3 8 24 22 8 3 8 8 1 10 10 6 6 25 11 9 11 10 6 14 18 16 15 9 4 5 3 0 3 1
21 20 20 18 16 15 14 14 13 11 11 13 13 12 9 8 10 8 7 29 13 4 5 8 8 9 14 4 5 12 12 9 4 8 15 3 3 9 8 8 9 9 7 5 3 3 3
22 21 20 19 16 15 15 15 14 13 12 12 13 12 12 11 3 12 30 11 3 4 2 7 5 10 11 7 3 10 16 17 6 10 18 3 3 4 5 9 3 4 6 2 1 4 4
23 22 20 18 17 16 16 15 13 13 14 13 12 12 13 17 12 33 18 2 7 5 5 2 6 12 7 9 8 11 16 14 10 2 11 5 5 8 6 6 6 5 6 4 5 4 2
24 22 20 18 16 17 15 14 13 12 13 11 10 10 10 19 26 25 5 3 3 3 7 9 11 12 5 11 6 9 11 12 10 6 7 12 3 2 9 4 9 4 5 4 4 2 1
23 22 19 17 16 16 15 14 11 10 11 9 4 3 4 14 35 16 2 4 5 9 11 13 5 5 9 13 2 9 12 12 12 15 6 4 5 4 4 5 4 6 6 3 1 4 3
23 23 19 15 15 15 14 12 8 8 10 12 5 2 6 24 25 3 3 5 6 9 12 9 5 6 7 7 5 6 16 6 10 18 5 6 4 1 6 5 9 4 3 1 3 2 3
25 21 19 15 13 13 12 10 8 7 7 2 2 2 6 29 6 3 3 5 7 16 7 6 6 5 9 9 8 9 10 6 14 13 8 7 5 4 3 1 3 5 8 11 4 3 1
20 22 20 15 13 12 12 10 7 6 5 2 2 2 12 7 4 8 5 9 8 7 6 6 5 4 7 10 8 5 9 11 15 17 9 6 2 6 4 2 4 5 4 4 4 3 6
24 22 21 16 13 12 11 10 7 6 6 4 2 3 2 4 2 3 3 3 5 2 1 1 3 6 9 10 2 8 7 5 10 19 7 4 3 5 8 5 6 5 4 4 6 4 5
28 21 19 17 12 12 11 10 7 6 7 5 2 5 5 5 6 10 3 9 5 5 3 2 4 7 10 5 4 6 4 3 3 10 3 2 3 3 1 2 6 8 10 12 10 11 10
31 22 21 18 12 11 11 11 9 8 8 4 2 3 0 2 2 7 6 4 14 3 5 6 8 14 7 7 6 10 9 5 8 2 3 3 3 2 2 2 4 4 6 11 10 3 8
28 29 20 19 14 12 11 11 11 10 11 4 3 3 2 2 2 4 5 5 7 8 4 2 11 9 5 5 5 6 2 8 7 7 4 4 5 3 2 2 4 3 9 10 7 5 10
27 28 15 22 15 13 11 12 13 13 15 6 4 1 2 3 3 4 5 4 6 5 5 3 4 5 1 5 7 11 13 13 12 7 3 5 5 1 3 2 1 4 1 5 6 3 5
27 27 19 20 14 14 12 13 14 13 14 13 5 3 3 3 1 2 6 6 3 3 4 3 5 3 1 1 5 6 3 5 4 5 4 5 7 2 4 4 4 1 4 6 7 5 6
27 28 25 21 17 14 13 14 15 14 14 12 10 10 1 2 4 3 4 4 4 3 3 3 4 3 5 4 4 4 4 5 5 3 1 4 4 4 1 5 6 1 2 4 4 4 8
29 28 28 22 19 15 13 15 15 15 13 12 5 11 2 2 2 2 3 5 5 4 4 3 4 2 4 2 3 2 3 1 5 9 6 3 3 5 4 2 5 4 3 4 4 3 5
28 31 30 22 19 15 15 15 15 15 14 11 3 9 4 2 3 2 1 4 3 3 5 5 4 1 3 2 1 2 3 4 4 3 5 6 6 4 3 2 7 5 4 7 3 4 6
29 29 29 20 19 16 16 16 16 15 13 11 4 7 7 2 1 1 5 4 2 2 5 2 3 4 5 4 2 3 2 2 4 4 1 2 4 4 6 4 1 2 1 3 4 6 5

GFSGBSN_925_spd_006.txt.gz
Wind_Speed
18 15 15 14 17 14 14 14 12 13 13 12 13 11 8 7 6 6 5 5 6 8 9 10 9 9 10 6 10 6 2 7 4 15 21 16 16 17 20 20 17 20 15 14 13 11 11
18 18 17 14 15 14 13 16 15 14 14 13 14 12 9 8 8 7 6 8 9 9 10 11 10 11 8 13 9 12 16 13 4 10 19 21 11 19 15 20 23 13 18 15 13 13 10
20 17 18 17 12 14 12 13 15 15 15 14 15 15 11 9 9 11 7 9 10 11 10 10 9 12 10 15 6 5 6 12 13 9 19 24 27 12 15 18 19 20 13 15 16 15 13
18 19 18 17 14 13 13 13 16 16 15 15 16 17 14 13 11 10 8 10 13 13 9 5 8 8 7 8 20 15 9 5 10 17 14 20 21 14 8 15 16 21 17 17 18 13 11
20 20 19 18 16 14 14 14 14 16 16 15 17 17 16 13 13 12 11 12 15 15 11 8 7 7 6 4 18 19 21 12 4 12 15 11 15 7 15 12 13 17 16 22 17 13 13
20 19 20 19 17 15 14 14 15 14 16 16 17 18 17 16 15 15 13 12 15 10 9 9 3 5 8 8 9 14 14 20 8 12 9 11 8 10 12 13 20 16 19 12 18 12 11
21 18 19 20 17 16 15 13 14 13 16 17 17 18 16 16 17 17 13 3 4 4 11 9 10 6 2 15 6 10 11 17 9 9 12 19 12 19 28 17 16 18 18 14 13 7 6
22 20 17 20 17 15 14 13 12 13 15 17 16 17 15 16 17 15 14 5 5 4 4 14 5 19 3 8 6 11 13 15 12 16 18 16 23 24 15 19 19 20 16 16 12 6 6
23 23 19 19 20 18 14 13 12 12 13 14 15 15 13 12 11 15 19 12 13 13 2 7 17 13 8 13 6 12 17 20 13 15 18 23 17 18 18 22 22 15 17 15 9 5 6
23 23 21 19 20 19 17 14 14 12 12 13 14 13 11 9 8 10 6 18 22 17 2 6 9 9 14 7 9 19 22 17 8 20 19 19 20 23 18 21 23 18 11 9 8 1 5
25 22 23 20 19 19 18 16 15 15 12 11 12 13 12 14 2 3 11 20 20 6 4 11 9 8 10 16 5 19 21 17 15 11 6 14 13 17 20 24 26 11 12 9 3 5 6
26 24 23 22 19 18 17 16 16 15 15 13 12 12 11 9 10 7 20 23 8 2 7 8 8 12 14 19 11 10 12 12 4 8 17 12 6 20 18 24 20 15 14 8 4 1 7
29 25 25 23 20 18 17 16 16 15 14 13 14 12 14 10 5 18 32 7 3 5 4 5 4 8 16 12 19 10 17 21 8 7 7 10 15 5 15 16 3 16 15 3 5 4 6
27 28 25 24 21 19 17 16 15 15 13 11 12 12 15 19 13 22 17 3 7 4 5 3 6 14 9 15 14 13 15 17 18 13 11 8 5 11 13 20 9 16 14 5 5 6 5
36 27 24 24 22 18 16 15 14 13 12 9 8 7 7 18 18 29 6 5 4 4 8 7 14 9 9 17 8 13 17 19 12 18 4 9 4 7 12 5 11 4 6 2 3 1 3
36 25 27 23 21 18 14 14 13 13 8 8 6 4 7 17 26 14 2 4 4 6 6 18 9 11 12 19 5 14 15 16 12 17 9 12 4 6 6 7 4 10 10 4 2 5 5
31 35 23 24 20 17 13 13 12 11 7 8 5 2 6 21 23 4 3 5 5 10 14 16 9 11 11 16 7 14 15 8 20 16 15 3 7 2 13 6 12 10 6 4 2 3 3
24 28 23 23 21 17 12 12 11 10 8 9 5 3 20 32 5 3 4 5 4 7 20 14 10 8 14 15 11 5 15 8 22 12 9 8 3 6 3 3 9 10 11 12 6 5 1
23 28 31 19 21 16 13 12 12 12 12 9 3 2 21 20 5 8 5 8 8 13 20 14 12 9 8 14 8 16 13 15 20 16 11 11 7 8 5 2 3 7 11 17 10 1 10
20 26 30 19 20 17 14 13 13 13 13 9 3 3 4 5 5 3 8 8 7 16 18 12 9 10 16 12 11 15 14 8 18 23 19 3 5 13 11 9 12 14 19 19 17 10 9
23 21 29 28 20 18 15 14 14 14 14 11 3 4 3 6 8 15 6 7 11 9 8 3 7 12 15 9 10 10 14 6 16 19 18 5 4 9 3 2 15 17 19 19 20 19 13
32 23 25 28 16 20 17 15 15 16 17 5 3 3 3 3 8 12 12 10 14 4 7 4 3 14 17 12 12 14 13 11 11 16 20 11 3 2 3 4 10 14 19 22 23 21 23
31 26 26 27 32 21 17 16 17 18 21 4 4 2 2 3 4 5 5 9 16 15 6 5 13 14 16 8 13 16 14 11 9 16 20 12 5 3 3 4 5 9 18 20 18 20 21
31 28 23 27 32 22 17 17 17 20 23 7 3 1 3 5 6 4 5 4 7 15 3 4 10 15 6 10 13 12 9 4 13 6 15 13 4 1 3 2 5 1 3 16 21 18 20
31 28 28 25 28 24 18 17 17 20 21 16 5 2 2 4 3 3 7 3 3 5 2 3 3 2 12 4 10 9 5 3 4 6 4 10 3 3 4 7 6 4 5 7 11 13 15
29 29 27 30 32 17 17 17 17 19 19 22 12 10 2 3 2 1 3 6 3 3 3 3 3 2 2 1 4 4 5 6 5 2 4 5 7 3 1 4 4 3 3 5 5 7 11
31 31 29 27 32 17 17 15 16 18 18 20 6 16 3 3 1 2 2 6 4 2 4 4 1 2 1 2 2 3 3 3 10 12 8 4 5 12 9 2 7 2 6 5 6 1 9
31 31 28 25 29 24 19 15 16 18 18 19 4 15 5 2 1 1 1 3 3 2 4 5 5 1 2 1 2 2 2 4 3 7 11 12 9 5 5 3 9 6 5 6 4 9 13
32 32 31 27 26 24 21 15 17 18 18 20 4 11 14 2 2 1 1 1 2 2 5 2 2 4 4 3 1 4 3 2 3 5 1 5 3 5 7 3 2 1 2 2 8 14 9

GFSGBSN_925_spd_009.txt.gz
Wind_Speed
19 21 19 18 17 16 16 16 16 14 13 13 13 13 11 9 10 10 9 6 5 4 4 6 7 7 7 9 17 5 4 5 0 15 20 16 17 15 18 19 20 22 23 20 19 16 14
20 21 21 19 19 18 16 16 18 18 15 14 14 14 12 11 11 12 10 9 8 4 5 6 9 9 11 16 15 18 12 10 6 6 16 20 12 16 14 20 21 13 24 22 16 19 17
23 21 22 20 20 19 18 16 16 17 17 15 15 15 14 12 12 13 13 10 9 6 4 5 6 9 14 15 7 12 17 18 16 13 11 19 21 14 13 18 23 22 17 19 23 18 19
24 24 23 22 21 19 18 18 17 17 18 17 15 15 15 15 13 14 12 11 9 8 5 5 5 10 7 13 22 13 8 7 11 17 16 15 20 20 14 14 17 24 19 16 19 22 20
25 25 25 24 21 19 19 19 18 17 18 19 17 16 15 15 14 16 13 12 11 9 7 5 6 11 10 6 19 23 23 16 9 10 17 13 15 15 14 10 10 14 19 26 21 22 18
24 25 26 24 22 21 20 18 18 18 19 19 19 16 15 16 14 15 12 11 10 11 9 6 8 5 13 9 12 17 19 19 15 10 13 16 9 12 14 16 16 19 25 19 23 21 16
25 26 26 24 24 21 20 18 18 18 18 17 18 16 15 15 14 16 14 8 3 2 9 10 10 12 3 17 6 8 16 16 17 14 18 21 12 18 28 27 20 23 18 24 19 22 22
27 27 27 25 25 22 20 18 16 17 17 17 19 17 15 13 14 14 17 5 8 1 4 17 15 17 10 5 6 12 18 14 18 21 19 16 19 27 28 22 27 23 22 23 13 14 11
29 27 27 26 25 24 22 20 17 16 17 15 17 15 14 11 10 10 14 17 13 8 4 6 19 18 19 6 10 13 17 19 20 21 21 23 20 27 27 22 26 26 20 19 14 13 11
31 30 28 27 26 24 24 22 19 17 17 16 16 15 12 9 4 14 13 16 20 13 4 6 8 7 8 8 9 25 24 17 15 21 22 17 20 23 29 28 22 27 19 17 13 12 9
27 24 31 28 27 25 22 23 21 18 17 16 16 15 14 18 2 4 5 12 18 5 6 11 8 9 10 11 4 18 26 20 20 16 5 13 13 24 29 25 21 16 25 16 14 11 2
28 31 28 30 27 24 22 22 20 18 17 18 18 17 16 13 12 6 10 21 7 2 7 8 6 10 10 16 14 2 24 17 14 18 17 21 17 25 23 20 22 9 17 10 12 5 7
31 35 37 24 28 25 23 21 20 17 17 17 19 20 22 14 9 18 27 6 2 6 3 5 4 8 15 13 19 12 19 20 10 7 10 11 17 3 9 14 21 15 16 6 5 5 7
29 32 34 30 26 27 23 21 19 17 16 17 15 18 22 18 10 21 14 2 8 3 6 3 4 6 8 10 18 18 13 16 22 10 6 7 7 9 9 11 9 18 16 7 7 9 13
28 27 30 34 30 28 23 21 19 17 14 17 12 16 10 22 16 27 3 5 5 4 6 6 8 4 5 10 11 18 18 18 20 17 4 6 6 2 16 13 16 9 19 2 4 5 10
26 22 29 27 34 24 24 21 18 16 14 16 14 8 6 17 25 20 4 10 5 5 6 8 11 12 12 18 12 16 10 13 18 18 16 5 4 1 5 12 3 6 11 6 3 7 6
26 26 25 28 34 19 22 21 17 15 14 18 9 3 6 24 24 4 6 7 6 8 11 14 15 13 14 17 15 16 7 8 22 17 17 10 1 3 11 5 11 3 7 5 3 3 4
31 28 23 24 28 20 23 21 18 15 16 23 5 3 21 32 5 3 8 5 5 6 17 16 9 13 13 18 17 15 15 10 17 12 8 9 5 2 8 4 14 12 9 12 6 5 4
33 35 20 24 30 30 21 21 19 19 25 10 3 3 19 22 5 7 9 6 8 7 11 13 11 14 14 16 11 11 8 15 13 20 8 13 3 3 5 8 3 2 11 17 11 3 11
33 35 25 21 25 27 18 22 20 21 23 12 2 4 3 4 6 5 11 7 7 13 14 13 9 13 12 14 15 15 8 10 12 20 17 4 8 6 4 7 12 11 15 17 15 9 10
34 33 32 23 24 27 14 22 21 22 22 15 3 4 6 6 8 16 6 3 8 5 14 19 8 18 17 14 18 7 17 10 12 15 12 4 6 6 2 4 14 14 19 18 18 17 11
36 32 29 23 25 29 25 21 22 23 23 9 2 4 3 2 10 15 14 9 15 12 9 10 13 19 18 12 14 12 15 12 9 13 16 13 4 4 4 2 6 13 16 20 22 22 21
37 33 29 25 27 27 34 26 24 25 25 3 4 2 3 4 8 10 9 12 11 16 6 9 12 8 17 14 12 5 13 12 5 14 16 9 6 3 2 6 5 9 18 19 20 21 20
36 33 29 29 29 30 36 27 25 27 30 6 4 2 4 9 10 10 3 8 12 12 9 7 5 2 7 6 3 2 8 12 3 11 15 13 9 3 2 5 6 2 3 17 21 19 20
35 33 28 27 29 26 27 19 26 27 27 17 6 3 3 8 10 8 8 5 1 2 14 1 5 4 8 11 8 6 2 4 4 8 15 9 7 2 3 4 9 8 4 6 16 17 19
35 33 30 26 27 25 28 13 26 25 25 24 15 10 3 4 1 2 7 4 3 2 3 2 4 4 4 2 3 5 3 4 5 2 8 6 8 4 1 3 4 4 2 0 6 10 4
34 33 30 26 28 28 26 26 24 23 23 21 7 19 5 5 5 3 4 3 3 2 4 4 6 4 4 1 6 6 3 9 7 9 5 3 2 4 3 4 7 5 6 5 6 2 2
33 33 31 29 26 25 26 28 26 22 23 24 6 16 9 4 4 2 2 3 2 2 5 4 5 2 2 3 3 2 3 5 6 14 9 7 7 4 3 5 8 8 5 4 3 5 7
32 33 30 29 27 25 25 27 25 22 23 23 4 13 12 4 3 2 3 2 2 2 2 5 2 5 4 2 2 2 2 3 5 7 5 8 8 7 9 5 4 5 3 3 5 10 9

GFSGBSN_925_spd_012.txt.gz
Wind_Speed
23 22 21 23 22 18 16 15 15 15 16 14 13 12 10 9 9 9 7 7 6 7 7 6 5 5 5 8 13 2 4 5 4 12 18 15 14 12 13 9 15 21 17 20 16 16 16
23 23 23 21 25 22 18 16 15 15 17 16 14 13 12 11 10 9 8 6 6 8 8 8 7 7 6 14 11 17 8 6 4 4 16 16 12 12 15 16 16 9 19 18 19 17 13
24 23 24 23 24 24 21 19 17 15 15 18 15 14 15 13 11 9 8 6 6 8 9 8 8 9 11 14 5 9 18 18 14 12 7 18 20 14 7 15 13 15 16 15 22 19 15
25 24 24 24 25 25 24 20 18 16 15 16 16 16 15 16 13 11 10 6 7 8 10 8 7 10 7 13 24 13 7 10 15 16 15 16 10 11 14 7 10 8 11 12 19 13 18
27 25 25 26 25 26 24 21 19 18 16 16 16 16 14 15 15 13 12 8 7 9 10 7 6 10 8 5 19 19 20 15 11 11 10 15 13 6 11 7 6 10 12 22 15 18 15
27 26 26 26 27 25 23 22 21 18 17 17 16 16 15 14 15 12 10 9 8 10 8 6 11 3 8 11 11 17 21 23 14 8 8 9 5 7 7 11 16 12 16 14 18 17 18
34 31 29 27 28 26 23 23 21 20 18 16 15 14 15 13 14 11 10 4 1 2 7 9 8 9 2 9 2 9 16 15 14 12 12 11 9 17 23 22 18 15 17 16 17 17 21
31 31 29 30 28 28 25 23 21 19 18 16 14 13 13 12 12 10 10 3 4 3 6 17 17 19 23 7 7 11 15 13 15 16 14 10 21 25 14 17 18 21 18 17 15 20 20
34 33 28 28 31 28 26 24 22 20 18 16 14 13 13 11 10 10 14 13 7 4 6 6 20 16 14 13 13 12 17 17 15 17 17 19 20 16 18 18 20 22 23 16 15 15 9
34 32 33 33 19 28 28 26 25 22 19 17 15 13 12 11 5 12 16 11 16 6 5 5 6 6 13 6 7 17 17 17 11 18 17 15 18 20 19 23 19 22 23 22 19 17 11
34 31 32 32 30 24 30 28 25 24 21 17 16 15 16 20 8 7 5 6 5 4 5 7 6 5 5 11 4 10 23 14 18 15 9 10 11 18 22 21 20 20 17 22 27 11 4
34 32 31 28 31 30 27 29 25 23 21 18 18 18 19 17 13 6 10 12 7 2 7 5 5 7 7 9 6 6 18 19 13 16 14 13 9 12 16 21 20 22 15 20 18 11 8
35 36 31 29 25 33 35 27 26 22 21 20 20 19 26 16 6 19 17 5 2 5 2 4 4 6 13 9 10 6 16 20 11 6 13 7 19 8 4 12 20 22 14 8 7 6 4
36 36 30 28 25 31 29 20 26 22 20 19 19 17 29 16 17 26 17 2 7 7 6 3 3 8 7 7 7 12 7 17 18 10 2 9 8 14 14 11 15 24 22 3 5 5 6
39 36 32 26 21 31 33 20 22 22 20 18 17 19 19 25 26 28 4 4 5 3 4 6 5 6 6 7 7 13 13 12 14 19 7 3 9 5 10 15 16 10 9 17 6 10 6
36 38 33 26 23 27 31 17 20 21 20 18 15 11 9 28 31 18 3 8 6 4 5 5 9 13 9 10 8 11 13 10 18 18 15 3 6 6 12 8 9 7 8 10 4 7 7
36 39 35 41 18 17 25 26 18 21 21 22 10 3 13 30 25 4 5 7 7 10 8 7 9 10 12 10 13 12 9 11 13 12 13 5 3 1 1 8 13 8 6 9 4 5 5
37 39 36 42 17 15 22 28 16 22 21 25 5 3 22 33 5 2 4 5 3 6 16 12 10 15 11 11 13 10 12 6 15 14 10 9 4 4 6 4 12 10 8 11 3 2 1
37 39 41 34 23 16 25 30 20 26 30 14 5 3 21 19 6 5 6 6 8 3 6 9 9 13 7 6 8 13 12 7 19 13 11 12 5 2 5 8 1 4 7 5 5 3 3
36 37 42 32 27 20 27 33 13 28 32 17 3 4 3 3 2 6 9 7 6 14 17 15 13 16 9 10 10 6 9 6 14 14 13 7 6 6 5 6 11 6 7 6 5 1 2
35 36 40 37 29 26 28 25 9 29 33 13 3 4 5 5 7 11 5 5 7 6 11 15 7 17 10 8 9 7 11 6 8 9 11 4 4 13 10 18 17 14 9 8 9 7 1
35 34 39 38 30 28 29 32 32 29 34 6 4 3 3 3 8 15 15 9 13 6 4 9 14 9 14 9 8 11 12 10 8 8 15 12 6 12 10 6 12 13 13 12 10 7 7
35 34 37 37 29 30 28 28 32 29 29 3 4 2 1 4 8 8 6 10 11 11 11 17 13 15 12 12 7 12 10 11 7 10 11 6 4 5 4 4 5 4 8 14 9 8 8
32 32 35 36 30 28 28 27 33 27 30 6 4 2 2 4 6 7 11 8 15 13 11 9 13 16 3 5 2 12 9 9 7 2 6 7 3 3 2 2 1 2 1 5 11 8 10
30 29 32 35 32 29 28 28 30 15 30 13 6 4 2 2 6 12 13 4 3 1 6 8 2 2 5 6 3 3 2 4 5 4 6 9 2 1 1 3 6 1 1 1 6 9 8
29 29 32 34 31 28 26 26 30 10 26 19 10 8 1 2 2 6 8 3 2 2 0 4 1 4 6 2 2 3 4 3 3 3 5 6 6 3 4 1 3 2 2 6 3 2 6
28 28 31 32 28 27 27 27 29 13 25 20 6 18 3 1 5 4 4 2 4 2 1 3 4 2 3 3 6 4 3 7 6 6 4 4 3 5 4 2 6 2 3 4 4 3 6
27 28 30 33 29 26 24 24 25 8 23 23 6 16 8 2 3 1 2 1 1 2 3 4 4 4 3 3 1 3 3 6 5 7 6 6 5 3 3 2 6 6 4 2 2 2 4
26 27 29 31 29 27 24 24 22 18 22 24 3 17 20 2 2 2 5 6 5 2 1 2 3 5 4 3 2 2 1 3 4 4 6 7 6 5 7 5 1 3 3 1 3 4 5

GFSGBSN_925_spd_015.txt.gz
Wind_Speed
21 21 21 20 21 21 22 18 16 15 14 13 11 10 10 8 8 6 6 4 3 3 3 3 2 2 3 5 7 1 7 7 6 11 15 8 6 3 4 4 5 13 14 14 17 18 18
24 23 22 21 23 21 22 22 18 16 14 13 13 12 11 10 9 8 6 6 4 4 3 3 3 2 2 11 10 14 10 3 4 10 14 11 6 6 7 7 10 6 9 16 19 15 11
28 25 23 23 23 24 23 23 20 18 16 14 14 14 12 12 10 9 6 6 5 4 5 3 3 3 6 12 8 3 18 16 10 7 2 18 20 7 4 4 6 8 12 14 17 16 14
32 31 30 23 23 25 24 24 22 19 18 16 15 15 14 12 12 9 7 6 6 6 5 5 3 4 6 7 20 23 7 13 13 10 12 14 7 6 7 5 7 5 6 14 6 8 9
32 32 31 28 24 24 26 25 23 21 19 18 15 14 15 12 11 11 9 8 7 7 6 5 4 5 7 5 16 19 17 6 6 9 14 14 7 4 3 4 3 4 9 8 6 7 6
31 31 32 32 31 27 25 26 23 21 19 19 17 16 16 13 10 10 8 9 6 8 4 6 7 1 6 5 6 20 14 17 7 1 4 4 4 5 1 5 13 9 9 10 8 5 11
32 31 32 34 35 27 27 26 24 23 20 20 18 16 15 15 11 10 9 3 1 2 7 8 8 5 3 5 4 12 17 11 10 3 6 6 7 12 13 14 6 8 10 12 8 10 11
33 32 33 33 35 35 25 28 26 24 21 21 18 17 15 16 12 11 11 4 2 4 5 13 16 15 19 4 4 6 14 9 12 15 6 7 17 14 9 11 10 12 13 20 14 15 11
35 33 32 33 32 34 30 25 27 26 23 21 19 18 17 14 12 14 17 10 5 1 3 6 13 9 13 9 12 9 13 11 11 11 12 17 4 17 14 13 13 16 16 16 16 16 17
35 35 34 33 32 33 28 27 21 26 25 22 19 18 19 17 9 13 7 15 13 5 3 3 3 4 4 4 5 18 21 13 8 17 13 14 19 12 14 17 13 16 16 16 16 11 11
36 35 35 34 34 31 29 28 20 20 27 23 20 21 23 24 8 10 10 14 14 4 4 6 5 2 2 7 6 8 19 16 17 13 11 8 9 16 19 21 14 15 10 12 12 16 14
35 38 34 34 35 30 29 24 28 21 24 25 23 23 24 24 5 12 19 21 8 3 8 6 4 4 3 8 4 1 3 9 2 10 14 17 2 4 11 15 14 2 4 9 9 11 12
36 38 35 35 36 32 26 22 26 22 25 26 26 27 31 21 8 23 24 7 4 4 1 4 4 6 9 7 6 7 4 12 7 5 7 4 11 3 2 3 4 6 5 5 5 8 13
37 38 36 36 38 29 26 22 23 36 27 26 28 29 33 20 19 29 12 3 5 5 4 4 3 7 6 6 7 9 3 6 13 5 3 5 5 12 9 15 7 11 13 6 8 7 8
36 37 38 35 38 35 43 21 27 34 22 26 28 31 25 20 33 30 5 3 6 5 4 4 2 4 4 7 7 9 10 4 7 16 7 6 6 3 5 8 17 7 10 21 6 4 2
36 37 38 37 35 52 14 16 28 33 21 26 20 12 18 32 37 20 3 4 4 2 6 4 7 9 6 8 8 8 9 8 8 16 11 2 5 3 12 12 12 11 10 9 4 5 7
36 37 40 39 44 40 14 11 22 20 19 29 12 5 20 37 26 4 3 6 4 5 7 5 5 4 7 5 7 5 7 6 12 13 17 7 5 3 2 8 17 9 10 8 5 6 2
36 37 39 38 45 37 16 16 24 25 11 31 5 4 28 37 5 2 3 6 3 5 9 10 6 9 6 9 9 5 10 5 7 7 17 10 4 5 14 11 10 15 11 9 5 6 10
36 36 37 38 41 28 27 19 25 22 22 15 6 3 25 27 5 4 3 6 7 8 9 7 8 13 11 8 3 12 6 9 17 10 13 8 4 4 4 6 5 16 15 14 15 11 8
36 36 36 38 40 34 27 27 30 34 37 14 4 4 3 3 0 6 6 8 6 7 14 9 4 10 9 7 10 5 10 4 16 14 15 13 6 7 3 2 5 8 19 12 10 5 3
33 35 36 36 38 37 32 27 29 40 36 9 1 3 4 5 7 5 10 4 8 5 10 8 6 15 6 5 6 5 4 4 12 17 13 4 5 5 13 17 12 11 13 17 22 12 4
31 33 34 34 37 40 29 32 30 35 35 3 4 3 2 5 10 12 9 7 8 6 5 4 8 8 12 10 6 6 7 4 6 11 10 9 4 8 7 8 14 11 13 17 10 5 3
30 31 32 33 36 39 32 31 26 33 22 2 2 2 3 7 9 7 6 12 15 12 11 14 13 8 9 10 9 0 7 6 5 10 8 6 3 5 3 11 7 1 18 9 5 1 4
29 30 31 32 34 34 29 30 25 29 22 3 5 4 3 3 3 7 5 12 17 15 12 7 16 11 4 6 4 7 7 6 6 1 2 6 1 3 4 4 1 4 2 6 8 4 6
27 28 29 31 34 34 29 28 26 27 24 7 4 4 3 2 7 9 11 5 3 4 4 9 5 3 4 4 2 3 0 3 3 5 4 5 3 2 1 2 5 3 2 4 7 7 7
26 27 27 29 31 32 29 28 25 27 23 14 8 7 3 3 4 2 2 1 3 1 2 3 2 1 1 1 3 4 4 3 3 2 4 6 4 3 3 1 3 3 3 2 1 3 3
26 26 27 28 32 31 29 27 24 26 16 15 6 7 3 2 2 1 3 2 2 2 2 1 2 2 2 2 1 3 3 7 5 6 4 4 2 4 1 2 7 5 3 3 3 4 4
26 24 26 28 30 32 29 26 23 26 25 18 5 12 6 2 3 1 2 3 2 2 2 2 2 1 3 4 3 2 3 5 4 5 5 4 5 3 3 2 6 4 2 3 3 2 4
23 24 25 26 29 31 29 28 24 24 23 21 3 15 16 1 2 2 5 7 6 4 3 4 2 5 4 3 3 2 2 3 6 5 3 4 6 5 7 5 2 3 2 1 3 4 3

GFSGBSN_925_spd_018.txt.gz
Wind_Speed
29 27 25 22 21 20 20 20 19 17 17 17 15 13 12 11 10 8 6 4 2 1 2 1 1 2 4 3 7 3 6 4 8 17 16 6 5 4 5 4 4 6 5 9 9 12 15
27 28 28 29 24 23 20 19 20 20 18 17 17 14 14 12 11 10 7 6 4 3 2 1 2 4 2 6 9 14 8 1 3 10 13 11 6 6 4 6 6 5 6 7 10 13 9
27 28 29 31 33 28 22 21 22 22 20 18 18 17 16 14 13 12 9 6 5 4 4 3 3 4 3 12 7 5 4 13 11 8 3 18 17 2 1 4 4 5 8 9 7 4 5
27 27 28 29 31 33 29 24 24 23 22 20 19 19 17 16 13 13 11 8 7 6 4 4 3 3 6 8 8 20 12 8 17 12 9 7 7 6 4 5 6 3 3 4 4 8 5
29 29 29 29 30 30 29 26 25 26 24 23 21 20 19 16 14 15 13 10 8 6 5 3 4 3 7 6 6 18 13 7 5 8 12 11 4 3 3 3 4 4 5 6 4 6 5
31 31 31 31 30 30 31 33 25 26 26 23 22 21 20 18 15 14 12 11 7 5 4 5 3 1 5 4 6 5 13 12 4 1 3 3 2 2 2 5 14 10 6 6 5 4 7
30 32 32 33 32 30 32 33 30 24 27 25 23 22 21 19 17 15 15 7 2 2 6 7 7 3 2 3 8 4 14 6 2 1 5 1 3 10 13 13 7 5 6 7 4 4 7
31 30 30 32 31 31 31 30 30 29 28 26 24 23 21 20 19 17 18 4 4 3 2 12 10 12 12 6 2 3 13 6 7 11 5 4 12 12 8 10 9 11 12 15 8 9 10
34 33 31 32 32 32 30 31 30 28 21 26 26 24 23 20 19 18 21 13 8 2 1 4 5 6 6 8 6 6 13 6 6 12 14 17 6 13 13 12 10 15 17 11 9 10 18
35 34 32 34 34 31 31 31 29 27 28 22 27 24 24 23 14 15 11 17 11 3 2 4 3 2 3 4 4 18 19 9 5 15 12 13 15 8 12 15 11 16 10 13 11 7 7
35 33 34 35 35 31 31 30 29 27 26 19 26 25 29 31 12 13 9 22 16 2 3 5 4 2 3 6 3 1 16 14 13 9 7 8 8 19 20 17 14 9 8 9 8 8 8
36 37 33 34 35 30 30 34 23 27 26 29 27 29 34 25 11 13 16 22 11 3 7 6 4 4 3 5 3 2 4 8 1 15 16 8 1 8 9 14 14 3 7 5 3 4 9
36 37 34 35 37 37 32 32 34 37 22 26 19 35 38 30 11 23 30 10 3 4 2 6 5 5 7 7 7 8 8 7 5 7 8 5 16 5 3 5 11 11 4 3 3 6 10
36 37 36 36 38 37 37 36 54 37 22 25 16 42 38 27 25 36 16 2 3 4 5 3 4 8 7 7 6 8 5 8 14 7 2 8 4 16 9 11 5 15 14 4 6 3 5
36 36 37 36 39 38 41 58 26 14 18 24 16 39 26 24 37 35 7 3 6 5 6 9 5 6 6 6 4 8 8 9 9 15 8 5 4 4 7 9 12 4 9 20 6 5 5
35 36 37 36 38 40 40 44 17 14 14 19 12 18 18 36 40 18 5 4 4 4 6 5 7 9 7 6 9 7 7 5 9 16 9 6 3 5 5 6 7 8 5 5 4 6 5
34 35 35 36 38 40 46 36 13 11 17 24 16 8 25 41 33 6 4 5 4 5 6 6 6 5 7 5 8 5 6 5 11 14 19 6 5 2 4 9 12 6 11 7 7 7 3
34 34 35 36 37 39 43 32 19 16 18 32 2 4 33 41 5 3 3 5 4 5 2 3 4 7 8 9 7 7 9 8 11 7 12 11 4 8 18 4 10 19 20 19 6 7 9
32 33 34 35 37 38 40 27 25 22 28 7 8 3 27 27 5 6 4 4 4 6 8 7 9 10 11 6 5 10 7 8 8 12 9 10 5 4 4 8 12 12 19 20 15 5 6
30 32 33 34 35 39 42 33 33 27 28 11 3 5 3 3 4 6 10 6 6 6 9 8 5 13 7 7 10 3 7 4 12 8 14 12 3 6 9 3 9 8 23 22 21 10 8
28 29 31 32 32 36 39 33 34 29 30 0 2 3 5 8 7 10 11 6 10 7 7 10 4 11 7 6 7 10 8 2 6 11 10 8 6 9 15 18 12 17 24 22 22 6 8
28 28 30 31 30 34 36 33 34 33 34 4 2 3 3 8 10 7 12 10 11 8 7 6 9 9 16 11 6 1 5 5 6 12 9 4 5 4 6 10 16 16 20 17 14 5 5
28 27 28 29 29 32 35 33 32 28 27 3 4 3 4 10 10 8 5 7 10 6 9 12 14 11 8 16 14 9 7 8 9 10 9 4 3 4 5 5 8 6 18 20 14 12 15
28 26 28 29 29 32 37 36 31 25 23 16 3 4 3 5 8 9 9 14 14 16 14 6 14 12 4 4 3 4 5 3 9 10 11 6 6 4 1 1 3 3 19 24 22 21 24
28 25 26 27 27 30 33 31 29 28 30 14 2 4 2 2 4 7 7 3 7 5 15 13 5 5 4 2 3 3 3 4 2 5 9 8 3 3 2 2 5 2 5 8 15 10 7
28 25 25 25 26 29 33 32 31 30 28 12 2 8 3 3 5 4 5 6 3 2 1 3 2 2 4 3 3 5 4 4 2 3 1 2 3 2 3 2 2 3 1 1 3 3 3
26 27 24 25 26 28 32 33 30 28 27 20 5 7 4 2 2 3 2 2 3 2 1 2 2 3 2 4 3 3 4 2 5 5 4 3 2 4 2 3 7 5 3 1 3 4 2
26 25 22 23 24 27 29 31 29 27 24 21 4 8 3 1 2 3 5 4 1 2 2 2 2 2 3 4 3 3 3 5 2 2 4 5 5 3 2 1 6 3 4 2 3 2 2
25 25 22 22 23 24 27 30 30 28 25 21 3 9 8 1 2 2 5 7 6 5 3 3 2 3 3 3 3 2 2 2 3 3 2 3 5 5 7 5 2 3 2 2 1 3 2

GFSGBSN_925_spd_021.txt.gz
Wind_Speed
24 26 27 28 27 28 27 21 22 21 19 18 19 19 14 13 13 13 10 9 6 4 3 3 3 3 5 1 8 1 2 2 6 22 14 5 4 3 3 3 3 4 2 5 6 8 8
25 25 25 27 26 27 27 28 21 23 21 19 20 20 16 15 14 14 12 10 7 6 4 2 3 3 2 4 6 13 4 3 5 15 11 9 4 5 3 4 3 3 5 6 5 8 7
26 26 27 28 28 28 29 27 29 21 24 21 21 20 20 17 16 14 14 11 8 6 5 3 2 2 1 11 4 4 5 8 5 6 4 13 12 2 1 3 2 3 6 6 6 4 6
27 28 28 27 28 28 28 29 29 30 22 24 23 21 21 19 18 15 14 11 9 7 5 4 2 2 6 6 4 17 12 8 10 10 4 2 6 6 7 5 4 2 2 2 3 10 7
29 30 30 30 29 29 28 28 29 31 30 24 25 24 23 21 19 16 15 13 10 7 4 3 3 1 7 5 5 14 12 5 4 10 9 5 3 3 2 3 5 5 7 4 5 6 5
29 30 31 32 30 30 29 28 29 30 29 30 26 26 24 21 21 17 15 12 8 5 4 4 2 1 5 3 4 4 13 9 2 4 2 3 3 3 3 6 10 4 3 4 5 1 3
28 31 32 31 31 31 31 29 29 28 29 29 22 26 27 25 23 19 16 10 4 1 5 7 5 4 1 2 4 3 8 10 3 4 5 2 5 9 13 8 5 5 6 7 4 7 5
29 31 32 31 30 32 33 31 30 28 28 28 28 26 26 25 24 22 23 5 4 2 4 14 8 12 8 4 2 3 14 6 5 6 4 2 12 8 6 7 9 12 16 16 7 8 8
29 30 32 31 33 33 32 32 30 28 27 28 26 19 26 26 26 26 25 16 7 2 2 4 6 6 5 6 6 4 11 5 4 7 7 12 3 10 8 9 10 11 14 14 13 7 11
30 31 33 33 32 32 32 35 32 26 25 26 26 25 27 28 24 21 12 18 9 2 2 5 4 4 5 3 5 14 17 5 5 12 9 11 13 13 11 12 10 18 9 13 11 5 6
32 33 33 33 33 32 33 31 28 28 22 29 29 27 22 41 22 13 13 23 14 4 2 4 5 1 4 7 2 1 12 9 12 9 6 7 5 12 18 13 10 9 6 8 8 7 7
33 34 33 34 36 32 34 31 33 28 28 33 33 31 27 30 23 17 25 30 11 4 7 6 4 6 5 5 2 2 4 7 2 10 13 8 4 6 8 15 13 2 7 6 4 5 12
33 33 33 35 34 34 32 34 32 32 44 38 30 30 21 37 13 35 41 14 4 4 1 6 5 5 6 5 5 6 4 7 7 5 10 3 13 3 4 6 9 13 6 3 5 7 8
33 33 32 32 35 34 35 38 36 52 35 22 20 22 28 26 29 43 31 3 4 5 5 3 5 6 6 7 4 9 5 9 12 6 2 6 6 14 10 9 6 18 14 4 6 5 4
34 33 32 34 34 34 36 38 46 41 14 6 11 19 13 25 41 37 13 3 8 7 7 10 6 4 6 7 4 8 8 10 7 15 8 2 5 5 10 6 11 5 12 17 5 3 4
34 32 32 34 34 34 36 35 42 30 7 5 2 9 10 41 45 26 7 6 3 5 7 5 7 9 6 7 9 8 7 4 5 11 13 5 5 4 5 7 10 8 5 5 6 4 6
33 32 30 33 34 33 35 37 32 25 16 7 5 3 19 42 35 9 5 4 4 4 6 6 6 6 7 6 9 6 4 4 8 8 19 6 4 2 4 11 13 11 10 4 2 4 4
32 31 30 31 33 33 35 37 35 27 15 8 3 3 36 39 8 5 5 6 5 5 1 3 2 6 8 10 8 6 8 8 9 9 10 9 3 7 15 4 12 16 15 16 5 6 6
31 31 29 30 31 33 35 37 31 32 17 3 2 3 33 26 5 5 6 4 3 5 5 6 6 9 10 7 5 8 6 7 11 12 12 10 5 4 3 7 14 8 13 15 16 4 12
31 30 27 28 29 30 33 36 34 31 25 23 3 3 3 6 2 13 8 8 7 6 4 7 4 11 8 6 8 4 5 4 13 14 9 12 4 8 9 3 4 10 16 20 17 11 13
30 29 25 27 27 28 32 36 34 33 38 3 1 4 4 7 6 11 9 9 10 7 7 9 5 12 7 6 9 9 8 10 2 7 8 8 6 10 17 20 13 7 19 20 23 27 17
30 29 24 25 25 26 30 34 33 32 37 2 3 3 2 6 15 11 12 8 12 9 7 5 8 8 14 9 7 4 5 4 5 7 8 5 4 3 17 21 20 12 17 20 23 21 22
30 28 26 25 25 25 29 34 34 28 26 4 4 4 4 9 11 9 8 7 14 6 9 9 13 11 10 14 16 19 5 7 9 9 10 4 3 3 5 4 8 7 18 23 21 20 18
30 28 26 24 24 24 27 31 34 29 25 10 5 2 3 4 9 10 9 9 7 7 5 3 10 10 2 5 4 5 6 9 6 8 10 6 4 2 4 3 2 4 5 14 18 12 8
29 27 26 24 25 24 27 30 34 31 29 22 3 1 2 4 8 9 8 8 8 6 11 14 8 4 2 4 2 4 2 2 8 8 13 7 2 3 3 3 2 4 6 9 11 13 12
28 27 25 23 24 24 26 29 32 32 32 27 8 6 1 4 6 6 11 5 3 4 2 2 1 2 4 4 3 5 4 0 3 3 5 4 6 2 3 4 3 2 5 8 8 6 18
28 26 24 22 23 23 25 28 31 31 29 24 6 5 3 3 1 4 4 5 4 2 2 1 1 3 6 5 4 3 4 2 3 3 3 3 2 3 2 3 7 3 2 9 6 5 2
28 26 23 21 21 22 24 25 28 28 29 23 11 3 2 2 1 1 2 4 3 2 3 3 1 3 3 5 4 4 3 4 2 3 3 5 4 3 3 1 5 3 1 3 2 0 2
25 25 22 21 20 21 23 23 25 26 29 24 3 3 2 3 1 2 5 5 4 5 4 3 1 2 3 2 2 3 1 2 4 3 2 3 5 3 6 5 4 3 2 2 2 1 0

GFSGBSN_925_spd_024.txt.gz
Wind_Speed
25 25 27 27 27 28 28 28 28 29 26 23 21 20 20 17 13 12 12 9 6 4 4 5 4 2 2 0 8 4 2 2 6 18 13 6 3 4 4 3 0 4 3 4 4 7 6
26 27 27 28 28 28 29 27 27 27 28 25 22 22 20 21 17 12 13 10 8 6 5 4 3 2 1 3 5 7 5 6 7 16 13 8 6 5 3 3 3 1 2 5 6 6 5
26 27 27 28 28 29 29 28 28 28 25 30 23 24 22 23 19 15 14 13 9 7 5 4 3 2 1 11 2 1 4 1 5 9 4 8 5 3 3 3 1 2 4 6 6 6 7
27 28 30 30 30 29 29 30 29 28 27 27 29 22 24 23 22 17 15 14 11 9 6 4 3 2 6 5 5 11 5 2 2 5 4 5 9 4 2 4 3 3 2 3 5 4 6
27 29 30 31 32 31 30 30 30 30 28 28 28 28 23 23 23 20 16 14 12 10 6 4 3 3 7 4 4 7 10 3 2 6 3 0 5 4 3 3 3 5 5 5 6 3 5
27 29 30 32 32 31 32 31 31 30 29 28 28 27 23 23 23 22 17 14 8 8 5 3 3 2 4 2 2 3 9 10 3 5 3 3 3 3 3 4 5 4 4 3 8 3 5
25 28 29 29 32 33 34 33 32 30 29 27 28 26 27 22 22 25 21 13 4 2 5 7 4 3 1 2 2 3 6 9 3 4 5 2 5 7 10 7 3 1 5 11 6 8 8
26 28 29 30 31 32 34 32 31 30 29 28 26 26 25 19 20 30 30 4 8 5 3 13 7 7 6 4 1 2 12 5 4 5 4 1 10 7 5 5 7 8 10 13 13 13 11
28 31 32 31 31 32 33 32 32 31 30 24 23 22 21 17 23 36 32 16 17 8 1 4 6 7 3 5 4 4 8 4 3 5 6 7 3 7 10 5 7 9 10 8 12 8 13
31 32 33 32 33 33 35 32 31 29 31 28 19 22 24 20 16 31 18 20 17 10 4 4 4 5 6 5 5 10 15 5 3 9 5 9 11 7 5 6 8 14 8 13 13 6 7
31 33 33 32 33 35 34 33 29 29 31 27 23 26 28 24 8 17 21 25 17 7 2 3 5 1 7 9 2 2 6 4 7 8 6 6 5 7 15 16 7 5 6 9 10 8 8
31 33 33 32 32 34 34 32 31 34 31 31 29 35 29 23 12 28 38 29 11 6 6 6 4 5 6 4 2 3 5 3 2 10 12 11 4 4 6 8 11 3 5 4 3 7 10
32 33 33 32 32 34 34 31 33 33 34 37 52 37 22 17 4 37 47 13 5 4 0 6 5 6 6 6 5 5 6 8 6 4 8 4 15 4 3 4 7 10 2 2 5 6 8
33 34 34 32 32 33 33 33 35 42 40 32 20 13 16 20 22 47 28 5 4 6 5 5 5 8 6 6 4 7 4 7 11 5 1 4 5 12 11 14 7 15 11 5 4 4 4
34 34 33 32 31 33 33 33 36 33 31 14 2 12 10 21 25 40 13 3 8 7 7 9 11 4 5 6 3 6 8 6 7 15 6 3 4 2 7 8 8 5 10 13 6 4 4
33 34 32 31 30 31 32 34 38 35 33 14 5 1 6 15 45 22 9 7 4 4 6 5 5 5 6 7 8 7 6 4 6 12 7 2 6 6 4 8 9 7 1 3 5 4 4
34 34 32 30 28 30 31 34 37 35 38 1 3 2 9 25 33 8 7 3 3 4 5 4 4 5 4 6 8 5 5 4 7 5 14 5 4 1 5 10 12 8 5 6 2 4 4
34 33 32 29 27 29 29 33 35 34 32 4 2 2 16 40 7 4 5 6 4 5 2 3 3 4 5 7 7 6 7 5 5 8 10 9 3 6 14 5 14 14 10 15 6 5 4
33 33 31 29 27 29 29 32 35 33 27 10 1 2 26 35 4 6 5 4 3 4 3 3 3 2 4 6 4 8 4 6 9 10 11 10 5 4 4 1 6 10 16 18 15 1 10
32 32 29 28 28 28 29 32 35 35 29 19 1 3 4 5 2 9 9 5 4 4 5 3 2 5 4 5 8 3 3 5 13 10 9 12 4 9 12 13 4 7 16 17 16 9 19
31 32 29 28 27 27 28 33 36 38 36 2 2 3 2 5 4 8 4 9 6 5 3 7 5 9 6 5 5 6 6 8 5 10 8 8 8 13 22 22 13 11 13 15 19 22 11
31 31 29 27 26 26 27 32 36 37 34 5 3 3 2 6 11 6 5 6 11 6 8 5 7 7 9 5 7 6 6 6 6 3 8 4 6 7 19 18 18 16 15 17 24 21 21
31 30 28 26 25 26 25 29 33 33 25 4 7 3 3 8 9 7 6 6 9 6 7 5 11 9 8 13 16 15 6 6 3 3 8 4 3 3 8 6 5 3 16 19 16 21 19
30 29 28 24 23 25 25 26 29 32 26 15 8 3 3 5 8 9 9 7 8 11 3 2 9 7 4 2 5 3 6 11 10 13 12 5 3 3 5 7 3 5 5 15 19 13 18
30 28 27 24 23 24 23 26 28 31 30 27 7 2 2 3 7 11 8 7 5 2 2 6 8 4 4 0 2 3 2 3 7 9 12 13 4 4 3 5 5 6 1 4 8 10 17
28 27 26 24 23 24 26 27 28 31 32 31 3 3 1 4 6 5 5 4 3 4 4 5 1 2 3 2 2 4 4 4 3 3 1 3 2 3 3 4 4 3 5 5 5 4 13
27 26 24 23 22 21 23 25 25 27 29 28 6 8 1 3 2 4 3 6 4 2 2 2 3 2 5 4 4 4 2 2 2 2 3 3 3 7 4 3 7 4 3 5 2 3 6
26 23 22 22 21 22 23 24 24 27 28 29 12 6 2 2 1 2 3 4 3 2 3 3 1 3 2 4 4 3 4 4 0 3 4 6 4 3 2 2 4 3 3 1 3 3 3
25 21 22 21 20 20 22 22 22 23 25 24 5 4 5 3 1 1 4 3 3 5 4 4 2 3 2 3 2 2 3 2 4 3 0 3 5 3 6 5 3 3 4 5 2 3 3

GFSGBSN_925_spd_027.txt.gz
Wind_Speed
25 25 26 26 26 27 28 27 26 26 25 25 25 20 19 20 21 16 11 10 8 6 3 2 2 0 4 2 7 5 1 1 7 20 14 6 3 3 3 2 2 3 3 3 4 6 5
24 25 26 26 27 27 27 27 27 27 27 26 26 25 20 19 21 19 15 13 9 8 5 2 2 2 4 2 2 5 4 3 5 16 11 8 4 3 3 2 3 2 3 6 6 8 5
25 26 27 27 28 28 28 29 26 28 27 26 27 26 26 19 19 23 17 15 12 9 6 4 3 3 1 9 3 1 4 3 5 12 6 7 6 4 4 1 2 2 5 7 7 7 8
25 27 28 28 28 28 29 29 29 29 29 28 25 27 26 24 17 22 19 16 13 10 8 6 5 4 5 2 5 6 5 4 6 9 7 6 10 2 2 0 2 3 3 3 3 1 6
25 25 27 29 30 29 30 29 30 31 29 29 26 25 26 26 18 20 23 18 14 12 10 8 5 3 7 1 3 4 9 6 7 7 6 8 7 3 2 2 4 4 3 5 5 5 2
24 25 28 28 28 31 31 31 31 31 29 29 27 25 25 25 20 17 25 18 12 11 7 5 2 2 4 2 3 5 10 8 4 5 3 3 2 3 3 5 6 4 5 6 5 1 4
26 28 30 30 28 28 28 33 33 31 29 29 28 25 23 23 23 13 26 19 6 2 5 7 5 3 1 1 5 3 7 7 4 4 5 2 5 8 11 6 4 1 3 11 7 8 11
26 29 29 30 30 30 30 31 32 33 29 28 26 25 20 21 21 18 38 5 9 10 5 11 4 4 4 2 3 2 12 5 4 4 5 3 10 9 8 5 10 11 13 15 11 9 11
28 29 31 31 31 31 31 32 31 31 28 26 26 25 18 21 23 19 27 20 24 15 5 3 5 6 3 4 2 5 8 4 4 5 7 6 4 5 8 5 12 10 13 12 17 9 14
29 30 31 31 31 31 31 32 32 30 26 26 26 25 20 21 12 10 19 24 23 12 4 4 4 5 8 3 4 9 13 5 2 11 5 6 8 4 4 8 10 16 6 10 11 6 7
30 31 31 31 31 31 31 33 31 29 27 26 24 22 21 11 21 8 10 30 28 6 2 3 5 4 7 10 5 1 5 3 7 6 5 4 5 5 12 12 9 7 5 6 8 8 11
31 31 31 33 31 31 31 32 33 32 31 36 31 27 20 20 16 17 23 29 12 4 6 7 5 6 8 6 5 3 5 1 1 5 8 7 3 5 8 7 14 1 3 4 3 5 9
31 32 31 31 31 31 30 32 34 33 40 32 30 30 29 28 13 19 31 13 4 4 2 8 5 7 8 7 5 5 7 8 5 4 4 3 15 6 4 5 3 12 2 3 4 6 7
32 32 32 32 31 30 31 34 32 37 41 35 34 20 19 26 29 3 24 4 4 5 4 5 6 9 5 5 4 7 5 7 11 5 1 4 4 11 9 13 6 14 11 5 5 5 3
31 31 32 31 31 29 30 32 34 40 39 39 7 4 10 20 21 14 5 3 6 6 8 10 11 6 4 4 3 5 8 5 7 12 5 3 4 2 7 3 11 5 10 10 9 12 9
31 32 32 31 30 28 30 31 35 39 42 29 1 4 7 19 19 10 2 4 3 5 12 11 5 5 10 9 7 8 6 2 4 10 11 1 5 3 1 5 9 9 1 4 5 5 9
32 32 32 30 29 28 30 31 34 37 35 23 4 2 12 18 21 3 2 1 5 5 6 4 4 5 5 7 8 6 3 3 5 1 9 4 4 3 4 9 10 8 7 7 3 4 5
32 31 31 30 29 28 29 30 33 36 36 7 3 0 9 27 3 1 2 5 5 3 4 3 4 4 4 7 6 6 6 5 7 7 8 7 3 5 11 10 15 19 19 17 7 11 5
30 31 31 29 29 28 29 30 34 37 36 19 1 1 17 17 2 2 2 4 4 3 2 2 3 3 2 5 3 5 4 3 9 9 10 8 4 5 6 2 6 10 18 19 12 4 13
31 31 30 29 28 27 30 31 35 37 42 15 2 2 3 1 2 4 5 3 4 4 3 4 4 3 3 3 4 0 4 3 10 7 9 10 4 7 9 15 9 8 14 19 18 7 17
30 31 30 29 27 27 30 30 36 39 45 2 1 3 1 2 2 7 3 4 5 3 2 3 3 5 4 4 4 6 7 3 4 11 6 9 7 10 19 26 23 24 25 17 20 24 11
30 30 29 29 26 27 28 28 31 36 38 7 1 2 1 2 7 7 5 5 7 4 5 5 2 7 7 5 7 4 3 4 5 3 7 5 5 4 21 21 22 19 16 15 20 21 23
30 29 29 28 25 26 27 26 29 32 30 5 6 5 1 8 6 6 4 6 7 7 3 1 9 4 8 11 10 10 8 4 2 4 10 4 3 3 13 10 17 5 5 9 11 16 14
30 28 28 28 25 24 24 26 27 28 28 16 8 3 2 4 6 5 7 3 5 5 3 2 5 5 3 3 3 4 6 10 9 13 10 6 2 3 8 9 4 3 2 8 15 14 17
28 27 26 26 26 25 25 25 26 27 31 29 12 4 1 3 6 7 8 5 3 5 4 1 2 3 5 1 2 3 2 2 7 13 10 13 6 4 4 7 8 1 6 1 4 6 18
27 26 24 24 25 25 25 27 29 28 29 30 12 4 1 4 7 7 6 7 4 4 1 2 2 1 1 2 2 2 4 3 3 2 4 5 11 3 3 4 4 3 4 2 5 3 5
26 24 21 23 23 23 24 25 25 26 29 28 8 7 2 2 2 4 4 6 4 3 1 2 3 2 1 2 3 4 4 3 3 3 4 4 3 8 7 4 7 5 5 2 2 4 5
24 23 22 22 21 21 21 22 23 26 27 28 12 10 3 1 2 1 4 4 3 3 3 3 2 1 2 3 3 3 3 4 1 3 5 6 5 4 2 3 6 2 2 2 3 5 2
23 23 22 22 21 21 22 21 21 23 23 23 7 16 13 1 3 1 1 1 2 6 4 4 1 3 3 3 3 2 3 2 3 3 0 2 5 3 6 5 4 3 5 2 1 4 5

GFSGBSN_925_spd_030.txt.gz
Wind_Speed
21 22 23 23 23 24 23 23 24 23 24 25 24 24 24 24 20 18 20 16 12 9 7 5 3 3 2 5 5 5 2 1 6 18 16 8 8 6 9 4 5 11 10 7 9 9 11
20 21 23 23 23 23 24 24 24 24 24 25 24 23 23 23 22 19 21 18 15 12 9 6 4 4 3 7 2 3 4 1 4 17 18 13 6 4 2 4 9 1 7 10 9 13 13
21 21 21 24 25 25 25 25 23 24 25 26 24 23 23 23 25 18 18 22 17 13 10 7 5 4 4 6 3 1 5 4 4 13 12 11 10 6 6 5 4 5 10 12 14 13 13
20 20 22 24 25 26 26 26 25 25 26 25 25 24 24 22 22 22 16 25 21 16 12 9 7 3 4 3 5 6 4 6 7 6 7 12 9 4 5 2 3 4 5 5 4 3 5
23 21 23 24 25 24 25 26 26 27 27 26 25 25 24 23 22 22 16 23 22 17 13 11 6 3 3 2 5 5 9 10 11 11 9 9 9 4 5 6 5 7 7 8 10 8 7
24 24 24 25 26 26 26 26 27 28 28 28 25 25 24 22 20 20 16 20 23 17 14 9 4 3 4 3 4 6 8 14 7 11 8 5 3 5 7 8 6 5 12 10 11 1 8
25 25 25 27 28 27 28 28 27 27 26 26 24 22 23 22 17 19 15 14 7 5 8 6 8 1 4 4 6 4 11 11 10 11 8 7 6 11 14 13 12 4 7 10 9 9 18
26 27 28 28 30 29 28 28 28 28 25 26 22 20 21 22 18 19 21 4 11 12 6 8 7 6 2 2 4 7 12 9 12 13 9 6 11 12 7 10 12 14 16 17 15 13 12
27 29 31 30 30 30 29 29 28 28 27 25 24 22 21 21 20 20 11 10 24 18 5 5 11 6 4 6 3 11 14 7 11 12 16 8 2 4 13 12 13 15 16 15 18 17 18
28 31 30 32 32 31 30 29 27 27 28 27 22 20 22 18 14 10 7 20 19 5 3 9 9 7 12 7 5 10 17 6 5 12 10 9 10 6 9 12 12 15 8 13 14 11 8
31 31 32 34 32 31 30 29 29 28 30 27 22 30 24 16 10 5 9 19 19 2 7 11 7 10 10 11 10 5 16 4 8 8 6 3 6 11 13 15 10 7 6 7 9 12 14
30 31 31 31 31 30 29 28 29 31 29 34 37 31 24 18 15 11 10 14 9 5 6 8 7 12 13 14 7 7 7 3 1 7 8 10 2 5 8 10 13 0 7 10 11 8 9
30 30 31 31 31 30 29 29 31 30 33 38 44 35 23 21 10 8 5 3 4 4 6 9 9 12 14 12 10 9 11 10 7 6 8 5 16 8 7 7 7 11 3 3 4 6 8
31 31 31 31 30 29 28 29 30 31 36 40 34 9 11 19 25 10 9 2 3 6 7 5 13 16 7 16 7 9 11 10 14 6 2 3 3 13 12 15 6 13 13 6 6 6 8
32 32 30 30 29 29 28 30 29 32 37 39 24 8 5 12 21 13 5 5 3 6 11 12 12 8 5 11 5 8 9 8 9 14 6 5 5 2 11 7 12 5 10 13 13 21 13
32 31 30 29 28 29 28 29 30 32 37 36 18 6 5 18 20 13 3 2 2 6 18 17 6 7 9 14 9 12 12 4 10 14 12 2 4 6 2 7 11 10 0 4 6 6 11
31 30 30 29 29 29 28 31 29 33 36 36 5 2 10 22 18 3 2 1 5 13 12 3 7 9 8 12 10 10 5 3 8 10 16 7 5 3 4 13 14 9 6 6 8 9 7
29 30 30 29 29 28 28 30 29 35 34 27 2 1 15 23 3 2 3 3 7 10 2 4 6 8 13 10 9 8 8 4 7 10 10 11 4 8 14 10 13 15 16 20 9 12 10
29 30 30 29 29 28 29 30 30 34 39 18 1 3 16 3 3 3 2 3 4 4 3 3 4 4 3 7 5 7 5 2 10 10 10 11 6 4 4 3 6 9 16 23 19 13 19
29 29 29 29 28 29 29 31 33 36 43 11 1 3 2 1 1 5 4 4 5 5 5 7 8 7 6 4 1 3 6 2 9 12 6 11 5 8 9 11 5 10 18 13 17 12 22
30 28 27 28 27 28 28 32 34 37 42 10 2 2 1 3 4 5 1 4 8 4 4 3 4 4 4 3 4 3 7 3 4 8 8 8 5 10 18 24 21 23 26 25 18 24 16
28 27 28 27 27 27 27 30 33 35 36 7 3 1 2 4 8 9 5 5 5 4 3 3 4 5 4 4 4 5 7 7 4 9 9 7 5 5 15 22 21 20 21 20 17 18 19
26 26 25 25 26 25 26 27 30 30 30 5 8 5 1 7 7 9 6 6 6 7 1 3 4 4 4 7 5 7 7 4 3 5 12 5 3 3 6 15 25 6 5 8 7 9 10
25 25 24 23 24 24 25 26 27 26 27 16 7 4 2 3 5 9 8 4 8 6 2 1 3 5 3 3 1 2 9 13 12 12 9 5 4 2 7 15 4 2 11 12 10 14 12
25 24 23 20 23 23 24 23 26 24 24 23 12 3 2 3 8 8 10 7 8 4 1 3 2 2 2 2 2 3 3 3 7 13 16 14 9 4 4 5 12 7 8 5 2 6 12
22 23 22 22 21 21 21 23 23 24 25 29 10 5 3 3 7 9 8 7 5 4 2 4 1 1 3 2 3 3 2 2 1 3 2 11 13 7 3 4 4 2 5 5 2 3 11
21 21 21 22 21 19 21 21 21 23 25 27 7 9 4 2 1 8 9 10 5 4 1 2 2 2 2 3 3 3 3 2 3 3 4 4 3 9 7 4 8 4 5 1 5 7 13
20 21 22 21 22 21 21 22 22 23 25 26 13 5 8 2 1 2 4 5 4 5 3 4 3 2 2 3 2 2 4 3 3 2 4 7 6 5 5 5 5 2 3 3 3 7 10
19 20 21 21 21 21 21 21 20 21 21 21 7 21 16 3 1 1 1 1 2 6 4 5 1 3 3 3 3 2 3 2 3 2 3 4 5 2 5 4 1 3 8 5 4 8 6

GFSGBSN_925_spd_033.txt.gz
Wind_Speed
19 19 20 21 22 22 22 22 22 21 22 23 24 24 22 21 22 21 19 15 18 14 13 9 7 5 3 8 11 5 4 6 10 16 18 14 14 13 12 11 9 12 18 12 13 13 13
19 19 20 22 24 25 24 23 23 23 23 23 24 25 23 23 23 23 21 17 18 15 14 10 7 6 7 11 0 2 5 5 11 18 16 11 5 8 6 8 10 2 12 15 13 15 15
19 20 21 22 25 24 23 24 24 24 24 25 25 24 26 24 24 23 22 20 15 19 16 12 9 7 8 9 2 3 6 5 5 14 15 15 5 5 3 5 9 8 14 15 18 18 15
22 22 22 23 24 25 23 25 26 25 25 26 26 24 25 25 24 23 23 22 11 22 17 13 11 7 6 3 6 5 6 8 5 10 9 13 8 5 7 1 4 7 12 12 3 8 13
22 24 25 24 25 26 27 26 26 26 25 26 26 25 25 23 24 22 21 22 17 22 19 15 9 8 6 4 7 10 9 10 9 9 8 12 8 3 4 9 8 10 10 13 9 9 8
25 25 26 26 28 28 28 28 26 26 25 23 25 26 23 22 20 21 19 22 15 23 19 13 4 5 7 6 8 9 11 11 11 12 9 8 7 6 7 10 8 11 15 12 11 4 8
25 27 28 29 30 29 30 28 28 27 25 24 23 22 21 20 20 19 15 13 3 7 11 7 12 2 11 9 11 10 15 14 11 12 7 8 8 13 17 17 15 9 9 11 10 8 16
26 27 30 32 32 32 32 29 27 27 26 24 23 23 21 21 18 19 14 3 7 4 6 7 11 7 9 10 7 11 17 10 11 12 10 5 12 15 11 10 11 13 13 15 14 11 12
28 30 30 31 32 32 31 29 28 27 26 25 26 20 20 18 20 18 17 12 16 13 4 13 13 13 8 9 8 16 17 13 13 14 15 11 2 4 14 11 12 13 12 11 14 17 18
29 29 30 31 31 30 30 28 28 27 25 26 24 24 20 22 17 14 13 7 20 4 4 10 11 8 9 7 5 16 20 9 7 15 12 10 8 5 10 13 11 12 8 8 10 8 6
30 30 30 30 31 30 30 28 27 26 28 27 26 28 24 22 12 9 4 10 13 3 6 17 11 12 16 11 15 11 19 5 11 8 7 4 6 12 12 12 8 6 3 6 8 10 13
30 32 31 30 29 30 28 27 26 28 26 28 31 40 39 28 24 18 5 3 8 2 5 7 7 13 18 13 8 11 14 4 3 7 11 10 3 5 9 7 10 4 4 7 9 5 8
31 31 30 29 29 29 28 26 28 27 27 30 34 34 22 12 8 15 9 2 4 5 12 10 9 14 17 15 11 13 14 11 8 5 8 10 16 8 10 8 6 7 1 2 3 4 7
31 30 29 28 29 27 28 26 27 26 27 31 37 26 7 12 12 16 10 2 7 7 6 7 15 17 9 17 10 15 15 12 16 10 4 8 6 17 12 14 5 12 9 4 5 7 11
29 29 28 29 28 27 28 27 28 26 31 33 34 15 4 10 21 13 2 4 2 11 10 13 17 9 8 19 8 11 13 11 13 13 7 6 3 1 10 7 11 5 8 10 13 18 11
27 28 29 28 28 27 28 29 28 28 33 31 22 7 3 13 19 13 4 7 4 3 14 18 7 6 8 17 10 13 13 12 9 17 12 2 3 6 6 6 9 11 3 2 4 5 11
28 28 28 28 28 26 28 30 29 31 34 38 5 1 10 17 13 1 3 2 2 10 11 2 9 10 10 15 10 15 16 5 15 13 15 7 4 5 3 11 13 10 7 6 6 7 6
27 28 27 26 27 26 28 31 29 32 36 14 4 3 14 14 3 1 3 3 10 13 0 2 7 6 16 16 10 11 8 2 8 9 11 8 3 6 12 9 9 13 13 17 7 8 6
26 28 27 25 26 27 29 30 32 34 34 7 3 4 6 4 3 2 2 3 7 3 2 2 4 2 6 13 6 5 6 4 9 12 9 10 5 3 2 3 12 11 16 17 18 14 20
26 26 25 25 26 27 28 30 33 37 32 3 2 3 1 2 5 7 4 4 5 3 7 8 9 11 10 12 5 7 5 4 7 10 8 5 5 8 7 6 5 6 15 16 12 8 17
24 26 26 25 24 26 27 29 32 38 23 5 2 2 1 2 4 7 5 3 10 4 3 2 4 7 6 4 4 3 4 5 5 6 5 5 4 11 16 20 18 19 22 22 18 19 14
24 24 24 23 24 25 26 27 30 34 25 6 3 3 2 3 8 6 4 2 3 4 1 3 7 6 4 3 2 4 7 6 5 9 10 5 4 4 12 19 16 16 22 16 15 17 16
23 23 23 22 23 23 24 24 27 28 27 4 5 4 3 4 8 6 6 8 4 5 4 7 6 4 3 4 1 2 3 2 1 3 11 5 3 3 6 12 20 7 2 8 11 13 11
21 21 22 23 22 22 22 23 23 24 22 8 4 3 3 3 6 7 7 5 4 2 3 4 2 1 5 3 2 2 3 7 8 9 7 5 6 3 6 12 3 1 5 8 8 12 8
20 20 21 21 23 21 20 22 23 23 23 17 5 2 2 1 4 7 9 5 7 5 3 5 3 4 4 1 2 2 3 3 8 13 14 12 6 3 3 6 15 8 5 4 2 5 7
18 19 20 21 21 21 21 21 21 22 23 23 6 4 3 3 6 8 9 9 5 4 2 3 4 3 2 2 1 2 2 2 4 4 3 10 12 5 3 4 4 4 5 1 2 2 10
18 17 18 19 20 21 21 21 21 21 22 22 3 9 4 3 3 8 7 6 3 2 1 3 3 2 2 2 1 2 3 2 3 4 5 4 2 8 8 5 9 9 5 1 5 7 12
18 17 17 19 19 20 21 20 19 19 20 20 9 5 5 3 0 1 1 3 4 4 2 4 3 2 2 2 1 2 4 2 3 3 5 8 7 4 4 4 7 3 4 4 7 10 8
18 18 17 18 19 20 20 20 18 18 17 16 5 13 12 3 3 1 1 2 4 4 2 5 3 3 2 2 3 2 2 2 5 3 5 5 7 1 8 5 6 6 9 10 7 9 7

GFSGBSN_925_spd_036.txt.gz
Wind_Speed
20 20 21 21 22 24 23 22 23 24 24 24 24 24 22 23 22 22 22 21 20 18 16 13 10 7 3 6 8 5 6 13 10 14 17 13 11 9 11 9 12 12 16 12 9 9 7
20 22 23 23 24 25 24 23 24 24 24 25 25 25 24 23 23 22 22 20 20 18 17 14 11 8 5 11 3 5 6 6 10 16 18 15 5 6 6 12 8 4 8 11 14 7 8
23 23 25 26 25 25 25 26 25 24 25 25 26 26 25 24 23 22 23 21 20 18 17 15 12 10 10 11 3 3 6 6 7 16 11 13 3 2 1 3 9 5 8 11 13 10 10
22 24 26 26 28 27 28 27 29 26 23 25 25 25 26 24 24 22 21 20 20 20 14 18 13 12 6 5 11 5 6 8 3 5 14 12 4 3 2 4 2 5 10 8 10 19 13
25 26 27 28 29 31 31 30 29 26 25 25 23 24 24 24 22 20 21 20 19 21 16 21 11 13 6 8 7 13 10 11 9 8 3 11 8 2 5 3 2 6 6 12 9 5 4
25 26 28 30 30 31 32 31 28 25 26 25 23 22 22 22 20 19 20 16 19 17 13 18 11 9 9 9 10 15 13 9 10 8 7 6 3 4 5 7 6 7 10 8 8 5 4
26 28 30 29 30 31 31 29 28 27 26 25 22 21 23 23 21 20 17 8 3 6 10 5 10 3 15 16 15 12 15 14 9 9 7 10 4 7 12 10 13 12 8 8 11 9 6
29 28 30 30 29 30 30 30 29 27 25 23 21 23 20 18 17 19 15 3 4 6 5 13 8 13 13 18 10 12 17 8 8 8 6 3 7 10 11 11 10 8 7 10 9 9 10
28 30 31 31 30 31 30 29 27 26 24 23 22 20 20 21 24 21 14 15 7 11 4 11 11 13 14 8 8 15 15 10 11 9 8 8 2 13 11 7 4 7 6 7 9 11 10
29 30 32 31 31 29 29 27 26 24 24 24 21 20 20 21 13 11 15 6 9 7 2 10 9 10 9 7 6 16 16 9 6 11 9 7 6 5 4 9 7 6 3 6 5 6 4
29 31 31 30 29 29 28 26 25 25 25 23 24 25 24 26 8 6 2 5 9 3 4 14 8 14 13 8 15 12 18 7 11 9 7 4 4 5 5 6 6 3 7 5 5 6 9
30 30 30 29 29 28 27 27 26 26 25 24 25 28 33 21 10 21 14 4 8 3 4 5 7 13 14 13 5 12 10 3 3 5 8 5 3 1 4 3 4 6 2 4 6 4 5
29 28 28 29 29 28 28 28 27 28 25 25 30 32 26 10 3 18 13 5 3 4 4 8 9 13 17 13 10 16 11 6 5 4 4 4 8 3 3 4 5 3 2 2 2 3 6
27 28 29 29 28 29 28 30 30 29 27 30 30 33 12 4 5 22 16 2 5 4 2 7 14 16 11 15 8 13 12 7 9 6 6 6 4 15 9 9 4 7 4 3 5 3 3
28 29 28 27 27 28 28 30 31 28 31 33 30 15 4 8 15 17 2 3 3 3 8 10 18 7 9 11 7 10 10 8 10 10 4 6 3 3 11 6 9 5 6 2 3 5 2
28 29 28 27 27 27 29 30 31 32 35 36 9 4 5 19 13 2 1 2 4 5 14 16 5 6 10 14 8 9 12 12 8 14 8 4 3 3 8 6 9 6 3 1 0 3 6
27 28 28 27 27 27 29 31 33 34 37 11 5 2 4 14 7 3 1 2 4 8 16 1 9 7 10 14 9 9 11 6 12 12 13 3 2 2 5 8 9 6 5 4 3 3 4
26 27 28 26 27 28 29 32 34 35 30 11 3 3 3 8 3 3 1 2 2 4 2 1 6 10 13 14 8 10 11 4 9 8 13 5 3 3 8 7 12 8 8 9 3 5 4
26 27 28 26 27 28 29 31 35 36 27 4 2 2 3 3 1 1 3 4 4 3 1 1 4 7 15 10 8 5 10 5 5 5 11 7 3 2 2 3 8 5 7 11 11 7 13
26 27 26 25 25 26 29 30 35 39 23 1 2 2 1 2 2 3 1 4 3 6 11 8 8 7 12 7 3 6 7 2 3 3 8 8 3 5 3 2 4 4 5 8 7 6 12
25 26 26 24 25 25 27 29 32 39 21 2 0 1 2 1 3 6 2 5 3 3 4 3 2 8 10 4 6 5 9 8 4 6 3 2 2 4 7 11 9 11 15 17 16 18 14
23 23 24 24 24 25 24 27 30 36 25 6 3 2 3 2 3 10 1 0 1 7 7 5 10 7 5 5 5 7 6 5 5 7 6 3 3 3 5 13 16 18 17 17 15 16 15
21 22 22 23 22 22 21 24 25 29 28 6 7 5 3 1 4 1 2 3 4 4 7 8 6 5 9 7 6 5 5 2 4 6 8 5 2 1 4 7 10 7 5 6 8 11 10
21 21 21 22 22 22 22 22 22 21 22 11 5 3 3 1 2 4 6 5 5 5 6 3 3 4 3 3 4 4 4 2 2 4 3 3 4 2 4 8 2 3 9 9 8 11 10
20 20 21 21 21 21 20 20 20 20 20 20 5 3 2 2 4 2 2 4 8 4 6 6 5 3 4 2 1 2 2 1 6 6 9 8 1 2 2 3 8 7 3 2 4 4 8
20 20 20 21 21 21 20 19 19 18 21 22 2 5 2 3 2 6 6 6 4 4 3 4 3 3 2 1 2 0 0 2 4 3 2 10 9 3 3 3 3 1 4 4 5 2 2
20 19 19 19 20 20 20 18 18 18 19 20 5 8 3 2 3 4 1 2 3 2 3 3 3 2 2 0 1 1 2 5 2 6 5 3 4 8 7 3 7 7 3 6 2 4 4
19 19 19 18 19 19 19 18 17 16 16 18 10 3 5 2 5 6 3 3 4 2 1 4 2 1 1 1 1 1 2 2 3 5 6 6 6 4 3 4 7 2 1 3 3 3 4
18 19 19 19 19 19 19 18 16 15 14 15 4 9 11 3 3 6 4 5 5 3 2 3 1 3 2 2 2 2 1 3 3 2 2 4 6 4 6 5 6 6 2 3 5 3 4

GFSGBSN_925_spd_039.txt.gz
Wind_Speed
20 22 23 25 26 24 25 24 27 25 24 24 23 22 22 23 21 21 22 21 21 20 18 13 11 8 4 4 6 6 2 22 20 14 14 8 4 5 6 6 6 5 7 11 9 8 5
23 22 21 23 24 25 27 26 28 28 26 24 23 23 23 21 23 22 21 20 21 20 19 19 13 9 4 6 8 7 9 16 15 16 16 10 5 8 4 6 5 3 2 3 5 7 5
23 25 26 26 27 28 31 31 30 29 27 25 23 23 24 21 20 22 22 20 20 20 19 19 15 11 6 10 6 10 10 12 11 18 6 19 5 4 4 2 3 3 4 7 6 6 5
25 25 26 26 29 30 28 30 30 27 24 24 23 22 23 22 19 20 20 19 20 20 20 19 20 12 5 9 19 9 11 10 6 7 23 12 2 1 2 1 2 4 3 2 7 10 8
25 26 28 29 29 28 27 29 29 27 26 25 22 20 20 20 19 19 19 20 22 19 19 21 16 9 5 9 13 18 12 7 8 5 7 13 6 0 2 4 1 2 3 5 7 9 6
25 29 28 30 31 29 28 29 28 27 26 24 21 19 19 19 20 16 17 20 22 17 13 14 9 4 5 8 10 17 16 13 4 5 5 5 3 3 2 4 5 5 4 4 6 5 2
26 27 30 31 31 30 29 28 27 26 24 23 20 19 19 17 15 13 16 10 3 3 8 5 9 3 1 12 17 16 18 11 6 3 4 4 3 5 9 6 4 5 6 5 4 5 2
26 27 29 30 30 29 29 28 26 25 23 22 21 20 18 16 16 15 18 3 2 4 5 12 9 14 15 18 7 10 15 6 6 6 5 4 2 5 8 9 10 5 7 5 6 5 4
26 28 29 30 28 28 28 26 25 25 24 23 22 19 19 20 15 15 9 9 8 5 4 9 6 14 7 5 6 13 11 7 8 6 6 5 2 7 5 2 7 2 4 3 5 7 6
26 29 28 28 28 28 27 27 25 25 24 24 22 21 21 21 16 3 5 3 11 6 3 10 6 9 7 5 4 9 10 6 4 9 6 1 1 3 4 3 3 0 4 5 4 4 4
26 25 28 28 28 28 28 27 27 24 26 23 21 22 26 21 11 4 3 5 14 7 4 13 9 17 7 2 13 8 7 1 6 6 6 6 3 5 3 2 5 3 6 5 4 3 5
25 27 29 29 28 27 29 29 29 28 26 23 24 27 29 20 8 14 16 4 3 2 4 6 8 11 8 10 2 7 4 1 2 4 5 4 3 3 6 2 4 5 4 3 3 2 2
26 28 28 28 27 28 29 29 30 30 27 26 29 29 27 13 3 8 18 6 3 3 2 6 8 15 12 9 6 9 9 5 4 5 2 2 2 3 3 4 2 4 5 2 2 2 6
25 27 29 28 28 28 28 30 31 31 33 33 28 29 11 5 1 18 12 2 2 2 3 8 15 16 7 12 9 9 7 4 3 3 4 5 3 8 5 5 6 6 5 4 5 3 4
25 27 29 28 29 29 30 32 32 34 37 40 18 6 4 6 18 15 1 2 2 4 2 8 14 6 5 4 7 7 5 5 5 4 5 4 3 4 9 3 5 3 3 4 1 2 2
23 26 28 28 29 29 31 33 34 37 40 20 6 4 6 9 9 2 2 4 4 5 9 12 4 3 7 7 6 5 8 6 5 8 1 1 4 5 4 4 4 5 4 2 2 2 5
23 26 28 27 28 29 31 33 35 36 28 13 7 3 6 8 1 1 1 3 3 8 12 2 5 7 10 6 6 7 11 6 9 9 6 1 2 2 2 5 6 4 5 4 2 3 3
24 26 28 27 28 29 31 33 34 35 25 12 3 3 6 11 3 1 3 3 4 4 9 5 4 8 12 6 7 3 9 2 9 10 6 3 4 3 8 6 8 5 6 6 4 4 4
23 25 26 27 28 29 31 33 33 34 25 7 2 1 3 4 2 1 3 3 4 4 3 3 1 4 14 5 6 2 5 5 8 7 12 6 1 2 1 3 1 5 6 8 3 2 8
22 23 25 26 27 28 28 32 34 36 24 2 2 2 2 2 1 1 1 2 4 5 4 5 11 14 7 1 5 7 4 4 4 3 8 6 4 5 5 3 3 3 3 6 9 4 8
20 21 23 24 25 26 26 30 34 39 20 1 1 1 1 2 2 2 1 5 7 6 6 5 8 9 6 5 5 5 7 3 5 2 4 4 2 1 5 6 4 6 9 9 10 15 10
19 20 21 22 23 25 26 27 29 33 22 6 2 2 3 3 4 5 5 3 6 5 5 7 9 12 10 4 2 8 7 4 4 2 3 2 2 2 5 9 10 9 13 13 15 18 19
17 18 20 21 21 22 24 24 24 27 26 5 4 3 2 4 3 1 3 2 3 2 7 6 5 7 10 3 5 4 4 3 7 7 5 5 3 1 4 5 6 5 7 12 6 5 6
16 18 18 20 20 20 21 22 20 21 20 14 5 3 2 2 2 1 0 2 5 3 4 4 8 4 2 4 5 6 6 6 6 4 5 5 3 1 3 4 1 4 5 6 10 7 10
15 17 17 19 19 19 19 20 18 17 18 19 4 3 2 2 2 4 2 5 5 5 5 4 5 2 2 2 2 3 2 2 3 4 5 4 3 1 1 2 6 3 2 2 6 6 5
15 17 17 18 17 18 18 19 18 17 17 19 5 6 3 2 2 5 1 5 3 1 2 2 2 3 4 2 2 3 3 3 3 3 5 5 3 1 2 2 3 2 2 2 4 4 4
16 17 17 18 17 17 16 17 17 16 16 17 7 7 3 2 3 4 2 3 2 3 3 2 1 2 2 1 2 2 2 1 3 5 4 4 3 5 5 4 6 8 6 5 3 5 2
15 17 17 19 17 17 16 16 16 16 14 15 12 2 4 2 4 4 5 2 3 2 2 3 2 0 1 1 2 2 1 2 2 6 6 6 5 3 5 4 6 4 4 3 4 3 3
15 16 16 19 18 18 17 16 15 15 13 12 5 6 10 2 4 7 7 3 3 2 4 2 1 2 2 2 1 2 1 3 1 2 4 3 6 4 7 6 6 3 3 1 1 3 2

GFSGBSN_925_spd_042.txt.gz
Wind_Speed
21 22 23 23 23 23 26 29 28 28 28 26 23 22 21 24 21 20 20 19 19 18 19 19 20 14 7 4 8 5 3 22 21 21 17 6 5 5 5 6 4 3 3 5 7 8 4
20 23 23 24 26 28 27 25 26 27 26 25 25 23 20 19 20 19 18 18 19 17 19 19 18 13 5 7 10 9 5 24 21 21 13 10 6 7 4 3 7 2 6 5 4 4 3
21 21 22 26 25 27 28 26 26 26 26 24 24 22 21 21 18 17 18 18 18 17 17 18 17 16 7 13 6 11 9 19 26 23 6 14 9 4 5 1 5 3 4 3 5 4 4
20 21 26 24 26 28 27 26 26 26 25 24 22 20 19 19 16 16 17 17 16 18 18 20 18 13 6 19 9 5 11 10 13 15 19 16 8 1 3 2 3 5 4 0 4 3 6
20 23 23 26 26 27 26 27 26 26 25 22 20 18 18 18 15 17 16 17 19 19 18 15 12 7 5 10 9 20 12 7 10 14 18 9 7 1 2 6 3 1 2 4 6 8 6
22 23 24 26 26 25 25 26 25 24 24 22 19 18 18 17 15 14 16 19 23 16 10 7 10 4 5 6 11 18 16 10 3 7 7 4 4 3 3 4 6 6 3 3 5 4 1
23 24 26 26 26 25 25 25 25 24 24 23 21 21 20 16 15 14 16 11 4 2 2 4 6 3 4 8 17 14 17 6 4 3 5 5 3 4 8 4 3 4 1 2 4 3 5
23 23 24 25 26 26 26 24 25 23 23 23 22 21 18 18 17 15 14 2 3 2 5 8 6 12 7 11 8 12 17 6 5 5 4 3 2 8 14 11 7 2 3 4 6 1 3
23 22 24 26 27 26 26 26 25 24 22 22 23 20 19 16 20 15 6 9 6 1 2 5 9 14 4 6 4 13 10 5 6 6 4 5 3 6 6 7 7 4 4 2 5 5 1
23 22 26 27 27 26 25 26 26 27 24 24 22 20 20 22 14 2 3 6 10 5 2 4 7 5 4 5 4 6 9 6 4 8 7 4 1 6 6 2 3 2 3 2 2 4 4
23 24 27 27 26 27 26 26 28 28 27 24 22 21 23 21 12 4 1 9 12 2 4 9 5 7 5 0 13 7 3 2 5 7 5 4 5 6 4 4 4 4 5 4 2 3 4
24 24 25 28 26 28 28 28 29 30 29 29 25 24 22 16 5 6 10 12 2 2 2 6 6 10 9 7 2 6 2 3 3 6 5 3 3 3 5 4 4 7 5 6 4 3 2
22 25 25 28 27 28 29 30 31 33 35 37 30 24 21 8 1 6 17 3 3 2 2 5 8 16 14 5 5 7 6 3 4 6 3 2 2 2 4 6 3 5 6 2 4 3 6
21 23 25 28 28 28 30 31 33 35 40 32 16 9 10 5 9 20 11 1 1 5 4 8 13 14 6 9 7 8 7 4 2 5 4 4 2 6 2 4 6 3 5 4 5 2 4
21 23 26 26 28 28 30 32 33 37 34 22 18 20 17 14 13 13 1 3 3 4 5 11 14 5 5 4 7 6 6 5 4 3 5 4 2 2 5 3 6 3 2 3 3 3 3
21 23 25 26 27 28 30 31 33 37 31 17 13 9 10 9 2 7 1 5 3 3 10 10 4 2 4 5 6 5 9 6 3 6 1 5 3 2 2 5 2 4 6 3 3 1 4
20 22 23 25 27 28 29 31 33 33 29 15 4 2 6 12 2 2 2 5 5 7 2 2 3 5 8 6 8 5 9 1 7 4 4 0 4 2 4 3 6 4 2 2 3 3 3
19 20 22 24 26 27 28 31 32 33 28 13 3 3 4 12 3 1 2 2 3 5 5 4 5 10 4 5 4 3 8 3 7 6 5 1 4 3 7 2 3 4 5 5 4 3 2
18 19 21 23 25 27 29 32 32 31 27 8 2 1 2 4 2 2 4 4 2 3 5 4 4 3 5 5 5 3 5 4 9 8 8 4 2 2 3 5 3 3 5 4 4 2 6
16 17 19 21 24 25 27 30 33 33 24 2 2 3 3 2 1 2 2 2 3 4 4 4 5 10 4 3 3 4 3 5 3 3 9 6 3 4 5 5 3 3 5 6 8 3 3
15 16 17 19 22 24 26 29 30 33 17 2 3 2 0 3 3 2 3 5 6 7 7 7 7 4 4 4 6 4 3 3 6 4 4 4 3 3 5 6 2 5 5 6 8 17 6
14 15 15 17 19 22 24 26 28 31 17 5 2 2 3 3 4 4 5 6 7 6 5 4 6 3 8 4 1 5 6 3 3 1 3 1 1 2 4 4 7 7 10 11 12 15 17
14 16 14 16 16 19 22 23 24 26 24 6 5 3 2 4 2 2 2 4 5 2 7 6 5 7 10 4 3 4 4 5 6 6 3 4 3 2 4 2 4 5 10 12 6 6 8
12 16 13 14 14 16 18 19 20 19 19 12 5 3 2 3 2 2 3 2 5 4 4 4 7 4 1 3 2 6 8 8 6 4 4 5 4 3 3 3 1 4 0 6 11 9 11
11 15 13 13 14 13 15 16 17 17 16 16 9 3 2 2 2 5 3 4 4 5 4 3 4 0 2 2 3 3 2 2 1 1 3 4 3 1 1 2 5 5 3 3 5 8 5
12 14 14 14 14 12 13 14 14 16 15 18 10 6 2 3 3 4 2 5 3 2 2 2 0 2 4 2 2 3 3 2 4 3 3 3 3 2 2 2 2 3 0 3 4 4 3
13 14 16 12 14 13 12 14 13 13 13 14 8 7 4 2 3 3 1 3 3 3 3 1 0 2 3 2 2 3 2 2 5 6 4 3 3 5 4 2 6 9 4 4 3 3 3
14 14 15 12 14 13 13 13 13 12 11 10 11 5 4 2 5 3 4 3 2 2 3 2 2 1 1 2 2 2 1 2 1 5 5 6 6 4 3 3 7 4 3 2 3 4 3
15 15 17 13 15 14 13 14 13 11 10 7 4 6 10 3 4 8 12 10 4 1 4 2 0 2 2 3 0 2 1 1 1 2 2 4 5 3 6 5 4 4 4 2 1 3 3

GFSGBSN_925_spd_045.txt.gz
Wind_Speed
19 20 21 21 26 24 24 25 25 23 24 24 24 24 22 23 22 21 17 16 16 17 19 19 18 18 9 5 8 5 5 17 23 26 22 8 5 5 6 7 3 3 2 4 4 6 4
20 20 20 26 23 25 26 26 24 23 24 24 23 23 22 22 21 19 16 16 16 18 19 17 18 16 5 8 10 14 14 22 22 23 16 11 8 6 5 3 8 4 7 6 4 4 3
21 20 23 22 26 25 26 25 24 24 24 24 23 21 21 20 19 18 16 17 16 17 17 17 16 13 6 13 4 6 7 25 24 21 9 15 7 6 3 3 5 3 3 1 4 3 5
21 23 25 25 25 27 24 25 25 24 24 23 23 19 20 19 19 17 17 19 17 17 16 17 15 10 4 17 11 4 4 12 21 20 18 19 11 3 3 2 4 6 4 3 3 6 5
23 24 24 27 25 26 25 25 24 24 24 23 22 19 19 19 19 17 17 17 19 19 15 14 10 6 3 2 11 17 5 6 12 12 12 12 8 3 3 5 3 0 4 4 5 4 3
24 25 26 24 25 26 26 26 24 24 23 22 22 20 20 19 17 17 18 20 25 15 7 7 9 4 3 6 10 11 10 6 3 7 5 5 5 4 4 4 6 5 4 3 4 3 3
24 25 24 26 29 27 26 25 25 25 23 22 20 21 19 17 17 17 17 9 4 2 1 6 4 4 1 5 15 10 12 6 4 3 5 6 4 9 13 8 3 5 4 3 3 2 3
24 26 24 27 28 27 27 25 26 25 25 22 21 21 19 16 15 16 15 2 4 3 4 9 9 13 4 6 6 7 16 6 5 5 6 4 4 4 4 2 3 0 2 2 4 0 2
23 25 25 26 28 26 28 26 26 27 27 26 23 20 18 16 17 14 4 5 5 3 2 1 2 5 6 5 5 9 12 3 4 5 5 6 4 14 10 6 5 4 4 3 4 4 2
23 25 25 26 29 27 28 29 28 29 28 27 25 21 18 16 12 2 2 8 8 3 2 4 3 3 4 5 4 5 11 5 3 6 4 4 4 12 9 7 6 4 1 3 3 4 3
23 24 25 26 28 28 28 30 30 31 32 33 31 25 19 14 9 3 1 4 8 1 5 8 6 2 3 1 13 3 2 2 6 4 5 2 4 6 5 3 4 4 5 5 3 3 3
22 23 26 27 26 28 29 30 31 34 36 32 26 13 10 10 1 2 6 11 2 4 4 5 6 6 8 5 3 5 3 3 4 6 5 3 2 3 3 4 2 8 5 6 4 2 2
20 22 25 27 27 28 29 30 32 35 34 26 23 14 4 1 3 9 11 3 3 4 3 3 4 11 9 13 6 4 4 4 3 5 3 4 3 2 5 7 6 5 5 2 4 3 4
19 22 23 26 27 28 29 30 32 33 33 20 22 17 22 13 12 19 7 3 4 2 4 4 7 15 5 5 8 4 4 3 4 4 3 4 1 3 1 4 5 1 5 4 4 1 4
17 21 22 24 27 27 28 30 32 33 32 12 18 18 15 14 10 6 2 3 2 3 5 4 11 6 4 5 4 6 2 4 1 1 5 4 2 1 2 3 5 4 1 2 5 3 3
18 19 21 23 25 27 28 30 32 33 34 15 6 4 7 9 3 4 2 3 3 3 6 5 4 3 5 4 4 4 3 3 2 2 2 3 4 2 2 4 5 3 7 3 3 2 3
14 20 20 22 24 26 27 28 30 31 32 16 3 3 3 11 2 2 2 3 4 6 8 5 3 5 5 5 7 3 8 1 3 3 3 4 3 1 5 3 6 3 1 4 4 3 3
13 16 21 22 24 26 27 27 28 30 28 11 4 3 6 10 3 2 3 3 3 5 3 4 6 8 4 4 3 3 6 3 6 6 5 1 4 3 2 1 1 3 5 5 4 3 2
13 15 17 21 23 25 27 28 28 28 23 6 1 3 4 5 3 3 4 4 2 2 2 2 3 2 3 5 5 3 3 1 7 5 6 4 2 3 5 4 3 2 3 4 4 3 5
13 14 16 18 21 24 26 27 28 29 17 2 2 3 4 3 1 1 2 2 3 4 2 3 4 4 4 3 4 4 2 4 4 5 5 6 3 4 5 4 3 2 4 6 6 3 3
12 12 15 17 19 22 24 26 26 30 13 2 3 1 1 4 3 4 1 4 5 5 3 5 4 5 5 3 3 3 3 3 5 5 4 4 3 3 4 5 3 4 4 7 7 10 5
12 12 15 15 17 20 22 23 25 27 13 5 2 2 3 3 4 5 4 6 6 5 5 4 6 7 5 3 1 6 6 2 2 3 3 2 1 2 4 3 6 4 7 8 8 9 12
10 12 14 12 15 16 20 20 22 23 19 7 5 3 1 4 5 3 3 3 5 2 7 7 3 4 9 5 1 4 1 4 5 6 3 3 4 2 4 3 4 5 10 11 5 5 9
10 11 13 12 14 14 15 17 18 17 17 11 4 3 1 3 2 2 4 3 6 3 5 3 4 4 0 1 1 5 9 8 7 5 4 5 4 2 3 3 1 5 3 7 12 10 13
11 12 12 13 13 14 13 14 14 14 13 14 7 3 1 3 3 5 2 3 3 4 3 3 4 1 2 2 3 3 3 2 4 3 3 3 3 1 1 2 6 2 2 4 5 6 6
11 12 11 16 12 13 13 12 13 12 12 13 6 5 3 2 3 3 3 2 2 2 2 2 1 2 4 2 2 2 3 2 3 2 4 4 4 2 0 2 3 1 3 2 4 3 2
10 13 10 15 12 13 13 13 13 12 11 11 6 3 3 2 3 1 2 3 3 2 3 2 3 2 3 2 2 2 2 2 5 6 4 3 2 4 5 3 6 6 4 4 2 3 3
11 11 13 15 10 13 14 14 13 12 9 8 8 6 2 2 5 2 3 3 3 1 3 3 2 2 2 2 2 2 2 2 1 3 5 6 4 3 3 3 6 4 2 1 3 2 3
11 12 15 15 13 14 14 15 15 10 9 7 5 7 7 3 4 8 17 16 7 4 3 1 3 2 2 3 1 1 2 1 2 2 1 4 6 4 7 5 4 2 4 3 3 3 3

GFSGBSN_925_spd_048.txt.gz
Wind_Speed
20 21 20 24 24 26 25 27 24 23 24 23 23 23 23 22 22 21 18 18 16 17 17 17 17 16 11 3 8 5 4 4 30 27 24 6 9 5 7 7 5 4 2 5 5 5 3
20 21 23 24 25 26 26 25 24 23 23 24 23 22 21 20 20 19 18 17 15 15 16 16 14 13 9 8 8 14 17 6 27 28 21 12 7 4 5 5 6 6 6 5 4 4 3
21 22 23 24 26 26 26 26 25 23 23 24 23 23 20 18 18 18 18 16 14 15 15 14 12 10 8 12 4 5 4 18 26 27 11 17 12 5 5 4 6 4 3 2 5 4 5
21 22 24 25 23 26 27 27 25 24 23 23 22 21 19 19 18 18 16 16 14 15 15 13 12 9 6 7 22 10 6 13 23 22 18 18 12 4 3 4 4 6 3 2 3 6 5
22 23 25 24 26 29 27 26 25 24 25 23 23 20 19 19 19 16 16 18 19 17 15 11 8 3 5 2 5 17 10 6 18 11 17 20 10 5 3 6 4 1 4 4 5 5 2
20 21 26 26 28 29 27 28 26 26 26 26 24 19 18 19 18 15 15 17 19 10 4 6 6 1 6 5 9 5 6 10 5 7 9 8 6 5 4 4 8 6 3 2 4 1 2
22 22 25 27 26 30 27 28 29 27 27 26 25 21 21 19 16 15 13 9 5 3 2 6 3 5 4 1 10 2 5 4 6 4 8 13 8 13 17 7 5 5 4 4 2 2 3
21 22 25 26 27 29 29 28 30 30 30 29 26 22 19 16 15 14 11 1 3 1 5 6 10 9 15 3 4 5 9 4 4 6 6 1 6 4 11 7 6 5 5 2 2 1 2
21 22 24 25 28 26 30 29 31 32 34 32 28 25 19 14 13 13 3 5 4 2 3 3 1 3 3 2 8 8 10 2 3 5 5 5 5 12 5 6 8 3 3 3 3 3 2
21 22 24 26 27 29 28 29 31 34 36 35 28 29 19 9 6 1 4 7 6 3 4 0 2 3 3 3 3 3 8 4 2 3 4 4 4 12 12 6 3 3 4 3 4 3 3
20 22 24 26 26 27 28 29 33 34 36 30 29 18 3 4 2 3 2 2 7 3 5 4 2 2 3 3 12 4 1 0 5 5 3 1 8 10 4 6 9 3 5 5 3 4 2
19 21 24 25 28 28 27 28 31 32 33 29 24 18 7 5 4 2 5 11 3 5 1 3 3 4 7 12 3 4 1 1 4 5 8 4 3 2 3 5 2 10 5 6 4 2 2
20 21 23 24 26 27 27 27 29 30 29 24 23 16 11 4 2 10 7 2 4 5 2 2 3 3 7 10 7 3 3 4 4 4 4 4 3 2 4 7 5 3 4 2 4 3 3
18 20 22 23 25 27 27 28 29 29 28 15 15 21 19 10 10 11 1 3 7 2 3 6 4 7 7 6 7 3 4 4 5 5 3 4 1 1 1 3 6 3 4 4 4 1 2
17 19 21 22 24 27 28 27 28 29 28 13 7 9 11 9 1 5 2 5 1 2 5 2 7 7 5 6 5 3 3 4 3 3 4 4 2 1 3 2 3 3 2 2 6 2 2
16 19 20 22 24 26 28 29 28 29 29 15 5 4 5 11 6 4 3 3 1 2 4 3 4 4 4 2 4 4 2 2 3 2 1 2 4 1 2 3 7 3 7 3 3 1 2
15 18 20 21 23 26 27 29 28 30 30 12 3 3 3 12 1 3 2 3 2 5 5 2 3 5 4 4 4 2 4 2 2 1 5 3 3 1 4 1 6 2 1 5 4 2 2
14 17 19 21 22 25 27 29 29 29 30 8 2 3 5 9 4 2 2 3 1 3 2 3 4 5 3 3 3 3 5 2 5 5 4 2 3 3 1 1 1 2 5 4 4 3 2
14 15 18 19 21 23 26 28 30 29 25 8 1 2 2 3 3 4 6 3 1 4 4 3 3 3 2 4 4 3 4 2 6 3 6 5 1 3 2 0 3 3 4 4 4 3 4
13 15 16 17 19 21 25 27 30 30 24 4 2 3 4 3 0 1 4 5 5 2 3 4 4 4 4 4 5 3 2 4 5 3 8 6 3 4 5 4 3 2 4 5 5 3 3
14 15 15 16 17 18 22 25 28 30 21 3 3 1 1 3 2 5 2 3 3 4 3 5 4 3 4 3 2 3 3 2 5 6 4 3 2 2 3 3 3 3 4 8 7 6 6
14 14 15 17 15 17 19 22 24 29 21 4 2 2 1 2 5 4 5 4 2 2 4 3 6 5 4 4 3 6 6 3 3 3 3 1 3 2 3 2 6 4 7 8 9 5 9
13 14 14 15 14 16 16 19 20 23 21 7 5 4 2 2 4 1 2 4 2 3 4 6 3 4 8 4 1 3 1 5 6 6 3 3 4 2 3 3 4 5 9 12 6 6 8
11 14 14 14 12 14 15 15 17 17 17 11 4 3 2 3 1 2 4 4 5 2 5 3 5 4 3 3 3 5 8 8 8 5 2 5 4 2 2 3 1 5 3 7 12 6 11
11 13 14 13 16 13 13 13 13 13 13 14 10 3 2 3 2 4 3 2 2 5 4 3 3 1 1 2 3 4 3 3 4 4 4 3 4 2 1 1 6 3 4 6 6 3 6
12 13 13 13 15 12 13 11 12 12 11 13 8 7 3 3 4 3 2 1 2 1 3 2 1 1 3 2 2 3 3 3 3 2 4 4 5 3 2 2 3 2 1 3 3 0 0
10 13 14 15 15 15 13 13 12 12 11 9 7 4 4 2 3 0 3 3 3 3 2 1 2 2 3 2 2 2 2 3 4 6 4 3 2 4 4 3 7 7 4 2 3 2 2
11 15 14 16 15 15 13 13 12 13 12 7 8 9 2 2 5 2 3 2 1 3 3 3 3 2 2 2 2 2 2 2 2 3 5 6 6 3 3 3 6 4 3 1 3 2 2
11 13 14 18 15 19 11 12 13 16 8 8 9 8 6 4 4 7 18 19 9 0 3 1 1 2 3 3 1 2 2 2 3 2 1 4 5 4 6 5 4 2 3 6 4 4 3

GFSGBSN_925_spd_051.txt.gz
Wind_Speed
19 20 22 23 23 25 25 25 24 23 23 22 22 22 21 20 18 17 16 15 16 14 13 14 14 13 10 6 8 5 5 6 27 27 23 13 14 9 13 8 5 3 2 5 3 3 3
20 20 23 24 25 23 25 27 24 23 23 22 22 21 21 18 16 16 15 14 13 12 13 13 13 11 8 9 7 23 16 11 23 28 25 13 12 5 9 6 6 7 6 3 2 2 1
21 22 22 23 24 26 26 25 24 25 24 23 23 20 21 18 16 16 16 12 11 10 11 12 10 9 7 13 2 9 8 6 25 29 17 13 19 6 6 5 4 6 4 5 7 4 3
21 22 23 25 24 27 28 26 25 26 24 24 22 21 20 18 16 16 14 13 13 14 12 10 8 7 6 8 13 18 4 5 23 25 23 19 13 5 3 4 4 5 2 3 2 9 5
21 23 24 26 27 27 30 27 27 27 26 25 24 22 19 16 16 15 14 15 17 16 12 9 4 4 5 3 7 14 11 5 18 20 20 22 11 4 3 6 4 4 4 5 3 7 3
21 23 24 25 27 27 28 31 28 28 28 27 26 25 19 17 15 13 14 15 17 6 2 5 2 3 5 4 5 5 4 9 9 12 11 12 5 4 3 5 9 9 4 3 6 3 2
21 22 24 24 27 27 30 27 29 30 31 32 31 27 21 15 12 10 9 6 4 3 1 3 4 5 5 5 7 2 3 5 7 11 9 11 6 16 17 5 4 8 5 4 3 1 2
20 22 23 26 28 28 28 30 30 32 33 35 33 27 19 13 8 7 8 3 2 1 4 4 8 8 10 11 4 2 5 5 7 7 5 7 12 9 12 8 6 6 6 4 1 2 1
19 21 23 25 27 28 29 29 31 32 33 35 33 31 20 10 3 4 3 3 3 2 2 2 2 6 7 9 9 12 6 1 4 10 13 1 1 15 13 9 9 2 5 3 2 1 2
19 20 23 25 26 27 27 29 31 32 33 33 32 28 15 7 3 4 1 3 4 3 4 3 3 3 3 2 5 4 7 2 3 7 16 3 3 8 13 15 8 5 3 3 4 2 1
18 19 21 24 25 27 27 29 30 31 30 30 29 21 16 9 3 3 4 3 6 4 6 6 2 4 5 3 8 1 4 3 4 6 4 1 9 16 9 2 8 2 4 4 3 4 1
18 19 21 22 24 26 27 28 30 30 29 26 25 18 12 9 10 4 7 7 1 5 3 3 4 4 2 5 1 4 4 3 2 9 12 4 1 4 3 5 5 9 5 5 3 2 1
18 20 21 23 24 26 27 27 29 29 28 22 18 21 13 10 4 2 1 3 4 5 5 3 2 3 10 5 6 3 1 3 4 4 3 4 4 4 9 8 4 1 3 1 2 2 2
17 18 21 23 24 26 27 28 28 28 29 22 9 11 13 10 3 4 7 4 9 2 2 2 0 12 7 5 7 4 2 4 5 5 4 3 4 4 1 4 7 1 1 3 3 3 1
16 18 20 22 24 25 27 28 29 29 29 25 8 5 2 3 3 6 2 5 4 2 3 1 6 7 5 8 4 4 3 3 3 1 5 5 3 1 5 3 1 3 2 1 6 2 1
16 17 19 21 23 25 26 28 30 30 32 20 6 4 2 6 3 3 3 3 1 4 3 2 4 2 3 3 3 2 2 2 3 3 1 1 5 3 2 3 8 3 6 2 2 3 3
16 17 19 20 22 24 26 28 29 30 32 18 3 3 1 8 1 2 3 3 3 2 3 2 3 5 3 4 3 2 1 1 2 3 5 3 3 2 3 1 5 2 1 4 4 1 2
15 16 17 20 21 23 25 28 29 29 30 13 4 3 5 5 4 2 3 5 4 3 3 2 3 4 3 2 3 3 3 2 2 4 4 1 4 3 1 1 1 2 4 3 3 3 1
14 16 17 18 19 23 24 27 29 29 26 8 3 2 3 3 4 3 2 3 1 3 3 2 2 2 1 3 4 2 2 4 2 3 5 5 2 3 1 1 2 2 4 4 4 3 4
13 15 16 17 19 22 22 26 28 30 25 4 2 3 4 4 2 2 3 3 3 1 2 3 3 4 4 4 5 3 2 4 1 3 8 6 3 4 5 4 3 3 3 4 5 3 4
12 15 15 16 17 21 20 23 27 30 21 3 3 1 1 3 3 3 1 3 1 3 4 5 3 2 4 3 2 3 3 3 4 4 4 3 3 2 2 1 3 3 4 8 6 5 5
12 14 16 15 16 17 18 20 25 28 21 5 3 3 3 3 3 4 2 4 2 0 2 2 5 2 1 4 3 6 6 3 4 2 3 2 3 2 3 0 5 4 7 9 8 3 8
10 12 16 15 15 15 17 16 20 23 22 7 6 4 2 4 3 1 1 1 3 1 2 4 4 4 6 3 1 2 1 4 6 6 3 4 5 2 3 2 2 5 9 12 5 5 9
10 12 14 15 13 15 14 13 14 16 18 12 5 4 2 3 2 2 3 3 1 1 3 2 3 4 3 3 3 5 8 9 8 5 2 5 4 2 1 2 1 4 3 8 14 3 11
10 12 14 15 13 16 11 12 11 12 12 14 11 3 2 4 1 5 2 3 1 4 3 3 4 1 2 1 3 4 3 3 4 5 3 3 4 3 0 2 5 0 3 6 6 4 9
11 11 15 16 14 15 14 11 10 8 9 10 8 9 3 3 3 2 3 1 1 1 2 2 2 1 3 3 2 3 3 3 3 2 5 4 4 3 2 2 3 3 1 3 2 2 4
11 12 14 16 15 15 14 13 11 9 8 6 4 5 4 3 4 1 4 2 4 2 2 0 2 2 3 2 2 1 2 3 4 6 4 2 1 4 3 3 6 6 4 0 2 2 0
11 13 15 15 16 16 14 11 11 12 10 8 5 5 3 2 6 5 5 2 1 3 3 3 3 2 2 2 2 2 2 2 2 3 5 6 5 3 3 3 6 3 3 1 2 3 3
14 12 13 15 17 16 16 10 12 13 12 8 6 7 6 4 5 9 21 24 11 2 2 1 3 3 4 3 1 2 2 2 2 2 0 4 5 4 6 5 4 2 2 3 2 3 3

GFSGBSN_925_spd_054.txt.gz
Wind_Speed
20 21 22 21 24 24 25 26 26 23 25 25 23 21 19 17 16 15 14 13 14 13 11 9 8 7 5 7 13 5 9 8 24 26 28 20 21 18 18 17 12 15 5 9 6 7 5
20 20 22 22 23 25 25 27 26 25 26 26 23 21 19 18 16 15 14 13 12 11 9 8 7 5 6 13 11 18 12 4 17 31 29 24 18 16 13 11 14 12 7 11 11 7 4
21 21 22 23 25 25 26 27 27 27 27 27 24 22 20 19 16 14 14 12 12 12 9 8 8 5 9 16 6 3 18 6 13 31 23 26 16 18 9 9 10 4 13 13 9 9 9
20 21 22 24 26 26 27 28 27 26 27 27 26 24 21 18 16 13 13 12 13 14 12 10 7 6 7 10 23 15 7 11 14 29 26 20 21 16 8 5 11 14 7 10 10 16 5
20 21 23 24 25 28 29 27 28 26 28 29 29 28 24 17 14 14 13 11 13 15 11 8 5 6 7 4 13 18 13 7 17 27 22 19 13 15 8 14 10 14 10 18 5 9 13
20 21 23 25 26 28 27 28 27 29 29 30 30 27 22 16 10 10 10 12 11 2 3 6 2 5 7 8 10 6 11 6 8 22 11 15 8 11 14 15 15 19 15 13 14 7 9
19 21 23 24 26 27 27 27 29 30 30 31 33 28 23 12 8 5 6 3 2 3 3 3 2 4 7 13 9 3 3 5 14 19 10 19 6 18 24 19 3 10 16 9 8 5 6
19 20 22 24 25 26 26 27 29 30 30 31 32 30 19 4 3 1 3 1 1 3 3 4 8 10 7 1 4 6 8 8 15 21 11 8 13 15 16 13 7 14 14 10 6 5 5
17 18 21 23 25 26 26 27 28 29 29 29 30 25 21 11 8 4 4 2 2 1 2 1 0 3 5 3 2 8 4 1 20 14 17 5 7 15 18 16 13 9 12 11 4 6 2
17 18 20 23 25 27 28 27 27 28 28 27 28 21 15 5 7 3 3 4 3 2 1 5 2 4 5 11 4 8 5 3 4 9 6 1 3 18 19 18 16 12 5 8 7 5 3
16 18 20 22 25 26 28 27 27 27 27 24 23 20 13 12 4 3 3 6 3 2 4 2 2 5 4 1 14 3 1 2 10 11 6 4 6 15 20 20 15 6 9 8 5 3 2
15 17 19 21 23 26 28 28 26 26 27 26 18 19 8 7 10 5 3 2 2 3 7 6 4 5 3 3 5 7 5 6 10 9 14 7 4 4 2 7 6 15 10 8 4 1 3
14 16 19 19 22 25 27 29 28 26 27 26 17 9 10 5 1 2 5 4 1 6 3 6 5 4 7 4 11 8 4 4 3 5 4 5 4 5 4 9 3 8 12 4 3 4 2
13 15 18 20 23 26 27 29 30 28 28 30 15 6 3 2 0 4 4 2 10 4 4 2 2 4 4 6 7 8 3 5 8 8 4 2 4 2 3 2 9 10 3 2 4 4 3
13 15 17 20 21 25 27 28 30 31 29 26 12 4 3 2 6 5 3 6 3 2 2 1 3 4 3 7 5 4 2 4 3 3 3 4 4 2 3 4 6 4 4 2 4 2 1
12 13 16 18 20 24 27 28 30 31 31 21 8 4 2 5 5 1 1 5 1 3 2 4 2 2 4 5 3 2 1 2 3 0 2 3 6 3 4 1 10 1 8 2 0 4 4
11 13 15 17 19 24 27 30 31 32 32 16 3 2 1 8 1 2 3 4 1 3 3 2 2 3 6 4 4 2 2 3 2 2 2 5 3 3 2 1 7 4 3 2 2 1 2
11 14 15 16 19 22 23 27 31 32 31 13 4 1 5 3 2 2 2 2 2 2 4 2 2 6 5 3 3 2 3 1 1 2 3 1 4 4 2 2 2 1 2 4 2 4 0
10 12 14 15 19 22 25 27 29 30 27 8 4 2 4 2 3 3 1 1 2 3 2 1 2 1 1 3 3 3 3 3 1 1 5 6 4 5 5 3 1 4 4 2 5 2 5
9 12 14 15 18 19 22 25 29 31 26 4 2 1 2 2 1 1 2 2 3 1 3 2 2 2 4 3 3 4 4 3 0 2 6 3 2 1 2 3 3 4 8 9 4 3 4
8 11 14 16 15 16 20 23 26 30 22 2 3 2 1 2 2 2 1 1 1 2 2 5 2 1 3 3 3 4 2 4 3 2 2 1 3 2 1 3 2 1 5 11 7 4 5
7 10 13 16 16 17 19 21 24 28 22 4 3 3 4 3 5 4 3 2 2 1 2 0 2 1 1 2 1 7 6 4 3 3 2 2 3 2 1 1 4 5 8 10 14 14 13
7 10 13 15 17 16 16 17 19 23 22 5 5 4 2 3 3 3 1 1 3 3 2 1 5 4 3 1 1 2 1 4 5 7 5 3 5 2 1 0 3 7 15 16 9 9 13
6 9 13 13 14 13 16 13 13 15 18 9 4 4 2 2 3 2 4 4 2 3 1 2 1 1 4 8 9 10 11 10 7 6 2 6 5 1 0 2 4 3 2 5 17 10 13
7 9 10 14 15 13 14 11 12 11 11 11 7 4 2 3 4 7 4 4 1 2 3 2 2 2 7 2 4 5 2 1 5 5 2 2 4 2 2 3 5 2 4 6 8 7 16
9 10 9 13 16 13 13 12 11 10 10 10 6 6 2 3 3 3 4 3 2 2 3 3 2 1 1 1 1 3 4 3 4 3 4 4 3 2 2 3 3 3 3 3 3 3 3
9 11 9 12 14 14 15 12 13 10 9 8 7 4 2 3 3 4 4 3 1 1 2 3 5 2 2 1 1 2 3 2 5 6 5 4 2 7 6 4 5 5 4 1 2 3 1
10 10 11 13 13 15 15 15 11 9 11 8 7 7 3 3 7 8 7 4 3 2 3 4 4 2 2 4 3 2 2 4 3 2 4 8 5 4 4 4 6 3 4 3 3 3 5
10 11 10 12 15 14 15 15 12 12 11 8 6 8 10 5 5 9 15 23 16 12 4 2 2 3 3 3 2 2 2 3 3 3 2 4 4 2 5 3 2 1 2 3 2 1 3

GFSGBSN_925_spd_057.txt.gz
Wind_Speed
20 21 22 23 25 26 25 26 25 27 25 25 24 23 20 19 18 18 15 14 14 14 12 10 9 8 8 12 15 9 2 19 27 27 28 20 22 19 17 19 15 18 11 16 5 7 7
20 20 22 23 24 26 28 25 26 26 26 26 25 24 22 19 18 17 15 13 13 13 10 9 9 7 11 17 13 15 11 2 24 28 29 26 19 22 11 8 20 11 16 11 12 9 8
19 20 22 23 25 27 28 27 27 27 27 28 28 27 25 22 18 15 13 12 13 11 11 9 8 9 13 16 5 5 10 21 10 31 24 28 21 21 9 6 11 5 19 7 15 14 6
18 20 22 23 25 27 30 27 28 26 29 29 30 29 28 22 17 12 10 11 12 12 11 12 8 8 7 12 23 22 8 18 17 28 28 26 21 20 6 4 11 13 13 16 15 12 11
18 19 21 23 25 27 28 26 28 29 30 30 31 32 28 22 13 9 9 9 11 12 14 10 7 9 11 4 20 19 18 20 15 28 23 23 14 17 13 14 11 14 14 17 13 20 10
17 19 20 22 24 26 28 28 29 29 30 32 33 31 32 17 7 4 5 7 8 5 3 6 6 5 11 7 11 10 13 13 6 18 16 12 10 10 12 15 15 21 23 20 18 10 17
15 18 20 21 24 25 27 28 28 28 30 32 32 30 30 10 2 1 3 2 4 4 6 5 2 11 8 15 5 9 15 12 8 21 14 12 7 15 27 25 18 15 19 14 13 8 10
13 17 20 22 24 26 28 28 28 28 29 30 29 26 23 11 7 4 3 3 5 4 6 3 8 9 6 1 3 13 10 16 11 23 19 9 7 17 21 19 14 9 16 14 5 10 8
13 15 18 21 24 26 28 29 29 28 28 30 27 23 17 8 6 7 7 5 1 3 4 3 1 3 3 2 7 10 5 6 17 24 19 12 8 10 11 17 14 12 14 14 8 8 8
13 15 18 21 24 26 27 29 29 28 28 29 26 22 16 4 6 6 5 5 1 3 2 4 5 4 3 7 6 3 5 1 1 21 13 1 6 18 13 17 15 13 10 9 7 12 5
13 14 17 20 23 24 26 28 29 30 27 27 27 20 13 10 3 3 5 3 2 3 1 4 6 4 6 3 12 6 6 4 6 9 5 4 12 13 19 15 16 6 9 10 7 6 1
11 13 16 19 21 24 26 28 29 29 30 27 29 18 12 4 3 1 2 4 6 4 7 2 3 4 6 12 11 7 3 6 10 9 8 5 4 4 2 7 4 14 14 8 4 1 5
11 12 15 18 21 24 26 28 29 29 30 29 26 16 10 5 4 2 6 4 1 6 2 8 4 3 13 14 10 6 3 3 6 5 2 2 3 3 5 9 3 10 13 4 4 4 3
10 12 15 17 21 24 26 28 30 30 31 34 24 12 8 7 5 5 9 3 8 4 5 4 3 13 7 7 6 6 7 11 8 10 3 3 5 1 1 3 6 13 13 3 6 6 6
9 12 14 16 19 24 27 27 31 32 33 34 17 4 5 5 7 5 4 4 2 1 4 4 3 6 4 8 5 4 6 9 4 4 4 2 5 4 1 4 2 5 5 2 1 3 2
9 11 13 15 18 21 26 28 30 33 35 25 10 5 3 4 4 4 2 4 2 1 3 5 3 4 3 4 4 3 5 4 5 1 2 4 5 5 8 10 5 4 7 2 1 5 5
9 11 13 14 17 21 26 29 30 33 36 17 3 3 2 5 3 2 3 4 1 2 3 4 3 3 6 7 4 3 3 3 2 3 2 7 2 3 2 3 4 3 3 1 3 2 3
8 11 13 15 17 20 25 27 30 32 35 13 5 2 2 3 1 2 3 1 0 2 2 2 3 3 4 5 3 2 4 4 2 3 4 2 5 5 2 2 5 5 4 8 3 4 1
9 10 13 15 16 17 22 26 28 30 27 10 5 3 1 2 1 1 2 2 1 2 2 1 1 1 3 4 2 4 3 2 3 1 2 5 5 4 2 2 2 5 7 4 2 3 4
8 10 13 16 17 18 20 24 27 30 26 5 3 3 3 1 2 3 1 2 3 2 1 1 1 1 5 4 2 5 5 2 2 4 6 1 2 2 0 3 3 4 8 8 4 2 3
7 9 12 15 17 17 18 23 25 32 20 4 3 2 3 3 1 7 4 2 2 2 0 0 3 2 2 2 2 3 5 7 2 1 1 1 2 3 3 4 3 3 7 11 6 8 3
6 8 11 14 16 15 17 19 21 30 20 5 3 3 4 4 8 7 1 2 4 1 2 3 2 3 2 1 4 2 6 6 4 6 4 1 2 2 1 1 5 6 9 11 14 15 13
6 7 10 13 15 16 16 16 17 23 18 6 7 3 3 4 5 4 1 4 2 2 1 3 2 4 3 4 3 2 2 1 1 4 7 5 5 4 3 3 5 9 16 16 11 9 16
7 8 10 12 15 16 14 13 13 14 16 10 7 4 2 3 4 3 7 9 6 5 4 1 1 2 3 6 7 7 7 6 5 3 3 5 5 2 1 3 4 3 3 2 16 8 11
8 8 10 11 14 16 13 13 12 10 10 9 7 4 3 4 7 10 6 8 6 2 3 0 3 4 6 3 5 6 3 3 4 2 4 4 4 2 3 4 7 5 3 4 8 9 13
9 9 10 11 14 14 14 14 10 9 7 5 4 4 2 3 2 6 7 7 6 6 5 2 3 4 1 2 3 3 4 3 4 5 2 1 3 3 2 3 3 5 3 3 4 3 5
9 10 10 12 13 14 15 13 14 8 6 5 3 3 3 4 5 6 2 4 5 4 2 5 6 3 1 1 3 3 2 1 4 5 5 5 4 7 6 3 5 5 5 2 3 3 4
10 10 9 11 12 15 13 13 13 9 8 7 6 4 3 3 10 10 10 4 5 4 3 6 5 3 4 5 3 3 3 5 3 1 3 7 5 4 5 4 6 4 4 3 2 0 3
10 10 11 10 11 13 14 14 13 13 9 9 5 5 7 6 9 23 23 18 14 17 5 4 3 3 4 3 2 1 3 2 4 2 4 4 4 2 5 2 4 2 5 6 4 4 3

GFSGBSN_925_spd_060.txt.gz
Wind_Speed
18 19 21 22 23 24 26 25 24 27 27 28 29 28 27 25 23 20 16 15 14 13 12 11 9 6 3 7 15 23 8 24 29 26 24 14 17 16 14 15 10 17 11 16 4 7 1
18 19 20 22 24 25 26 26 25 25 28 28 30 30 29 27 25 22 15 13 12 11 11 8 4 4 6 16 15 19 13 10 28 28 27 22 13 15 8 7 13 9 14 8 9 6 1
17 19 20 22 24 25 26 27 27 27 29 30 32 33 32 29 24 19 11 10 9 9 8 6 4 4 10 16 11 5 2 4 5 27 19 24 18 14 5 7 7 3 9 11 4 9 3
16 18 20 23 24 25 27 27 27 28 28 31 33 35 33 33 22 13 4 7 9 8 8 7 6 5 6 12 25 21 9 8 12 7 23 26 23 11 9 4 2 8 3 10 7 10 6
16 18 20 22 24 25 26 27 27 27 28 30 33 34 35 26 12 3 2 6 7 9 9 9 5 8 8 3 15 16 15 8 8 13 24 20 12 4 12 8 5 6 6 12 10 11 5
15 18 19 22 23 24 26 27 26 27 27 29 30 31 29 21 10 4 4 4 6 8 4 5 8 4 7 4 9 13 11 10 4 11 14 13 5 6 9 9 11 12 10 13 13 17 17
15 16 18 21 23 25 26 27 27 27 26 27 28 27 23 17 12 8 8 5 3 4 6 5 2 11 6 9 4 5 10 6 9 12 7 16 8 17 27 18 9 8 11 14 13 8 14
13 15 17 20 23 24 25 26 27 27 26 25 25 24 21 14 11 11 10 5 4 4 6 7 7 8 5 4 4 7 12 15 10 15 15 9 14 11 14 14 15 8 11 18 4 10 7
12 15 17 20 22 24 25 26 27 27 26 25 24 23 21 12 10 9 10 8 5 5 4 2 3 3 3 3 2 6 7 10 6 20 20 12 8 12 16 16 17 9 8 10 7 5 2
12 15 17 20 22 23 26 26 26 27 27 24 23 24 17 11 5 7 5 8 5 6 3 5 4 3 1 3 3 5 3 2 2 19 14 5 4 13 9 13 15 10 6 3 11 7 3
11 13 16 19 21 23 25 27 27 28 28 27 23 23 13 6 8 4 6 8 5 3 1 11 5 3 2 2 5 4 7 5 3 10 5 3 12 16 5 9 9 7 7 8 7 6 2
10 13 16 19 22 23 26 28 29 30 30 30 27 19 10 5 5 1 4 10 7 1 6 4 3 3 1 4 3 5 6 4 5 9 16 6 3 4 6 8 9 7 9 9 3 1 2
10 13 16 19 21 23 27 28 30 31 32 31 31 16 6 4 3 5 8 5 2 5 2 8 3 4 7 5 7 7 2 6 4 5 3 3 4 4 3 9 5 10 8 4 3 2 3
9 12 16 19 20 24 26 28 29 32 34 38 21 7 0 3 3 4 5 1 7 3 3 5 3 11 7 3 3 1 8 11 8 8 3 3 2 1 3 2 5 6 7 4 5 4 4
8 11 14 18 20 23 27 29 30 32 36 36 13 2 2 1 2 3 1 4 2 1 3 5 3 3 2 5 6 4 7 5 5 3 3 4 2 1 2 3 3 3 1 2 2 2 4
8 11 14 17 19 23 26 29 30 34 40 24 12 5 2 3 2 1 1 4 1 3 5 7 2 2 6 5 3 3 3 4 3 2 4 3 5 2 2 3 8 3 2 1 1 3 3
7 10 14 16 19 22 25 28 31 34 40 20 4 3 2 2 4 3 3 2 3 5 4 5 7 6 7 4 4 6 6 3 4 2 5 8 2 4 5 3 4 2 2 2 0 2 1
7 10 13 16 20 21 25 28 31 33 38 17 6 1 2 3 0 2 2 1 1 5 3 2 5 4 4 2 4 4 7 5 4 3 4 4 5 3 4 5 6 6 3 3 1 3 1
7 9 12 16 19 22 24 27 29 32 30 11 5 3 3 2 2 3 3 2 3 4 5 5 3 5 5 4 2 5 6 1 4 5 3 4 2 3 2 3 1 1 3 1 6 2 3
5 8 12 16 19 20 23 25 29 32 26 11 3 4 4 3 1 3 1 3 3 1 2 2 3 3 1 1 5 3 5 2 2 4 5 3 2 3 3 3 4 3 5 5 4 2 3
4 7 11 16 17 19 20 23 27 34 17 7 3 3 3 3 3 6 5 3 3 1 3 3 3 4 2 2 2 2 6 5 2 1 1 2 3 3 4 6 4 2 5 7 5 6 4
3 6 9 13 16 19 20 22 24 31 22 6 4 3 4 5 9 8 2 1 3 1 1 2 3 2 1 5 6 3 5 5 3 4 3 2 2 2 1 4 5 3 6 8 9 10 8
3 5 8 11 15 19 18 19 20 23 22 6 10 7 2 6 7 5 3 5 6 4 3 2 7 2 3 6 4 5 5 4 4 5 4 4 4 2 1 1 4 6 12 12 7 7 10
3 3 7 10 12 17 16 17 16 16 17 10 7 4 3 4 5 6 8 9 6 6 4 3 4 4 1 3 4 3 5 5 4 3 0 4 3 2 1 1 1 3 3 2 11 9 7
4 4 7 10 11 14 15 15 13 11 12 9 8 5 3 4 6 10 11 6 9 5 4 1 4 2 0 2 3 3 2 2 4 1 3 3 4 2 2 3 6 6 3 2 6 8 8
4 5 7 9 11 13 14 14 13 14 8 8 6 4 3 3 2 9 9 9 5 4 2 4 1 4 2 1 1 3 3 3 3 3 2 2 2 2 1 2 3 3 4 0 2 1 8
4 5 6 8 10 12 14 12 12 11 8 7 5 5 4 4 4 7 3 4 6 5 3 4 4 3 0 1 2 3 2 2 3 5 4 2 2 4 4 2 5 6 5 3 2 3 5
5 6 7 8 10 11 12 11 12 12 11 6 9 8 5 3 9 11 9 8 6 4 3 4 3 1 2 2 2 3 3 3 2 1 6 5 5 3 3 3 6 4 4 2 3 3 5
6 7 7 8 9 10 11 11 13 17 10 8 6 7 7 4 6 19 22 22 19 12 4 5 5 1 3 3 2 2 1 2 3 2 1 3 3 3 6 3 2 2 7 4 3 6 3

GFSGBSN_925_spd_063.txt.gz
Wind_Speed
16 17 19 20 22 23 24 25 25 25 26 26 27 29 30 29 25 21 17 12 9 9 8 8 8 5 4 4 10 10 18 9 33 29 28 15 16 9 8 9 10 12 6 15 9 2 7
15 17 18 21 22 22 24 25 25 24 24 27 28 30 32 31 27 19 13 9 5 5 6 4 3 2 1 8 9 10 16 10 28 28 29 19 11 10 6 8 8 8 13 6 5 7 1
16 16 18 20 21 23 24 25 24 24 24 26 28 30 30 28 21 9 6 1 1 2 2 3 1 1 4 13 5 2 10 1 10 21 14 20 12 13 6 3 7 1 11 3 5 3 2
14 16 18 20 22 23 24 24 25 24 24 25 27 29 28 25 17 10 6 3 1 2 2 2 3 2 5 11 10 13 7 7 3 5 18 20 22 8 2 2 3 5 6 5 8 8 3
14 16 17 19 22 23 24 24 24 25 24 25 26 26 24 22 16 11 8 5 2 2 4 3 1 2 5 16 3 11 8 7 2 4 9 15 7 4 3 5 3 2 4 6 7 8 6
14 15 16 19 21 23 24 24 24 24 24 24 23 23 22 18 15 13 11 8 4 5 1 4 3 1 6 4 6 13 6 8 3 3 2 9 5 4 3 5 14 16 9 10 8 8 8
13 15 16 19 20 22 23 24 25 25 25 24 24 23 21 17 11 13 17 3 3 2 2 5 3 3 3 5 4 3 6 8 5 3 9 13 8 19 26 11 6 7 3 6 7 7 6
12 14 16 18 20 22 24 25 26 26 25 25 24 23 20 18 11 10 11 3 4 0 5 7 8 4 6 1 2 1 5 3 3 1 9 8 15 10 9 8 6 9 9 8 2 6 13
11 13 15 17 20 22 25 26 25 26 26 24 24 22 21 14 9 7 13 5 4 5 3 2 5 5 0 3 2 5 4 4 2 5 10 12 8 12 12 10 11 6 6 5 4 3 4
11 13 15 17 20 23 25 27 27 27 27 26 24 23 19 14 3 8 3 4 4 4 2 3 3 2 2 0 1 4 5 1 1 10 10 6 3 11 12 13 7 6 6 3 13 5 4
10 13 15 17 18 22 24 27 28 28 28 28 26 24 15 3 6 1 3 3 4 2 3 8 3 0 3 0 2 4 20 5 7 10 5 2 5 10 10 3 3 5 1 7 5 6 4
10 12 15 17 19 21 24 27 29 30 30 31 30 22 10 2 4 3 5 7 1 1 5 3 5 1 1 3 5 3 4 6 4 12 12 5 5 4 3 3 3 5 8 7 5 2 1
9 12 14 16 19 21 25 28 30 32 33 35 33 13 6 2 1 3 8 1 3 6 4 8 4 1 4 5 5 4 5 2 4 6 3 4 3 4 2 3 6 2 5 2 2 1 5
8 11 14 17 19 22 25 28 31 34 37 41 23 6 2 4 3 4 3 2 10 3 3 3 3 5 3 2 3 3 8 5 7 7 4 4 4 2 2 4 3 9 4 5 6 4 4
7 10 13 16 19 21 25 27 31 34 39 35 19 2 1 3 4 1 2 6 3 3 3 8 7 4 4 5 4 5 3 4 3 2 5 4 3 1 2 2 2 6 4 3 3 2 3
6 9 12 15 19 22 25 28 31 34 40 29 14 5 1 5 4 2 4 5 2 4 3 3 3 2 3 1 0 3 3 5 5 4 6 6 5 3 5 1 2 3 0 1 3 3 4
5 8 11 15 19 22 23 26 30 33 38 24 4 3 3 1 6 1 3 1 4 7 5 2 5 4 1 2 1 2 4 3 4 7 5 2 4 4 6 4 6 2 1 2 2 4 4
3 6 10 15 18 21 23 26 29 33 35 18 4 3 4 5 3 2 3 4 4 4 4 5 3 4 1 4 6 5 3 2 5 3 7 5 3 3 1 4 7 2 4 4 4 4 2
3 6 10 14 17 21 22 25 29 31 25 12 3 3 1 2 3 2 2 5 5 3 3 2 1 3 3 3 3 3 4 5 7 3 3 3 2 3 2 2 4 4 5 5 3 2 4
2 5 9 13 17 20 21 24 28 32 19 7 2 4 4 3 2 3 4 3 4 4 3 3 2 2 1 2 3 4 2 2 3 2 2 2 2 3 6 4 4 5 12 5 5 3 2
0 4 7 12 16 19 20 23 27 31 16 4 4 3 2 4 3 5 6 4 4 2 3 3 4 4 3 4 4 4 3 1 1 0 3 3 3 2 2 4 3 2 4 8 5 4 5
1 3 6 10 14 17 18 21 23 28 16 8 3 3 4 5 7 5 1 2 4 3 2 2 2 2 5 4 3 3 6 4 3 2 2 2 1 2 3 4 4 3 6 7 6 5 3
2 1 4 8 11 15 17 19 19 23 20 8 7 6 1 5 5 4 5 7 7 6 1 1 3 4 4 3 2 2 4 4 6 7 4 3 4 3 2 1 3 6 10 10 6 5 9
3 1 3 7 10 13 15 16 16 17 16 8 6 3 2 4 3 4 9 10 9 10 2 2 4 2 3 3 3 5 6 7 7 4 3 4 4 2 2 3 1 6 2 8 14 10 8
6 2 1 5 9 11 13 14 14 15 13 8 6 3 2 3 3 5 12 6 8 10 4 3 1 1 3 1 3 3 1 2 2 4 3 3 3 2 3 3 5 1 3 4 7 8 9
7 3 1 3 7 10 11 11 11 11 10 11 5 3 1 2 2 6 4 5 3 5 4 1 2 3 5 2 2 3 4 4 3 2 4 3 2 4 2 1 3 2 2 1 4 4 6
5 3 2 4 6 9 9 10 10 10 9 8 5 4 0 2 4 3 2 3 5 3 5 1 1 1 2 2 2 2 3 5 4 5 4 2 1 4 4 2 5 3 3 2 2 2 2
5 3 3 4 7 8 8 9 10 13 13 5 8 8 4 2 5 5 3 3 3 2 3 6 2 1 1 2 3 3 2 3 3 4 6 5 5 3 3 3 6 4 3 2 3 2 5
5 4 3 4 5 9 9 11 11 13 15 9 5 6 7 4 5 20 24 22 16 9 2 3 5 3 2 1 1 1 1 1 3 2 1 3 5 4 7 5 4 3 4 1 4 4 2

GFSGBSN_925_spd_066.txt.gz
Wind_Speed
13 15 16 17 19 20 21 22 22 22 21 22 23 25 27 28 24 19 12 10 5 5 4 4 4 2 4 2 7 13 9 15 16 28 23 13 6 13 7 6 12 3 10 7 7 12 12
13 14 16 17 18 20 21 21 23 22 22 22 23 25 25 26 22 16 9 3 3 4 1 0 1 5 4 5 9 6 13 17 11 29 24 19 9 10 6 7 12 7 3 13 1 6 8
12 14 15 16 19 20 22 22 23 23 22 22 22 23 22 22 20 17 11 6 4 4 4 4 3 3 2 9 3 4 3 13 5 22 16 20 10 11 5 2 3 1 14 4 14 5 7
12 13 14 16 18 21 22 22 23 24 22 22 21 21 21 18 16 13 9 5 1 2 4 4 2 4 4 7 10 6 3 10 6 11 19 21 16 10 1 3 4 6 6 7 11 7 7
11 12 14 16 18 20 21 21 22 23 23 22 20 21 20 18 15 12 10 7 2 2 2 3 1 3 5 7 4 6 8 4 4 2 10 8 7 4 3 3 3 2 6 6 7 12 5
10 11 13 15 18 19 20 21 22 22 23 22 21 19 20 17 14 13 15 6 2 3 4 4 1 1 4 1 4 6 5 5 6 4 6 5 5 4 4 6 15 20 7 5 11 12 7
10 11 12 14 17 19 20 22 22 22 23 23 21 19 17 15 11 12 14 2 3 3 2 3 1 2 2 5 4 2 9 8 6 6 9 9 9 20 21 9 2 10 6 8 3 6 5
9 10 12 13 15 19 20 22 22 23 24 24 23 20 19 14 9 8 7 3 4 2 3 4 7 4 2 3 3 2 2 4 3 3 2 6 16 9 9 9 3 12 6 6 1 4 7
9 10 11 13 15 18 20 22 24 24 24 24 23 22 20 14 6 2 9 2 4 1 2 5 6 3 2 4 0 3 1 8 2 2 1 10 8 10 9 7 6 3 10 4 4 2 2
8 10 11 13 16 17 19 22 25 25 25 24 24 23 20 12 1 2 2 1 2 2 2 0 1 0 1 1 1 3 2 5 3 2 0 1 9 12 8 7 4 2 6 6 6 5 5
8 10 11 13 16 17 20 22 25 26 25 26 26 24 15 4 4 2 2 2 2 1 2 5 0 2 2 1 2 2 2 2 6 4 3 3 14 15 12 8 5 4 4 8 5 6 4
7 10 11 13 16 17 20 22 25 27 28 29 30 20 7 2 5 3 1 1 2 3 6 2 2 0 2 3 3 2 6 2 5 8 6 6 4 5 2 3 3 2 5 7 5 3 1
6 9 11 13 16 18 20 23 25 27 29 31 26 10 6 4 2 2 2 3 3 6 3 4 2 3 5 5 3 3 3 1 4 5 4 6 4 2 2 5 2 1 6 2 2 2 5
5 8 11 13 16 18 20 23 25 28 31 35 19 2 1 3 4 2 1 3 8 1 1 2 3 5 3 3 1 7 7 4 4 11 5 4 5 2 3 3 3 4 4 5 5 3 3
4 7 10 13 16 19 19 22 26 29 34 32 9 2 2 2 6 2 1 5 7 5 3 3 4 1 3 2 1 4 3 1 3 3 5 5 1 0 2 2 1 3 2 2 5 3 3
3 5 8 12 16 19 20 23 26 30 35 25 4 1 2 1 3 3 3 2 3 4 2 1 2 0 3 3 2 2 1 2 3 2 2 4 5 2 4 2 3 3 2 2 2 3 4
2 4 7 11 15 19 21 24 26 30 32 16 1 2 1 3 1 3 3 4 4 6 4 3 2 1 1 2 4 2 2 2 2 3 2 5 4 3 6 7 6 5 4 2 3 4 4
2 3 7 11 15 18 21 23 26 28 28 12 3 3 1 2 3 1 1 2 1 3 3 4 3 2 2 2 4 3 3 2 3 5 4 3 4 4 4 3 7 1 5 4 4 4 1
2 2 5 9 14 17 19 24 26 28 21 8 2 1 1 2 3 3 3 3 1 2 2 2 2 2 2 2 4 3 3 1 2 4 7 5 2 3 2 2 2 4 4 3 3 3 5
3 1 4 9 14 17 18 23 26 28 18 2 2 3 3 2 2 3 4 3 3 1 4 3 3 2 3 4 5 3 2 2 3 2 2 4 3 4 5 4 5 5 8 7 5 3 3
4 2 3 8 12 15 18 21 24 28 14 1 3 2 2 3 3 4 3 4 2 2 2 2 4 2 2 1 2 3 2 2 3 2 2 3 3 3 2 3 3 3 6 9 8 11 7
5 4 3 6 10 14 17 18 22 27 10 9 3 2 3 2 4 3 2 4 3 5 3 2 1 6 2 3 3 6 4 3 3 0 2 2 2 2 3 1 2 2 6 9 9 5 5
8 4 2 5 9 12 15 17 20 23 16 6 5 3 0 4 3 1 2 3 5 8 2 1 1 3 1 1 1 3 2 3 3 6 2 2 4 3 3 1 2 6 10 11 8 6 8
9 5 1 4 8 11 13 15 15 15 16 8 4 1 3 2 2 2 4 6 6 5 2 6 2 0 2 3 1 3 6 5 6 3 3 4 4 2 2 2 1 5 1 6 12 5 8
10 6 3 2 6 10 11 10 11 11 12 8 5 3 2 1 1 4 8 4 7 5 2 3 2 1 4 3 3 3 4 2 1 2 4 3 4 2 3 3 5 2 4 5 7 7 11
10 7 4 1 5 8 9 10 10 10 9 7 6 5 3 1 2 4 4 3 3 3 4 2 1 2 3 2 2 4 4 5 3 3 2 4 5 3 1 1 4 2 1 3 4 5 5
10 8 5 1 3 7 7 8 8 12 11 6 0 2 2 0 3 3 1 2 3 3 4 4 6 3 2 2 2 3 3 4 4 5 4 3 2 4 3 3 6 5 2 4 3 4 3
12 9 5 1 3 6 7 8 9 10 13 5 4 5 3 2 5 4 4 4 1 2 3 5 3 2 1 3 2 3 3 4 2 4 5 5 5 3 3 3 6 3 2 3 3 2 1
12 9 5 1 2 5 8 9 11 12 13 9 4 3 2 3 5 9 18 18 14 11 2 1 4 4 2 2 2 1 2 0 3 2 1 3 5 4 7 5 4 5 4 2 2 3 1

GFSGBSN_925_spd_069.txt.gz
Wind_Speed
11 12 12 14 16 18 19 19 19 19 19 20 21 21 22 23 23 19 13 9 3 2 1 2 4 3 6 2 7 11 11 2 6 13 16 11 5 5 12 6 5 2 12 10 13 5 3
10 11 12 14 16 18 18 18 18 19 19 19 20 19 20 18 19 19 16 11 6 3 0 1 1 4 2 1 3 3 9 8 7 11 19 16 7 5 4 6 7 7 4 13 11 8 8
10 10 11 13 15 17 18 18 18 19 19 19 19 18 18 17 15 14 12 9 7 4 1 2 2 3 1 7 2 6 10 8 15 18 14 17 8 7 2 2 3 3 6 7 7 8 5
9 10 11 12 14 16 18 18 18 19 20 19 18 18 17 16 12 11 10 8 3 2 1 1 0 1 4 4 7 2 3 9 18 15 16 17 13 4 2 1 5 4 5 4 10 12 5
8 9 10 11 14 15 18 19 19 19 19 20 19 18 16 16 13 10 9 8 2 1 2 1 2 1 6 6 1 4 9 5 16 7 11 8 11 4 2 5 4 3 6 11 6 17 9
8 9 10 11 13 16 17 19 20 19 19 19 19 18 17 16 13 11 12 3 2 2 3 2 1 1 3 4 4 5 10 4 1 2 8 7 6 6 3 5 16 21 9 12 12 16 20
8 8 10 11 13 14 17 19 20 20 19 19 18 18 17 16 11 10 9 4 3 2 2 3 1 2 2 7 4 2 9 7 6 5 7 8 4 21 22 8 1 7 6 12 1 8 12
7 8 9 11 13 14 16 17 20 21 20 20 19 19 17 15 10 7 1 3 3 1 1 2 5 3 1 2 3 2 5 4 5 2 4 6 12 13 8 8 4 10 5 8 2 4 11
8 7 9 10 13 14 16 20 20 22 21 21 22 20 18 13 7 1 6 3 5 2 2 2 3 1 1 2 1 2 2 6 6 3 4 2 10 10 10 5 6 2 6 5 6 4 3
8 7 9 10 12 15 16 20 21 23 23 23 22 23 17 7 2 2 2 5 2 3 0 0 2 0 1 1 2 2 2 4 4 4 5 1 12 12 12 5 4 4 3 5 7 5 4
7 6 9 10 13 15 16 19 22 24 25 26 25 23 12 3 2 4 4 6 1 3 4 2 4 2 2 2 3 1 2 2 8 5 5 4 18 14 10 6 5 3 2 5 3 3 3
7 7 9 11 13 15 18 20 23 25 27 28 28 21 6 3 5 3 4 4 3 4 2 2 1 3 4 1 1 3 2 2 3 2 4 6 4 4 3 4 3 4 5 6 5 3 2
6 7 9 11 13 15 18 20 23 26 27 30 28 12 4 6 1 5 6 3 4 5 1 3 0 3 2 4 5 3 6 6 3 2 1 12 4 2 3 7 2 3 5 2 2 1 5
6 7 8 11 14 16 19 21 24 26 28 32 21 3 6 4 7 4 3 3 7 3 1 0 1 5 1 1 4 4 2 3 3 2 5 4 5 2 4 3 5 3 4 4 5 4 3
6 6 8 11 14 17 19 21 24 26 31 30 8 3 5 5 7 4 3 4 6 6 2 1 2 2 1 3 3 3 3 1 2 5 3 4 3 2 4 1 2 4 3 3 6 3 3
6 5 7 10 14 17 19 21 24 27 30 23 3 2 2 5 8 4 4 1 2 4 3 2 3 1 2 2 2 2 3 2 4 6 1 3 5 1 1 2 2 2 2 1 3 3 4
6 4 6 9 13 17 19 22 24 28 28 15 2 2 2 2 5 3 3 4 3 5 3 2 2 1 1 3 1 3 2 2 3 4 3 4 3 3 6 6 7 2 2 2 3 4 4
6 4 4 8 13 16 18 22 24 27 26 9 2 2 3 0 2 0 1 2 2 2 1 2 2 3 1 2 3 2 3 1 3 7 4 2 4 5 2 3 3 4 4 6 4 4 1
7 3 2 7 12 15 18 22 24 27 19 4 2 2 3 1 2 2 2 1 1 1 2 2 2 3 2 2 3 2 2 1 1 6 6 5 2 4 1 2 2 6 6 4 3 3 6
9 4 2 5 11 15 18 20 24 26 16 1 2 2 4 3 1 1 4 3 1 2 2 2 2 2 2 3 5 2 2 1 2 2 4 5 3 5 7 5 4 6 9 7 6 4 4
10 6 2 4 9 14 16 20 23 28 13 1 3 1 2 3 3 4 1 3 2 2 1 2 1 3 2 2 2 2 1 2 4 3 4 3 4 3 2 1 3 3 9 17 9 14 9
11 8 3 3 8 12 15 18 23 28 11 7 2 2 3 2 4 4 4 3 5 5 4 3 2 4 2 2 2 5 4 2 3 1 2 2 1 2 2 2 4 4 7 12 16 8 8
14 10 5 3 7 11 13 16 18 24 18 6 4 2 2 4 5 1 3 4 4 5 2 5 3 3 2 2 1 1 2 2 3 6 3 3 5 3 4 3 3 6 8 11 6 6 11
16 11 7 3 5 10 11 13 15 17 17 7 5 2 2 0 2 2 4 7 5 9 2 6 3 1 3 5 1 2 6 6 4 3 3 4 4 2 2 2 1 5 1 4 11 4 11
17 13 8 4 4 8 9 12 12 13 13 9 6 2 2 0 1 2 5 3 7 7 3 3 2 1 2 4 3 3 4 4 1 3 2 3 4 2 3 3 6 3 2 4 5 6 13
18 14 9 5 4 7 8 9 10 13 12 8 6 6 3 2 3 1 2 2 2 3 5 2 4 6 4 2 2 2 3 3 2 1 3 4 5 4 1 1 4 3 2 3 3 5 4
18 15 11 7 4 5 6 7 6 9 12 8 2 3 3 1 3 2 2 1 2 1 2 3 6 6 2 1 2 2 3 3 3 4 4 2 1 4 3 2 6 6 3 4 4 5 4
19 16 12 8 6 5 6 7 6 7 10 8 5 3 1 1 4 3 2 3 0 1 1 4 3 1 1 3 2 3 3 4 2 3 5 5 5 3 3 2 6 3 2 4 5 3 3
20 17 12 8 6 4 6 5 7 8 9 7 2 4 3 3 4 4 9 14 11 6 1 1 1 2 4 2 1 1 2 1 3 2 1 2 6 4 7 5 4 5 5 2 3 1 2

GFSGBSN_925_spd_072.txt.gz
Wind_Speed
9 10 11 12 14 16 17 16 17 17 17 18 18 18 19 18 17 17 16 13 9 6 2 2 2 2 4 2 5 6 8 8 10 10 5 8 5 4 5 6 4 2 5 9 5 9 6
8 10 11 12 13 15 16 16 17 17 18 18 18 18 18 18 16 14 13 11 8 6 4 4 4 5 3 1 2 3 9 3 4 3 5 12 5 6 4 5 6 6 1 10 6 1 2
8 9 10 11 13 14 14 16 17 18 18 17 18 17 17 16 15 12 12 9 7 6 4 4 4 3 2 6 4 8 5 3 3 7 4 17 6 5 2 4 5 4 7 7 6 5 1
8 9 10 11 12 14 15 16 18 18 18 18 18 18 17 14 14 12 11 9 5 3 3 4 2 2 3 3 6 4 3 1 5 4 14 18 12 1 1 1 4 4 5 5 8 14 4
7 9 9 11 12 13 15 16 17 18 19 19 19 18 18 15 14 13 11 10 4 1 2 2 4 2 4 5 3 3 2 3 11 8 15 14 10 4 1 6 4 5 7 6 8 13 8
7 8 9 11 12 14 15 16 18 18 20 19 19 18 18 15 13 11 12 4 3 1 1 1 1 2 3 2 5 1 6 6 3 10 9 8 7 4 3 5 15 11 5 3 6 12 8
8 9 9 11 12 14 15 17 18 19 20 20 19 19 18 16 12 9 8 3 3 2 1 2 2 2 3 10 2 4 7 8 5 7 8 11 2 19 18 4 1 8 6 7 3 10 15
9 9 9 11 11 14 15 16 19 19 20 20 20 19 18 15 9 7 1 2 2 2 1 1 4 3 2 5 1 2 9 4 4 10 7 5 3 10 8 5 4 9 6 4 2 10 8
9 10 10 11 12 13 15 17 18 19 20 21 21 20 19 12 5 2 2 3 4 2 2 1 2 1 2 3 2 1 2 8 1 5 5 5 2 10 7 4 5 3 8 5 5 4 3
9 11 10 11 12 14 15 17 19 20 20 21 21 20 17 6 2 4 2 5 2 1 2 1 1 1 2 2 1 2 2 2 4 3 4 2 5 14 11 5 4 4 5 6 8 5 4
9 11 9 10 12 14 16 17 19 21 21 21 22 20 11 2 3 4 3 6 3 1 2 2 2 1 1 1 1 3 3 1 6 4 2 3 15 9 12 8 3 3 5 5 3 4 2
9 10 9 9 11 14 16 18 19 21 22 23 23 17 3 4 4 4 7 5 2 5 2 2 2 3 3 1 2 1 3 1 2 4 1 3 5 1 4 3 3 6 6 7 5 3 1
10 10 9 8 10 14 17 19 20 21 22 23 22 7 6 7 3 7 6 1 4 5 1 1 2 4 3 4 4 4 2 2 3 3 3 7 4 2 3 7 4 5 6 2 2 0 4
10 9 8 8 10 13 17 19 20 21 23 25 14 5 8 5 9 7 2 4 7 4 3 1 0 8 3 8 3 6 5 3 3 5 4 4 6 2 3 4 6 3 3 4 5 4 3
10 9 7 7 10 12 15 18 20 22 23 23 4 7 7 6 9 6 3 4 6 4 2 2 0 2 2 1 3 5 7 6 6 9 1 4 4 2 5 2 2 4 3 3 6 3 3
10 9 6 7 9 12 14 17 20 22 23 15 4 4 2 4 8 4 3 2 2 3 2 2 1 4 2 3 3 3 2 2 2 2 1 1 6 3 3 2 5 3 5 2 3 3 4
10 8 6 6 9 12 14 17 19 22 21 7 3 2 3 4 6 3 2 4 4 5 4 3 2 2 1 4 3 3 2 1 3 3 6 2 3 3 3 3 5 2 2 2 3 4 4
11 7 5 4 9 12 15 17 19 22 17 4 3 2 5 7 1 1 1 3 2 1 2 2 1 0 2 1 4 6 3 2 3 6 4 2 4 3 2 3 3 3 5 5 4 4 1
11 8 4 3 8 12 14 16 19 20 13 3 2 1 2 4 1 2 3 1 1 1 1 1 1 3 2 2 3 1 1 2 5 7 7 6 2 4 1 1 2 4 4 3 4 3 6
13 9 6 2 7 11 13 17 20 19 9 5 3 1 3 2 1 2 3 3 3 1 3 2 2 1 3 3 5 2 2 3 3 2 3 5 3 5 7 5 3 6 8 10 6 6 4
14 11 7 1 5 9 12 15 20 18 7 5 3 0 1 2 2 3 1 4 4 4 3 5 3 4 2 2 2 2 2 1 3 3 3 3 3 3 3 2 3 3 10 14 20 19 10
17 13 8 2 4 7 10 13 18 20 6 9 3 2 3 1 3 2 3 3 5 5 4 4 4 5 4 3 2 3 4 2 2 2 2 2 2 3 2 3 5 5 8 13 18 17 17
19 15 9 4 3 6 9 12 17 21 9 6 2 2 3 3 3 1 2 2 2 3 4 5 3 2 4 2 3 4 1 2 2 6 3 2 4 3 3 3 3 6 9 13 10 13 16
21 17 11 6 4 6 7 11 14 18 19 11 3 3 3 1 2 2 2 3 4 3 2 5 3 1 1 4 2 1 6 5 4 4 2 4 3 2 2 2 1 5 2 4 11 6 14
23 18 14 8 5 6 7 10 12 15 13 16 8 3 2 2 1 1 4 4 6 4 4 3 4 3 4 3 3 4 4 3 1 2 2 2 4 2 2 3 7 1 1 5 5 5 8
24 20 15 11 7 7 6 6 8 11 11 10 10 6 3 4 1 1 2 2 3 4 6 3 4 9 3 2 2 3 3 3 2 0 3 4 4 3 1 1 4 4 3 3 3 4 3
25 21 17 13 9 7 6 4 4 6 8 8 6 5 3 3 1 2 2 2 1 2 2 3 6 7 3 1 2 2 3 3 3 4 4 2 2 4 3 3 7 6 5 3 3 4 4
27 22 18 14 11 8 7 6 4 4 6 7 7 4 1 1 2 3 2 2 2 2 1 4 3 1 2 2 2 3 3 4 2 3 5 6 5 3 3 3 6 4 2 3 5 3 3
28 24 19 16 12 8 8 5 4 3 5 5 4 4 1 1 2 2 6 7 5 3 2 3 1 2 2 2 1 1 2 2 3 3 1 3 6 4 7 5 5 4 6 3 3 3 3

GFSGBSN_925_spd_075.txt.gz
Wind_Speed
8 9 8 9 12 13 15 16 17 17 16 16 17 16 16 16 15 13 13 13 10 9 8 6 3 3 1 2 4 7 11 0 17 11 6 6 7 5 4 6 5 3 5 6 10 8 6
7 8 9 10 10 13 14 16 17 18 18 17 16 17 16 15 14 11 11 9 8 7 7 6 5 3 1 1 3 4 7 3 5 9 3 6 2 4 3 5 5 7 2 7 9 5 3
9 8 9 10 10 12 14 16 16 18 18 18 17 15 16 14 14 12 10 8 5 4 5 4 3 2 1 4 4 8 3 5 2 7 1 9 5 3 1 4 3 7 8 4 6 5 4
10 10 9 9 10 12 13 16 17 18 18 18 17 17 15 15 13 12 10 9 7 2 1 2 2 1 3 3 4 5 4 7 6 5 10 7 6 1 1 1 3 4 5 7 5 13 4
11 11 10 9 10 11 13 15 17 18 19 18 18 18 16 15 12 11 11 10 5 1 1 1 1 2 1 1 2 5 4 3 3 10 12 13 6 3 1 5 4 3 6 5 5 13 8
12 11 10 9 9 10 13 14 16 19 19 18 18 18 17 14 12 9 10 4 2 1 2 1 1 3 3 2 5 1 5 6 7 5 8 6 3 2 2 5 15 7 6 5 8 10 9
13 12 10 9 9 10 12 15 17 18 20 19 19 18 17 15 11 7 5 1 3 2 1 1 0 0 2 9 2 2 3 3 6 3 6 9 4 11 10 4 3 7 5 9 5 9 6
14 12 10 10 9 10 12 15 16 18 19 19 19 18 17 15 8 4 1 2 2 1 2 1 2 3 1 3 1 3 3 2 3 5 10 5 2 10 7 5 6 11 8 4 2 7 8
13 12 10 9 9 10 12 14 16 17 19 20 19 18 17 11 3 1 1 2 3 1 2 1 1 1 1 2 3 6 7 3 3 3 13 7 2 12 7 5 8 2 9 5 5 5 3
13 11 9 10 9 9 11 14 16 17 18 19 19 18 14 4 2 4 1 5 2 1 3 0 1 1 2 0 2 4 6 3 1 6 4 3 9 17 10 6 6 4 5 6 9 9 4
12 11 9 9 9 9 11 13 16 17 18 19 19 17 8 3 6 3 2 6 3 2 4 1 2 1 1 1 1 1 2 1 2 7 2 2 11 12 8 8 5 4 5 6 3 4 3
12 10 8 8 9 9 11 14 17 17 18 20 21 14 3 6 4 4 7 6 2 5 2 2 1 3 2 3 2 3 2 1 2 6 4 3 5 2 2 3 1 9 7 7 4 3 3
12 10 8 7 7 10 11 14 16 17 18 21 20 3 7 8 4 8 6 1 3 5 1 0 3 2 3 1 2 1 1 2 3 5 1 7 3 1 1 7 1 4 6 2 1 2 4
12 9 7 6 7 9 11 13 16 17 18 19 6 10 9 6 9 7 2 4 7 1 1 1 4 4 2 6 2 3 2 3 5 4 3 3 3 6 1 2 5 3 4 4 6 4 3
12 10 7 6 6 8 11 13 15 17 17 14 7 9 6 7 8 5 3 4 6 5 2 2 1 3 2 4 3 3 2 2 3 3 3 4 2 3 3 1 2 3 3 3 6 2 2
14 11 8 5 4 8 10 13 14 17 16 7 5 5 3 7 7 3 3 1 1 4 3 0 1 1 2 3 2 0 1 4 3 7 8 2 5 4 2 2 6 2 5 2 3 3 3
15 12 8 3 3 7 10 12 14 16 13 2 4 3 3 8 5 3 2 4 4 5 3 3 0 1 4 4 4 4 4 1 5 8 4 2 2 2 3 1 5 1 2 4 3 2 3
16 13 9 4 1 6 9 11 14 16 9 4 3 2 4 9 1 0 1 4 4 2 2 2 2 3 1 3 2 2 5 4 6 6 6 4 3 3 2 1 2 1 3 3 3 3 1
18 14 9 6 0 5 7 10 14 14 5 5 3 2 2 2 1 2 3 2 2 2 2 3 1 2 2 3 4 2 3 3 3 2 6 6 2 4 2 0 2 3 4 3 4 3 6
20 15 11 6 1 4 6 9 14 11 1 4 3 2 2 2 1 1 1 2 0 0 1 1 2 2 2 4 5 3 2 2 4 1 4 4 3 5 6 5 4 5 6 7 5 4 3
21 17 13 7 2 3 5 8 13 8 3 4 3 1 1 1 1 2 0 2 2 4 4 4 2 3 1 2 3 2 2 3 3 3 3 2 2 3 3 3 4 5 6 12 15 12 12
22 18 14 8 3 2 5 7 12 8 4 6 3 3 1 2 1 2 3 3 4 4 4 3 3 4 3 4 2 3 2 1 3 2 3 2 2 2 2 3 4 3 7 9 15 15 17
24 21 16 10 5 4 4 8 11 12 4 5 3 2 2 3 2 2 2 2 4 4 1 4 2 2 5 3 1 3 2 1 2 6 3 3 4 2 3 2 1 5 10 13 7 7 13
26 22 17 12 8 7 6 7 10 13 11 9 4 5 3 1 3 2 1 2 3 4 2 4 4 2 3 6 3 1 6 5 5 4 3 5 4 2 2 2 1 4 2 4 13 11 13
29 25 19 14 11 9 9 7 9 11 11 15 7 4 3 3 2 2 2 2 3 4 2 2 3 1 4 2 3 3 4 3 3 4 2 2 4 2 2 2 6 1 1 5 5 4 7
31 27 21 17 13 11 9 6 7 8 7 11 11 6 4 5 1 3 2 1 0 2 4 2 2 5 1 2 1 3 2 2 2 2 4 4 4 3 2 1 4 4 2 3 3 4 4
35 30 24 19 14 12 9 6 5 6 6 4 6 5 5 4 3 4 2 3 1 1 1 2 5 5 2 1 2 3 3 3 3 4 3 1 1 4 4 3 7 6 5 4 3 4 2
36 31 25 21 16 13 10 8 6 5 4 4 7 5 3 3 2 5 4 3 1 1 2 3 1 1 2 2 3 3 3 5 2 4 5 6 5 3 2 4 7 5 3 4 5 2 3
38 32 27 22 18 15 13 9 6 4 5 5 4 6 6 6 3 3 4 5 3 3 3 2 1 1 2 2 0 0 1 2 4 3 1 3 6 4 7 6 4 5 5 3 4 4 3

GFSGBSN_925_spd_078.txt.gz
Wind_Speed
11 10 10 10 10 10 12 13 15 16 17 17 15 13 15 14 13 11 10 9 8 7 6 4 2 2 1 3 3 6 12 10 12 16 9 11 15 16 16 16 15 15 16 13 9 6 7
11 12 10 10 11 10 12 13 14 15 16 17 17 14 13 15 13 11 9 7 5 5 5 4 3 1 1 1 5 6 9 6 5 15 8 8 10 11 14 12 16 14 5 19 11 6 3
13 11 11 10 10 10 11 13 14 15 16 17 16 15 13 15 14 12 9 8 5 2 3 2 3 1 2 3 5 7 4 1 5 8 4 7 1 9 11 11 6 13 7 8 12 10 6
14 12 10 10 10 11 10 13 14 15 16 16 16 15 13 15 13 12 9 8 5 2 1 0 2 2 2 3 4 6 4 1 4 3 15 7 5 2 7 5 11 10 16 9 13 11 3
15 13 11 10 10 10 10 12 14 15 16 17 16 16 15 14 13 11 9 9 4 2 2 1 2 2 0 4 3 4 4 3 4 5 9 7 2 4 6 13 11 13 12 21 10 14 7
17 13 12 10 9 10 11 12 14 15 16 17 16 18 16 15 13 10 7 3 4 2 2 1 1 3 1 3 7 2 3 3 3 7 4 7 2 4 10 13 14 14 11 13 13 11 10
18 14 12 11 9 10 11 12 14 15 16 16 17 17 16 15 10 6 4 2 3 3 3 1 1 2 1 8 3 1 3 1 4 4 5 6 1 8 16 15 5 14 10 11 9 8 12
21 14 12 11 9 9 10 12 13 15 16 16 17 17 17 15 9 5 2 2 1 2 2 1 2 2 3 2 2 1 4 1 3 7 8 3 2 9 10 10 11 14 13 13 8 12 12
23 15 12 11 9 8 9 11 13 15 16 15 15 16 16 10 2 3 3 2 4 3 1 2 0 1 1 2 1 3 4 4 1 8 7 7 3 12 13 13 13 14 16 12 10 10 11
22 17 13 11 9 9 8 11 12 15 16 16 15 15 14 5 2 3 2 5 3 2 2 3 1 2 1 2 2 4 7 2 1 7 9 5 8 12 11 15 14 13 10 13 11 12 5
22 18 13 12 10 8 8 9 11 14 15 16 15 14 8 4 5 2 2 6 2 2 1 1 1 1 1 3 2 3 5 3 3 4 4 3 10 12 16 15 10 5 12 10 9 10 4
23 18 14 12 9 8 7 8 10 12 15 16 16 10 4 5 3 4 7 4 1 2 4 1 0 2 0 4 3 2 1 4 1 6 6 5 11 4 9 5 3 13 13 9 5 2 6
24 18 15 12 9 8 6 7 8 11 14 16 12 4 7 7 4 9 6 1 1 3 1 2 2 1 3 1 3 4 1 2 2 5 3 5 6 1 4 10 10 9 17 5 4 5 5
23 19 16 12 8 7 5 6 7 9 12 13 6 12 8 4 10 8 2 1 3 1 2 5 3 5 2 3 1 1 4 1 1 3 3 3 4 5 3 5 7 15 10 3 6 5 5
25 19 16 12 9 6 5 4 6 8 10 6 9 9 4 5 8 5 2 0 2 3 2 4 8 4 3 3 3 3 2 4 1 1 2 3 3 2 6 2 2 4 6 2 4 1 2
26 20 16 13 9 5 4 4 5 7 7 2 6 5 2 6 6 1 1 1 1 2 1 2 1 1 4 6 5 3 4 4 4 2 1 2 5 1 4 1 4 2 9 3 0 5 4
28 22 17 13 9 6 3 2 4 7 5 8 5 3 1 8 4 1 1 1 1 4 3 2 1 4 2 2 3 4 3 1 3 3 5 2 2 4 8 3 8 4 4 1 1 2 2
28 23 18 14 10 7 2 1 4 5 2 11 4 2 3 9 2 1 1 1 2 2 3 2 1 2 4 3 1 1 2 1 12 6 6 3 4 4 2 1 1 1 3 11 6 5 0
29 24 20 15 11 6 3 1 3 3 5 6 3 3 2 1 2 2 1 1 1 2 2 2 1 1 1 4 2 2 3 2 8 7 5 5 3 6 4 3 2 5 8 4 3 2 7
31 25 22 17 12 7 4 1 3 2 6 6 3 3 2 2 2 2 2 1 2 1 1 1 1 3 5 4 1 4 3 2 5 2 2 2 3 3 6 2 4 7 14 14 10 5 11
32 27 23 18 13 8 5 2 2 2 9 5 1 2 1 3 3 2 1 1 2 2 2 2 1 3 1 3 4 5 2 4 3 3 1 3 1 1 1 2 2 3 9 16 14 18 15
32 29 24 20 14 9 7 3 2 4 11 3 3 3 2 2 1 3 1 2 2 1 2 1 3 3 1 2 2 4 6 4 2 4 3 1 2 1 2 2 4 7 11 13 18 20 21
34 30 26 21 15 12 9 5 4 6 12 4 3 2 1 1 3 3 2 2 3 1 1 4 2 1 5 4 5 4 2 1 2 4 4 2 4 3 1 1 3 9 18 17 11 12 14
34 30 27 22 17 14 11 8 6 6 10 6 5 4 3 3 3 2 3 1 3 2 1 4 5 0 3 5 2 2 4 4 5 5 1 5 4 2 1 3 5 1 1 2 13 13 14
36 33 28 24 20 17 14 10 8 7 6 10 9 3 3 4 4 4 3 2 1 0 0 2 2 4 6 1 2 3 2 2 2 3 1 2 4 3 3 5 8 4 2 3 5 4 4
40 34 30 25 22 20 16 12 9 8 9 14 10 7 2 6 3 4 3 0 2 2 1 2 1 6 2 1 2 3 2 0 3 3 1 1 1 4 3 3 4 2 2 3 2 4 3
42 36 32 28 24 21 18 14 10 7 8 7 7 7 3 4 3 3 1 2 2 2 1 2 5 3 3 2 3 3 4 0 3 3 4 4 3 8 7 5 6 5 5 3 4 3 2
42 39 34 29 25 22 18 15 12 10 10 6 9 5 2 3 4 3 2 2 2 1 2 2 2 1 2 4 3 3 4 4 3 2 3 6 5 4 5 5 7 7 5 5 2 0 3
46 42 36 30 26 22 19 16 13 11 12 8 6 8 10 7 4 3 2 1 1 1 2 2 2 1 2 2 0 1 2 2 4 3 3 4 4 2 6 4 2 8 6 6 2 4 3

GFSGBSN_925_spd_081.txt.gz
Wind_Speed
13 13 12 11 11 12 12 13 14 14 15 15 16 14 14 12 15 13 11 9 7 6 5 5 3 1 3 5 6 6 9 12 9 18 16 12 12 19 18 20 20 20 15 18 10 9 17
16 13 14 12 11 12 11 13 13 14 15 15 17 14 14 13 14 13 11 9 6 5 4 4 3 2 7 7 5 7 8 6 6 17 19 12 6 18 14 17 18 14 13 14 6 10 6
19 15 15 13 12 12 12 12 13 14 15 17 15 15 14 13 14 14 12 10 6 5 4 5 5 5 7 4 5 7 4 3 7 5 11 2 12 8 12 12 10 11 12 14 15 13 8
22 18 15 14 13 12 12 12 13 13 15 16 17 14 15 13 13 13 12 10 6 6 5 5 6 7 5 1 4 6 4 2 3 11 4 6 8 11 19 11 13 16 17 16 16 17 5
26 21 16 15 13 12 13 11 12 13 15 15 16 15 17 14 14 11 11 9 6 6 5 4 7 5 2 1 3 6 6 4 2 3 9 7 4 4 9 17 14 15 15 21 18 16 7
31 23 17 17 13 12 12 11 11 12 15 15 15 16 15 15 15 10 7 3 2 2 3 5 7 6 2 3 6 4 4 4 2 4 4 4 2 2 13 16 17 18 17 22 16 13 12
32 25 19 17 14 13 12 11 10 12 13 14 14 15 15 15 13 10 5 3 4 4 6 5 5 4 2 7 1 3 4 4 1 4 4 3 2 4 22 21 16 17 17 20 16 11 14
26 26 22 18 16 13 12 11 10 11 12 14 14 14 15 15 12 5 5 5 3 4 2 1 4 4 4 4 4 4 6 4 4 2 6 3 2 8 10 14 7 16 14 9 6 7 10
25 27 24 18 16 14 12 10 10 10 12 14 13 13 13 12 5 4 6 3 2 1 3 2 2 3 3 4 5 4 7 2 2 2 2 6 2 5 10 12 17 13 15 15 13 10 12
24 27 25 19 16 14 12 9 9 9 11 12 12 11 10 5 3 3 3 4 2 1 3 4 1 3 1 4 1 7 3 2 1 3 1 2 6 6 10 11 12 14 11 15 13 12 6
28 26 25 20 17 14 11 9 8 8 10 12 12 10 6 8 1 2 2 4 2 3 2 2 3 2 1 3 4 1 6 4 2 6 4 3 2 7 12 12 8 11 5 10 9 11 5
33 27 26 20 17 14 11 9 7 7 9 11 12 6 4 5 3 1 5 4 3 2 3 1 4 1 1 4 3 3 2 4 2 2 10 9 6 1 3 4 2 8 11 5 5 6 7
28 28 26 20 16 13 11 8 6 5 7 11 6 8 7 3 1 5 3 3 2 2 1 1 1 1 3 6 4 4 2 5 3 3 3 4 2 3 3 7 4 14 15 5 4 4 5
27 28 24 21 16 13 10 8 5 5 5 5 8 11 5 1 4 4 3 2 1 4 1 3 2 3 4 2 3 3 3 6 5 2 3 2 2 6 7 6 6 14 14 4 5 6 9
28 28 25 21 16 13 10 8 6 3 3 4 11 7 4 2 3 1 4 2 2 3 4 6 4 2 2 1 2 2 1 2 2 2 2 3 3 4 4 2 4 10 10 3 3 3 1
32 29 26 21 17 13 11 7 6 3 3 13 8 5 3 3 3 2 2 2 1 2 3 5 2 4 7 8 5 3 4 3 2 2 5 4 4 3 4 3 1 4 8 3 2 4 4
37 31 26 23 18 15 11 8 6 4 5 17 8 3 1 5 1 3 1 2 3 3 2 2 1 4 4 7 5 5 1 2 3 4 2 1 3 3 6 3 8 4 4 4 3 3 3
40 31 29 24 20 16 13 10 7 4 10 17 6 2 1 5 2 1 1 2 1 5 4 2 3 2 3 5 5 2 3 2 6 2 4 2 4 3 4 4 6 8 10 13 4 5 3
41 34 31 26 21 18 14 12 9 8 17 9 3 3 1 1 2 3 4 3 1 5 4 3 2 3 1 3 2 2 2 1 9 5 2 2 3 4 4 5 5 7 10 8 9 3 6
41 36 32 26 22 20 16 13 11 9 17 6 3 3 3 2 5 3 4 4 5 1 3 2 0 2 2 1 1 3 4 3 6 4 3 3 3 4 3 3 1 7 13 14 9 4 11
42 39 33 27 24 20 17 14 11 10 18 7 3 3 3 4 7 6 3 3 7 4 2 2 3 2 4 3 3 3 4 6 5 2 3 3 2 1 3 1 3 4 9 15 15 17 13
47 41 34 29 25 20 17 15 11 14 20 4 3 3 3 3 4 7 4 5 7 4 2 4 2 1 3 1 5 6 5 6 6 8 6 3 2 1 3 5 5 8 12 14 16 20 21
50 41 35 30 25 21 18 15 11 18 18 4 2 1 3 4 6 7 5 7 6 3 3 5 2 3 6 4 4 4 4 2 2 3 7 3 2 2 2 2 5 10 18 18 17 15 14
50 42 34 30 25 22 19 14 11 19 18 4 5 5 4 4 6 5 6 5 7 2 3 3 2 2 3 4 4 3 2 1 2 2 3 4 5 2 3 3 4 2 2 2 6 13 15
49 42 35 29 26 23 20 15 12 14 20 6 7 3 2 4 4 5 7 5 4 3 3 2 4 3 2 2 3 3 4 3 5 2 4 3 5 3 3 6 12 15 2 2 3 7 5
49 41 37 32 27 24 21 17 13 11 12 10 6 4 1 6 3 5 7 4 4 6 4 3 2 3 2 3 3 5 5 0 3 3 1 2 5 5 2 4 4 6 4 1 0 6 6
49 45 38 34 28 26 22 18 15 13 11 11 6 7 1 4 3 1 2 3 2 1 1 2 1 2 2 4 4 5 5 2 3 2 3 4 6 10 9 6 7 2 7 3 4 3 1
51 45 40 35 30 26 22 18 15 13 13 8 6 5 2 4 5 3 2 2 3 1 3 3 3 2 3 4 3 3 4 3 2 5 4 7 5 6 7 6 8 8 6 5 3 2 2
50 45 40 36 34 28 23 19 16 16 11 11 6 7 10 6 5 4 6 4 5 5 1 2 2 2 2 1 1 1 3 2 5 5 3 4 8 5 5 3 4 7 8 6 6 7 5

GFSGBSN_925_spd_084.txt.gz
Wind_Speed
20 20 17 16 14 14 15 13 13 12 13 14 15 15 13 14 13 15 14 12 9 9 8 8 7 6 7 7 6 5 8 8 13 11 14 14 15 14 13 15 16 17 10 19 13 1 13
25 23 21 18 16 15 15 14 14 13 12 14 16 15 13 15 13 13 14 11 11 9 7 7 7 6 9 12 6 10 8 5 13 7 12 16 5 7 8 13 20 14 17 16 14 8 13
31 29 24 20 18 15 15 15 13 14 12 13 14 16 12 15 12 12 13 12 12 9 8 7 7 9 11 8 6 8 5 6 9 6 7 8 7 4 9 10 16 7 18 11 11 13 8
33 34 28 22 19 16 15 15 14 14 13 12 14 14 13 14 12 12 12 12 10 10 9 8 8 9 6 1 2 8 10 5 5 6 8 8 4 4 5 13 13 9 14 14 16 21 10
33 32 35 24 20 18 14 14 15 14 13 12 13 13 13 14 12 14 11 9 10 8 8 6 7 7 4 2 2 7 7 7 4 5 6 9 6 2 8 8 10 7 11 14 11 10 7
33 32 33 28 22 18 15 14 14 14 13 12 13 12 13 12 13 11 8 4 3 3 5 7 9 5 9 3 6 8 3 4 4 4 6 4 3 1 7 10 11 12 9 12 8 9 11
31 32 33 32 24 19 15 14 13 14 13 12 13 13 12 13 11 8 3 2 3 3 5 4 3 6 4 10 5 1 6 5 4 3 1 5 2 6 16 18 12 12 10 13 10 10 11
31 33 29 33 24 20 16 14 12 13 12 12 12 12 12 11 9 3 4 4 7 4 2 1 3 4 2 4 5 3 12 3 1 3 7 4 2 3 3 11 16 14 16 7 7 4 9
30 32 31 33 25 20 15 14 12 12 12 11 11 10 10 8 4 2 7 1 3 4 3 3 2 4 2 4 6 7 10 3 5 2 1 3 3 3 4 3 12 17 15 13 10 13 6
31 32 32 33 25 21 16 14 12 11 11 11 10 9 6 3 1 2 2 2 1 2 2 4 1 0 3 1 2 2 3 2 2 3 4 5 1 5 7 13 8 9 12 12 14 7 4
32 32 30 33 27 22 16 13 11 10 10 10 9 8 4 7 3 1 3 4 0 2 2 2 3 2 3 1 2 4 2 4 5 2 2 5 7 4 11 6 8 3 8 8 11 9 5
31 34 31 35 27 23 17 13 11 9 8 9 9 5 5 7 2 3 5 4 2 2 3 3 4 4 1 3 5 1 0 2 3 3 6 5 4 6 9 6 6 8 11 4 5 0 1
34 32 31 35 28 23 17 13 11 7 8 8 4 12 8 3 2 6 4 2 1 2 1 3 3 4 5 5 4 3 2 3 3 1 4 5 6 8 5 3 5 2 6 3 2 2 3
34 31 30 36 31 23 18 13 11 8 6 2 10 13 8 4 5 3 3 2 2 3 1 2 1 3 4 4 2 5 5 5 5 4 3 3 1 3 2 3 2 5 5 3 4 4 4
38 31 33 41 30 23 18 14 12 9 6 11 13 8 6 3 3 1 1 1 3 3 4 6 3 0 2 2 1 2 3 5 2 3 2 3 3 3 2 5 5 5 3 1 3 2 4
31 31 36 37 30 23 19 16 14 11 9 18 7 8 6 3 3 4 2 1 1 3 4 7 2 6 5 5 3 2 2 3 2 3 3 2 5 2 3 5 3 3 1 1 2 2 1
30 33 35 36 30 24 20 18 16 13 13 19 4 3 2 5 2 2 2 2 3 5 1 3 2 1 7 4 3 2 5 3 2 1 6 4 4 2 2 2 3 2 0 1 2 3 1
22 36 38 36 31 26 21 20 18 15 18 18 4 2 2 6 2 2 2 4 2 5 4 3 3 2 2 4 5 0 3 5 5 4 2 2 3 3 1 5 3 4 4 4 3 3 1
17 38 37 38 33 27 24 22 19 18 30 9 4 3 2 1 3 3 4 5 2 4 5 4 3 2 3 1 2 4 3 5 6 3 3 3 2 3 1 2 5 5 6 6 2 4 3
17 38 41 40 33 28 26 24 21 20 23 7 4 3 2 2 3 5 6 5 5 1 1 2 1 3 4 3 1 3 5 2 6 1 2 3 2 2 2 1 1 5 7 7 5 2 4
20 44 44 41 33 30 28 25 22 21 26 7 2 4 6 4 6 7 1 8 8 5 3 4 2 5 2 3 4 4 6 4 4 4 2 2 2 3 2 3 2 2 4 8 7 9 5
26 27 46 40 34 31 27 25 22 19 26 4 3 3 2 2 2 9 4 6 9 4 1 4 4 1 4 3 6 2 5 6 4 6 2 3 2 3 3 7 6 6 7 9 10 13 12
41 40 44 39 34 30 27 25 22 25 30 6 2 0 1 4 5 5 6 8 9 7 1 5 3 3 6 4 6 6 5 5 5 4 6 3 3 1 2 2 5 6 14 14 9 8 8
11 34 44 40 34 30 27 25 22 25 24 2 5 3 2 3 4 3 3 6 7 3 3 4 4 5 3 3 5 5 3 2 2 2 4 2 2 1 2 1 3 6 2 4 2 6 11
25 24 38 37 34 29 26 23 20 24 23 6 6 1 2 4 5 4 6 5 6 3 2 3 5 4 4 3 2 3 3 3 4 3 4 1 3 1 1 3 8 6 4 1 2 5 6
32 40 40 37 33 29 25 21 17 24 29 10 9 4 2 5 2 4 6 5 4 5 3 3 2 3 3 2 2 2 3 1 4 4 4 2 2 2 3 1 3 2 3 3 2 4 5
36 45 40 37 34 30 25 22 18 20 23 15 7 5 0 4 4 5 3 1 3 2 3 4 2 1 1 2 2 1 0 2 2 3 3 2 2 5 5 3 7 1 6 1 2 2 2
45 46 41 37 34 33 28 24 21 20 21 11 7 5 3 3 4 5 4 3 1 2 1 2 2 2 1 1 2 3 1 2 3 4 2 5 4 4 4 4 6 3 4 3 2 1 2
22 38 43 40 38 34 31 26 22 21 18 14 5 12 13 5 4 13 13 9 8 7 2 1 3 3 3 1 1 1 2 1 1 2 4 1 3 2 2 1 3 6 6 5 5 3 5

GFSGBSN_925_spd_087.txt.gz
Wind_Speed
24 20 21 20 18 17 15 13 14 14 13 14 15 15 14 12 13 11 13 13 11 9 9 8 7 7 4 2 4 3 8 9 9 15 16 8 13 7 10 10 7 11 8 12 6 7 1
31 25 24 23 23 19 16 14 14 14 14 14 14 15 16 12 13 13 12 12 11 11 8 6 7 8 1 3 2 8 6 4 8 8 13 10 7 7 8 6 12 12 13 13 11 7 1
34 33 25 24 25 20 18 16 15 14 14 13 14 14 15 13 14 14 11 11 11 10 7 7 6 6 4 9 7 8 9 3 7 3 2 5 10 4 5 8 8 8 12 4 10 9 4
38 33 33 23 29 23 20 16 15 14 13 14 13 13 14 12 15 12 14 11 11 10 9 7 6 5 5 4 2 8 9 2 5 5 3 9 9 2 4 7 4 13 7 10 8 12 2
40 37 33 30 18 25 21 17 15 14 13 12 12 13 13 13 12 12 12 11 9 7 6 3 4 3 4 3 3 7 6 5 4 4 3 10 1 2 4 2 5 7 9 5 9 14 6
34 39 34 30 25 25 23 18 14 14 12 11 11 12 13 12 14 11 9 8 4 4 3 3 7 4 5 1 6 7 4 3 2 2 2 6 3 3 3 1 10 9 8 6 7 11 11
38 35 36 32 32 24 25 18 14 13 11 10 10 12 12 11 10 7 7 3 2 2 4 1 3 4 4 9 7 3 8 6 3 2 2 3 3 6 8 5 10 7 13 16 5 11 11
42 38 37 32 31 23 26 19 15 13 11 9 9 10 10 9 7 3 4 2 3 1 1 2 3 5 2 3 3 7 13 3 1 2 3 4 2 4 5 11 9 13 9 8 6 15 8
45 41 35 35 30 29 28 20 16 13 10 8 8 8 8 5 3 3 7 3 1 2 1 1 2 3 1 3 4 6 9 7 3 3 2 3 4 4 8 5 7 2 8 5 9 6 6
43 43 39 35 28 28 28 21 16 13 10 7 6 6 5 2 2 3 3 3 2 2 3 5 2 1 1 10 3 4 4 2 2 3 3 3 5 6 6 3 5 6 9 11 8 7 2
43 41 38 35 27 28 30 23 16 14 10 7 5 5 4 9 1 1 3 3 3 1 5 5 4 1 2 3 1 5 3 4 7 5 4 6 9 8 9 2 6 2 15 17 11 5 7
44 43 35 34 26 28 34 24 16 14 9 8 7 5 7 9 4 2 4 3 0 4 2 5 3 4 3 4 2 3 2 2 3 4 9 7 4 4 2 4 6 5 5 9 4 2 2
41 40 42 33 27 27 33 24 17 15 10 8 6 14 14 5 4 7 5 1 3 6 4 2 3 4 4 4 3 4 1 2 1 5 6 1 3 4 1 4 9 3 4 2 3 3 4
50 50 38 32 27 29 36 25 19 16 12 7 16 16 6 7 10 5 1 3 7 3 2 2 3 3 3 4 1 5 3 2 3 4 4 5 6 8 8 4 4 7 2 4 5 3 3
43 35 39 36 27 36 34 26 22 18 14 19 21 12 6 8 8 4 2 4 6 5 5 6 2 1 1 2 2 1 2 2 1 2 4 4 3 5 3 3 3 4 3 4 4 3 4
27 28 34 30 28 38 32 27 24 22 22 26 16 9 4 7 5 3 3 3 2 5 6 3 2 5 1 2 1 1 2 3 2 3 4 3 4 4 4 4 2 2 3 4 3 2 3
37 24 30 36 34 41 33 28 26 25 28 23 11 3 3 7 3 1 2 4 3 3 3 3 2 3 3 3 3 1 2 3 2 2 2 2 4 2 2 2 2 4 3 2 2 4 3
31 25 35 33 40 40 34 30 29 28 32 21 8 3 4 7 2 1 1 4 3 5 2 1 2 3 5 4 2 1 3 2 2 1 2 2 4 3 1 2 1 0 1 1 3 3 1
33 26 16 39 42 39 34 34 32 32 38 14 4 3 2 2 3 3 3 3 1 5 5 4 3 0 3 1 3 3 5 3 1 3 2 2 1 3 3 5 3 3 4 3 2 3 2
34 25 17 43 46 41 36 36 34 35 35 12 4 4 2 2 2 2 5 4 3 1 3 1 2 2 1 1 2 3 3 2 3 1 2 2 2 5 5 4 4 4 5 5 4 3 4
36 26 28 39 44 39 36 37 34 35 32 7 2 4 5 5 4 5 2 7 5 4 1 3 1 1 0 3 3 4 4 2 1 2 4 3 2 4 2 3 3 2 3 6 6 7 5
33 19 16 14 44 40 36 36 32 36 30 4 4 4 3 4 4 7 3 5 7 3 4 4 2 2 5 4 2 3 4 3 3 0 1 2 3 4 4 4 4 3 6 7 7 6 8
30 23 26 19 36 39 38 36 35 39 29 5 3 3 4 1 5 5 4 5 8 7 3 3 3 4 5 3 2 2 3 0 3 6 2 3 3 2 4 3 4 6 7 9 4 6 6
24 11 19 23 38 34 36 35 35 37 27 5 5 5 3 3 3 5 5 4 7 4 4 3 6 3 1 2 2 2 1 2 3 5 3 3 5 4 3 2 0 6 0 1 7 7 8
23 16 23 15 36 34 34 33 33 32 22 8 7 4 3 4 4 4 7 7 7 4 3 4 3 2 1 2 3 3 3 2 0 3 4 2 2 1 2 2 6 2 2 1 2 5 4
22 19 22 23 33 31 30 32 29 29 22 12 9 4 2 6 1 3 5 5 4 3 2 3 2 1 2 2 2 3 4 4 2 1 3 1 5 3 2 1 3 2 3 1 2 4 4
19 13 19 38 34 32 29 29 27 29 30 15 6 5 5 4 3 3 4 4 3 3 4 3 3 2 2 2 2 2 1 2 3 5 4 1 1 4 2 2 6 5 2 2 1 5 3
17 30 20 38 36 31 27 25 23 30 30 16 7 5 4 3 4 5 4 3 3 3 4 2 3 2 2 2 2 2 2 3 1 2 4 5 4 3 2 1 5 3 2 1 4 3 4
19 8 36 40 36 32 27 24 23 26 26 16 7 12 16 6 3 19 17 13 8 3 4 2 3 2 1 3 2 2 1 2 2 2 4 0 5 3 6 4 4 4 6 3 3 6 6

GFSGBSN_925_spd_090.txt.gz
Wind_Speed
34 32 31 32 33 29 26 19 15 14 11 11 10 10 13 13 12 13 11 12 12 10 6 6 7 9 3 2 5 1 8 9 7 10 7 14 8 7 9 6 8 15 13 13 9 3 2
30 37 35 32 33 36 31 23 17 15 13 10 10 10 11 12 12 14 12 10 11 9 7 5 6 7 1 3 1 5 10 8 8 9 5 12 6 12 6 4 14 7 14 15 7 2 2
31 28 36 37 34 32 36 27 20 16 14 10 9 9 11 11 11 13 11 12 10 9 8 6 5 5 2 7 4 7 8 3 6 7 2 8 3 7 10 6 6 6 12 12 11 5 2
34 34 32 32 37 34 28 30 24 17 14 11 9 8 9 9 12 12 13 11 9 8 9 6 4 4 5 7 3 4 6 3 4 1 3 3 3 6 6 3 1 14 8 8 13 15 2
35 36 36 36 33 35 29 30 28 19 14 10 9 9 7 8 11 12 12 9 7 6 4 3 3 3 6 6 2 10 5 5 6 1 3 6 3 3 6 3 6 10 8 9 6 14 6
36 35 38 38 38 33 31 28 30 20 15 10 9 8 6 8 9 10 8 7 3 3 1 2 6 3 4 2 4 8 5 7 4 4 2 3 3 1 2 2 11 8 9 9 8 5 13
38 38 41 38 40 36 31 27 30 22 15 11 10 7 6 6 7 7 7 1 3 2 1 3 3 4 4 9 6 1 7 6 3 1 3 2 3 5 7 8 1 11 13 10 11 10 5
41 44 41 42 41 34 34 28 33 22 16 13 9 7 5 4 4 3 3 2 3 1 2 6 5 4 4 4 3 2 14 3 1 3 3 3 2 8 5 8 4 8 14 7 11 15 5
41 43 41 43 43 36 35 27 33 22 17 13 10 8 5 3 3 5 6 3 2 2 2 1 1 2 1 4 3 4 4 4 2 2 2 1 3 10 5 4 4 5 13 11 9 7 6
44 43 44 46 44 41 37 26 32 23 18 15 11 9 6 6 4 6 4 6 4 2 4 8 3 2 1 2 3 4 2 3 1 2 2 4 4 9 9 2 4 6 7 13 15 7 2
44 47 45 47 41 44 38 29 32 23 18 15 12 11 10 12 5 4 6 5 5 2 5 5 6 1 2 1 4 1 3 2 4 5 4 1 9 9 4 4 3 4 10 11 17 9 5
42 44 42 45 44 43 40 32 33 25 21 17 14 12 14 10 5 4 6 7 3 5 1 5 3 4 1 3 1 4 1 1 2 4 11 7 2 4 4 4 4 7 10 11 9 3 1
40 45 45 41 52 49 46 37 35 26 22 18 15 16 18 11 5 10 10 4 4 5 2 4 3 3 3 3 2 2 4 4 3 5 8 6 6 6 5 6 10 12 6 3 2 2 3
40 42 47 46 64 39 38 42 36 29 23 19 18 23 12 7 13 12 6 4 6 3 4 1 3 5 1 3 2 2 3 4 5 5 3 3 4 6 7 4 4 4 4 3 4 4 3
37 44 48 59 52 30 33 43 37 31 26 23 29 17 10 12 12 10 3 4 7 6 6 6 1 2 4 1 2 3 2 2 2 4 5 4 5 4 3 3 2 3 4 3 6 4 4
37 45 54 57 47 28 37 41 37 33 32 38 20 10 6 12 11 6 3 3 3 5 6 4 4 4 1 1 2 3 2 3 3 4 2 3 4 2 3 0 1 2 2 3 4 3 2
37 46 51 56 32 24 47 44 38 36 43 31 17 4 7 11 8 2 3 5 4 4 5 6 3 3 3 3 2 2 3 5 5 6 6 3 4 4 4 4 2 4 3 4 3 3 4
41 46 59 27 27 23 50 46 41 41 44 25 7 4 7 11 2 2 3 5 4 5 2 2 2 2 5 4 2 4 3 3 2 1 4 3 3 3 1 3 1 1 2 3 4 3 1
40 42 52 29 25 46 51 47 44 49 43 17 4 3 2 2 4 3 4 4 3 4 5 5 3 3 0 2 4 4 3 2 4 5 2 1 2 3 7 5 4 2 1 3 4 3 2
37 42 45 40 25 53 52 47 47 51 37 11 4 5 2 1 1 3 4 4 4 3 3 3 2 3 3 2 4 4 2 0 2 2 2 3 3 5 5 5 2 2 2 3 4 3 3
32 38 42 41 29 51 48 46 47 52 31 7 2 4 4 7 5 4 2 6 6 5 1 3 1 2 2 2 3 4 3 3 2 3 2 3 3 2 3 3 4 3 3 3 5 5 4
28 30 32 23 18 43 43 43 44 51 28 4 4 4 2 4 4 7 4 7 7 4 5 3 4 4 4 4 2 4 5 2 4 1 2 2 1 2 3 3 4 3 5 6 6 3 7
27 30 29 24 3 28 37 39 40 47 21 3 2 3 4 4 5 5 4 7 7 8 3 4 6 6 5 5 4 3 1 2 4 6 2 2 3 2 3 4 5 5 5 4 2 3 4
24 24 28 30 22 34 30 32 32 45 22 3 3 4 4 3 4 5 6 2 9 4 6 3 3 5 4 3 4 3 2 5 5 4 2 4 3 2 1 4 2 5 4 3 5 6 5
21 20 20 20 29 33 33 31 32 36 19 1 3 2 3 3 2 2 6 6 6 7 4 4 3 1 3 3 4 4 4 3 2 4 5 2 4 2 2 2 5 1 2 1 1 5 1
22 19 17 11 11 27 29 30 26 32 20 2 4 4 4 5 1 2 4 4 4 4 3 3 3 1 2 3 3 3 4 4 3 1 4 4 5 3 2 2 4 5 3 2 2 4 4
22 20 12 10 19 28 29 30 21 24 23 6 3 6 6 4 4 3 3 4 3 4 4 3 2 1 2 2 2 2 3 5 4 4 3 2 2 4 2 2 6 5 4 2 1 5 2
21 20 17 10 26 28 27 23 19 21 25 9 4 4 4 3 3 5 4 3 3 3 4 3 3 3 2 2 3 3 2 3 2 4 5 5 5 3 2 2 5 1 1 3 3 5 5
21 24 15 24 29 28 24 22 18 19 24 11 4 13 17 6 3 14 19 14 6 1 5 3 3 2 2 4 1 2 1 1 3 2 3 1 4 3 6 4 1 3 1 1 3 3 5

GFSGBSN_925_spd_093.txt.gz
Wind_Speed
27 25 26 31 31 35 35 31 34 27 18 16 15 11 12 9 10 9 10 10 10 11 9 5 4 7 2 1 6 2 5 6 5 4 5 4 6 6 10 4 7 12 6 19 19 10 4
31 29 30 31 30 30 33 35 30 32 20 16 15 13 12 10 9 8 10 10 9 9 7 3 3 5 1 3 2 3 6 6 4 3 6 5 6 9 4 5 11 6 15 10 20 16 2
31 31 33 33 33 34 36 33 32 31 22 17 14 14 11 10 8 7 9 8 10 8 7 4 3 3 1 9 4 7 3 3 4 2 4 2 6 6 7 4 12 17 5 10 17 17 2
29 31 34 35 36 38 37 35 36 27 27 18 15 13 11 8 6 7 7 9 6 6 6 5 2 2 5 5 7 6 4 4 3 3 2 6 2 3 3 7 4 10 6 11 15 16 9
31 32 33 34 36 38 37 38 38 27 29 18 15 13 12 8 6 5 8 5 5 3 3 3 2 3 6 6 6 6 5 4 3 3 3 6 4 4 6 8 8 7 5 12 6 19 7
32 32 34 35 37 36 38 38 38 35 31 21 16 15 11 9 5 4 6 3 1 3 2 3 3 2 5 2 6 8 4 4 7 2 3 3 3 4 1 9 9 12 4 6 7 10 16
36 36 35 36 38 38 38 39 39 35 29 20 16 14 10 9 4 3 4 3 3 1 1 4 4 3 5 6 7 0 2 6 3 3 2 3 3 6 5 4 3 13 5 10 4 11 10
37 38 38 38 36 40 37 41 38 36 30 21 18 14 11 8 4 4 6 2 2 1 1 7 6 4 6 1 3 1 8 1 2 2 2 3 2 7 7 2 3 12 9 12 14 16 6
37 40 40 39 40 40 38 38 33 39 30 24 19 15 12 8 8 7 6 4 2 1 2 3 4 3 2 1 3 3 3 5 3 3 4 3 6 9 5 3 8 4 13 8 14 7 5
39 40 39 39 39 38 39 41 36 36 31 25 19 16 14 12 8 10 3 6 3 2 4 5 1 2 2 2 3 2 2 3 2 1 4 3 7 9 5 7 8 4 4 17 19 4 3
37 39 41 40 38 40 41 36 38 41 30 28 22 19 16 17 14 8 5 9 6 4 5 2 3 2 3 3 4 2 2 3 5 4 4 2 8 6 6 3 1 3 14 14 13 7 3
38 39 40 37 38 37 40 37 39 40 29 30 23 22 20 12 8 9 12 11 5 5 3 4 2 2 2 2 2 3 3 3 4 3 10 5 1 4 4 3 7 9 18 13 6 3 1
37 38 37 38 35 37 35 40 34 33 33 29 24 22 24 13 8 17 15 4 4 4 2 2 0 3 4 3 4 2 2 2 3 3 6 7 6 5 4 8 11 14 5 3 2 1 3
38 37 37 31 37 38 41 45 46 47 37 30 27 23 18 8 19 19 8 4 4 2 4 1 3 5 2 3 2 3 2 5 6 6 4 5 5 9 9 3 4 3 1 3 4 4 2
38 36 33 31 41 45 49 47 51 33 38 33 31 22 13 15 20 17 4 3 7 6 6 7 3 1 3 2 2 4 3 3 4 5 4 3 4 5 7 4 3 3 5 0 5 2 4
36 33 32 36 40 48 58 40 23 45 41 41 25 12 7 16 17 7 4 4 2 3 5 4 5 3 1 1 2 4 5 3 3 2 2 2 5 4 4 3 5 2 3 1 2 3 1
34 33 34 38 41 52 24 16 47 44 45 33 24 4 8 15 13 3 3 5 5 4 3 5 5 4 4 2 1 2 4 4 4 5 4 3 4 3 2 4 3 4 3 5 4 3 3
32 35 36 40 45 41 34 20 52 49 50 27 6 4 11 15 3 2 3 5 3 3 1 2 4 3 5 3 3 3 2 2 5 2 3 1 4 3 1 3 1 0 3 3 4 2 2
29 34 40 43 49 51 29 59 54 56 47 15 4 4 4 2 3 2 3 3 2 3 3 3 3 4 2 4 4 2 2 4 5 5 2 1 2 3 6 5 5 3 2 4 4 3 2
27 31 35 43 47 37 35 54 56 59 36 7 4 4 2 1 1 3 3 4 4 3 3 3 3 2 3 4 5 3 2 1 3 3 4 3 3 4 5 3 3 2 0 1 4 3 2
27 31 36 40 46 13 56 54 58 54 28 2 3 3 4 6 7 4 1 5 5 4 1 3 2 3 4 3 3 3 2 1 3 5 3 3 3 3 2 1 2 1 2 4 4 4 4
25 29 35 40 44 45 48 50 54 46 19 4 4 4 3 2 6 6 1 6 5 3 3 3 5 3 4 4 4 5 5 1 1 4 3 3 1 2 4 6 1 2 4 4 4 4 6
22 28 32 31 16 27 38 45 52 35 12 4 2 3 4 4 5 6 5 6 7 6 5 3 7 5 5 4 4 4 3 2 2 4 2 3 3 2 2 4 4 3 2 3 2 2 3
19 24 27 29 17 27 30 35 40 28 9 3 2 4 3 2 4 5 7 4 8 3 6 3 3 5 3 4 4 4 7 7 7 6 2 3 3 2 1 4 2 5 3 4 5 4 5
18 21 21 24 13 32 32 33 29 26 5 5 4 2 3 3 2 3 6 6 7 5 5 4 4 1 4 5 4 4 4 3 3 5 5 2 3 3 2 1 5 1 1 1 2 5 3
18 20 19 16 6 27 33 31 27 26 8 7 13 6 4 5 1 3 5 4 5 4 3 3 3 1 4 3 3 3 4 4 2 1 3 4 5 3 1 2 3 4 2 2 2 4 3
19 19 16 11 5 27 28 28 27 19 16 5 8 11 6 4 3 3 3 4 3 4 4 2 2 2 3 2 2 2 3 3 3 5 4 2 3 3 2 2 6 4 4 0 1 4 7
22 20 14 7 15 23 27 24 21 20 20 1 6 10 3 3 3 4 4 3 2 2 4 3 3 2 2 2 3 3 2 4 2 3 4 5 5 3 2 2 6 3 2 0 3 4 4
26 26 16 18 17 27 28 26 18 21 18 9 4 15 15 6 3 9 16 14 6 1 4 3 2 2 3 4 1 2 1 1 3 2 1 1 4 4 6 4 2 2 3 3 2 4 5

GFSGBSN_925_spd_096.txt.gz
Wind_Speed
27 28 29 29 30 30 33 32 32 32 34 29 21 17 15 13 12 11 9 8 7 8 8 4 4 5 1 1 6 3 2 4 5 3 4 3 4 3 6 5 5 9 11 5 14 5 6
26 27 29 31 32 31 32 33 36 33 34 30 22 17 15 12 12 12 8 8 5 8 5 3 3 4 1 2 2 3 3 5 5 6 5 3 4 7 6 7 6 5 14 12 7 11 5
27 26 28 30 31 33 34 34 38 36 35 28 26 17 14 11 11 12 8 7 7 6 5 5 2 2 1 9 2 4 4 5 7 7 3 9 16 12 7 4 7 9 4 11 13 9 7
27 27 27 28 31 32 34 36 37 37 38 35 25 18 16 12 11 10 8 8 4 3 3 5 2 1 5 4 5 5 5 7 8 6 6 6 4 10 7 2 3 8 6 3 10 11 6
29 29 28 28 29 31 33 34 38 37 38 29 27 20 16 11 10 8 7 6 3 1 2 2 2 2 7 6 4 6 8 6 7 6 4 2 2 3 4 2 4 7 4 6 5 13 7
31 31 30 31 32 32 31 35 35 38 34 33 25 20 16 9 10 8 8 4 2 3 3 3 1 0 5 1 3 4 7 8 5 2 3 5 1 4 3 5 8 7 7 6 6 8 12
30 31 31 33 34 34 33 32 34 35 36 25 20 19 16 10 9 8 8 4 3 3 3 5 4 3 3 3 6 2 2 6 2 2 4 3 3 6 15 12 9 5 4 7 3 12 6
33 32 31 33 34 35 35 33 32 32 38 29 22 22 15 12 11 10 10 3 3 3 2 7 4 4 8 2 2 2 5 2 3 5 5 4 6 7 8 9 11 11 9 10 14 13 5
33 33 33 34 33 34 35 34 32 34 30 27 17 23 16 13 11 10 9 4 4 3 2 3 4 3 3 3 2 2 2 4 4 7 9 6 2 11 7 7 10 5 13 9 9 10 4
34 33 33 35 36 34 34 34 33 31 29 28 18 22 17 17 9 9 4 9 5 4 4 3 2 3 2 3 1 3 6 5 2 4 4 5 4 6 7 5 9 6 9 13 18 9 4
35 36 35 39 38 35 32 32 32 32 27 27 17 23 22 20 9 8 7 12 8 4 3 3 1 2 1 2 2 4 4 6 4 4 5 1 5 6 2 3 8 3 13 12 10 5 5
38 38 35 31 34 30 35 32 31 28 27 24 18 24 23 18 8 7 18 15 5 6 4 2 2 2 4 3 3 3 4 4 3 5 2 4 2 3 3 3 8 12 15 7 3 2 3
40 38 37 36 32 30 24 30 29 28 26 22 27 25 24 15 6 20 20 4 5 4 3 2 2 3 3 3 2 1 3 4 2 2 6 7 14 3 5 10 7 7 5 3 3 3 2
40 39 35 34 31 27 28 31 29 35 30 29 29 25 22 12 20 24 10 4 4 2 4 1 2 3 3 3 3 3 3 4 3 3 3 5 5 10 12 5 4 4 3 3 4 3 2
40 37 33 31 28 28 29 33 35 36 36 22 31 22 14 12 24 20 4 3 6 5 5 6 3 2 4 2 0 4 5 3 3 5 4 4 5 4 5 2 2 4 4 2 6 4 4
40 34 29 28 29 31 33 41 39 38 23 45 22 13 7 23 18 7 4 3 2 3 4 2 3 2 1 3 5 3 5 3 6 4 0 2 5 4 5 3 4 3 1 2 3 4 2
33 27 26 28 32 34 39 40 41 16 53 39 23 5 11 19 12 3 3 4 3 3 2 3 4 3 4 1 1 2 3 3 5 7 4 2 3 2 2 4 3 5 3 4 5 4 3
29 26 27 30 34 40 42 41 16 56 46 28 5 4 15 18 3 1 3 4 4 4 2 0 2 2 4 2 4 3 2 1 6 4 4 4 4 4 2 4 2 2 2 3 4 1 2
26 27 29 34 38 41 37 4 56 57 41 17 3 3 5 2 4 3 3 3 3 3 3 2 1 2 3 2 3 3 2 3 6 5 2 1 3 3 6 5 4 4 3 3 5 4 1
27 28 33 38 47 48 15 57 58 54 25 10 4 4 2 2 2 4 4 4 4 2 4 2 1 1 3 3 5 3 2 3 5 3 7 4 3 3 5 3 2 2 3 3 4 3 3
26 28 33 41 51 11 41 59 56 38 23 8 2 3 3 7 7 4 2 4 5 4 1 1 0 2 4 3 2 3 2 4 4 7 4 4 4 3 3 1 3 2 3 2 2 2 4
24 27 34 41 25 43 50 56 51 29 14 9 4 4 2 1 8 5 1 4 5 3 4 3 3 2 2 4 3 5 4 1 0 5 3 3 1 2 5 7 5 1 1 2 3 3 4
24 29 35 40 12 36 48 50 35 20 11 4 2 1 4 7 5 5 4 6 7 7 3 1 6 4 4 2 4 5 3 6 3 2 2 3 3 3 3 4 3 3 1 0 2 1 1
24 29 34 37 23 31 32 47 16 19 15 3 3 3 4 3 4 4 7 3 7 3 6 2 3 4 3 4 4 3 7 8 8 7 3 3 3 2 1 4 3 5 3 4 4 4 3
25 28 29 30 19 24 35 43 16 12 17 16 7 3 3 4 3 1 6 6 7 6 4 4 4 1 3 4 4 4 5 4 5 6 6 4 3 3 2 1 4 1 2 2 3 3 7
23 26 24 17 17 22 34 37 13 14 12 10 22 7 3 5 1 4 4 3 5 3 3 3 3 2 4 3 3 2 2 2 1 2 4 4 6 4 1 2 2 4 1 0 2 1 6
25 25 21 16 5 25 27 33 12 15 7 13 13 15 6 4 3 4 3 4 3 4 4 2 1 2 3 2 2 2 2 3 2 3 2 2 3 3 2 2 6 3 5 1 2 3 5
25 29 22 12 15 22 24 27 18 8 12 8 11 15 4 3 3 4 5 3 3 2 4 3 3 2 2 3 2 3 2 4 2 3 4 5 4 2 2 1 5 2 1 1 1 3 5
27 30 13 6 14 22 22 21 18 15 11 4 5 10 14 6 3 4 13 15 4 2 4 3 2 2 3 4 1 3 2 1 3 2 2 2 5 4 7 4 2 1 5 4 2 3 3

GFSGBSN_925_spd_099.txt.gz
Wind_Speed
21 23 24 23 23 25 25 26 27 29 31 29 27 21 21 17 13 12 9 9 9 9 6 7 3 2 1 1 6 5 5 2 2 2 5 3 2 2 5 3 5 10 10 8 10 13 14
22 22 22 23 23 24 25 26 27 28 29 31 33 31 25 19 15 11 9 7 8 7 6 4 3 2 3 2 2 6 3 2 2 4 4 6 6 5 6 8 8 4 14 16 14 10 9
25 23 23 23 24 22 24 25 26 27 27 29 28 29 25 17 13 9 7 6 7 9 7 5 5 3 2 8 3 4 4 4 5 5 3 9 6 3 4 7 13 14 6 7 15 13 3
26 28 27 25 23 23 25 25 25 27 28 27 26 22 18 17 10 9 6 6 7 7 5 5 6 4 4 2 4 6 6 6 7 7 8 8 7 6 11 7 4 13 7 8 13 12 4
28 26 26 26 26 27 25 24 24 25 27 28 27 28 17 17 10 7 6 4 5 4 2 6 5 3 6 4 4 5 9 5 5 5 5 3 4 5 6 4 7 9 5 9 6 16 5
28 27 27 26 27 26 26 26 25 25 26 27 30 30 17 18 9 8 5 2 2 3 5 5 3 1 5 2 2 2 4 5 4 1 2 4 3 3 4 4 9 7 8 7 6 12 7
31 30 29 27 27 28 27 26 27 25 26 27 28 29 18 17 12 9 8 5 2 2 4 6 4 3 3 1 5 2 1 0 3 3 6 5 4 6 11 11 2 2 9 11 4 11 8
32 32 31 29 28 27 27 26 25 25 24 24 24 27 20 16 14 11 11 3 4 1 2 8 3 4 6 2 1 2 1 3 4 8 2 4 8 8 11 10 9 2 10 6 9 11 4
33 32 31 31 29 29 28 25 23 23 21 21 21 29 22 17 14 13 13 10 4 2 3 2 3 3 2 4 3 4 4 2 5 7 9 10 4 10 8 9 10 7 12 7 13 10 8
34 32 32 32 31 30 25 24 21 20 20 21 18 22 18 17 10 6 6 18 6 3 4 3 2 4 3 3 3 3 5 3 2 4 6 6 5 8 10 7 10 9 7 14 16 6 5
35 36 33 31 31 30 27 24 22 20 17 20 15 18 20 18 10 7 4 14 9 2 3 3 2 2 2 2 5 3 4 5 5 5 3 5 5 3 5 7 13 3 9 16 8 9 10
38 37 34 33 31 28 26 22 19 14 18 15 17 25 26 14 6 6 16 15 3 6 4 2 1 2 1 3 3 2 3 4 6 0 3 3 2 1 2 1 4 10 7 5 3 0 4
40 36 36 32 30 26 24 20 20 17 16 15 16 8 28 16 7 17 18 2 4 4 3 2 2 1 1 3 2 2 3 2 4 4 5 3 3 3 2 7 3 5 4 2 4 4 2
40 36 34 31 27 23 21 19 16 17 16 14 13 17 19 11 14 22 7 4 4 2 4 1 1 2 2 4 2 2 1 6 4 4 4 5 5 8 7 3 3 3 2 3 5 4 3
39 34 30 27 23 19 18 16 16 18 20 13 13 18 16 9 22 18 4 2 6 5 5 6 3 4 3 1 1 4 5 5 3 5 4 2 5 3 5 4 3 6 4 1 6 2 3
34 32 29 24 21 21 20 20 25 24 19 15 10 10 7 14 21 8 4 3 2 3 2 2 4 1 2 5 4 3 5 4 6 5 2 2 4 3 3 2 5 1 0 1 3 4 4
32 28 25 25 25 26 29 27 30 28 29 17 18 4 8 20 12 4 2 4 3 2 1 1 3 4 1 1 2 3 4 3 4 6 5 2 3 2 2 4 2 3 2 5 4 2 4
29 29 28 28 27 31 33 39 40 16 25 39 6 3 16 16 3 2 2 4 3 2 3 1 4 3 3 1 3 3 2 2 7 2 3 3 3 4 1 4 3 2 3 3 3 3 4
29 30 32 33 35 39 34 30 47 59 40 21 3 3 6 1 3 4 3 2 2 3 1 2 2 1 1 2 3 2 1 2 6 4 2 1 3 3 6 3 2 5 4 4 4 2 2
31 34 38 44 47 28 4 55 53 39 33 15 4 4 2 1 2 4 4 3 3 2 2 3 3 3 3 4 5 2 2 3 5 3 8 4 4 3 4 2 1 4 4 3 3 3 2
35 37 46 50 19 30 60 51 33 29 24 11 3 2 3 6 4 3 1 4 5 3 2 3 3 2 2 2 2 2 1 3 3 7 4 4 4 3 4 3 3 3 4 3 4 2 3
39 46 50 27 27 61 53 34 26 17 12 11 3 4 2 2 9 4 1 3 4 2 3 1 5 3 2 3 1 5 3 0 1 5 4 4 1 2 4 5 5 2 2 3 3 2 0
39 46 31 28 42 42 32 31 21 16 8 5 2 3 4 6 10 3 5 4 6 5 4 3 5 5 5 2 2 3 4 5 3 2 3 3 3 3 2 4 3 4 2 1 1 2 2
34 36 25 22 30 31 28 26 25 21 16 7 4 4 4 3 7 7 4 2 5 2 6 2 4 4 2 5 3 3 7 8 9 7 3 3 3 2 1 3 3 4 3 2 4 5 6
30 28 27 16 21 29 18 23 24 21 22 22 5 2 3 5 4 1 3 5 4 5 5 4 4 1 3 3 3 4 5 4 6 5 7 4 3 3 3 1 3 1 2 1 2 1 4
28 27 25 17 17 33 20 18 13 9 21 16 22 4 3 6 1 2 2 1 4 3 3 3 3 1 4 3 3 2 2 1 2 3 3 4 5 4 1 2 2 4 2 1 2 3 0
27 28 21 12 20 27 31 12 15 5 4 17 16 10 6 4 2 2 2 2 2 4 4 2 1 1 2 2 2 2 2 1 2 4 2 2 3 3 2 1 5 4 3 1 2 2 1
30 30 16 6 17 24 33 24 7 4 2 7 11 20 4 3 2 2 3 2 2 2 4 3 3 3 2 3 2 3 2 4 1 3 4 5 5 3 2 2 5 4 1 5 2 1 1
28 27 16 5 13 19 23 26 14 7 2 3 6 12 12 5 3 4 9 12 3 1 4 3 2 2 3 4 1 2 2 1 3 2 1 2 5 4 7 5 2 1 3 4 3 2 1

GFSGBSN_925_spd_102.txt.gz
Wind_Speed
22 21 21 20 20 20 20 21 22 23 24 24 23 23 19 19 21 13 8 5 3 7 5 6 4 4 1 4 6 7 6 6 5 2 4 4 5 4 8 6 7 16 20 16 12 15 19
23 22 22 23 22 21 18 21 22 23 23 24 23 23 20 15 20 14 6 5 5 4 3 5 5 4 4 7 2 7 7 5 4 4 4 5 3 4 8 11 12 9 16 21 14 14 14
24 22 23 20 19 20 19 19 20 22 22 24 24 24 25 16 21 13 6 7 3 3 7 7 8 4 6 9 3 7 6 5 6 6 6 8 7 7 2 9 15 17 18 15 16 19 15
25 24 24 23 22 20 19 18 19 21 22 23 22 23 19 24 16 13 9 8 2 4 5 8 8 3 6 3 5 8 7 6 5 6 5 3 6 9 6 7 8 13 17 17 17 15 12
27 26 24 22 22 21 20 19 18 19 21 22 23 23 25 22 22 15 11 6 5 3 2 6 5 4 5 2 6 6 8 8 5 5 5 4 7 5 3 7 7 12 12 19 16 18 12
28 26 24 24 22 22 21 20 20 18 20 19 22 22 30 27 22 18 13 11 8 4 5 3 1 3 5 3 3 3 4 6 7 4 5 6 4 4 4 6 8 10 17 16 17 20 17
30 29 27 24 25 23 22 22 19 19 16 18 19 17 14 23 25 21 21 13 7 2 6 7 3 2 2 2 1 4 4 5 6 5 9 5 5 10 11 16 6 2 12 14 15 19 17
31 30 27 27 25 25 24 23 19 19 14 13 16 15 19 18 19 19 18 5 5 3 3 14 5 7 6 1 4 7 6 4 5 9 7 5 10 13 13 14 13 2 13 15 9 19 11
33 32 29 29 28 25 26 21 18 16 12 13 13 19 26 23 21 16 10 10 4 4 3 4 4 5 1 6 3 4 5 0 6 9 12 11 5 9 8 7 8 8 12 12 11 14 5
35 32 31 30 29 25 24 21 18 15 13 12 11 11 27 25 12 11 4 16 3 3 1 5 3 1 4 3 3 4 6 4 3 5 5 7 5 6 8 11 9 9 15 10 16 15 5
37 35 32 31 31 26 23 20 15 12 7 7 9 8 21 19 13 7 3 16 8 1 3 4 3 2 1 4 2 4 5 5 4 2 3 2 3 6 5 7 13 3 14 16 19 10 7
39 37 36 32 28 26 22 18 13 8 7 9 6 5 19 11 10 7 12 18 6 2 2 3 2 2 3 3 1 1 4 5 5 1 1 2 2 3 3 7 15 7 8 3 1 3 5
42 34 30 29 24 23 18 11 10 6 6 5 6 10 18 13 6 16 21 7 3 3 1 4 2 3 3 3 2 2 3 4 5 2 3 2 2 2 2 6 8 7 11 3 3 3 4
34 32 28 25 22 19 11 8 7 6 4 4 5 3 21 9 20 24 10 2 3 2 3 2 2 2 4 3 1 3 4 6 6 4 2 3 3 3 1 2 3 4 2 2 5 4 4
33 30 27 22 18 12 6 2 4 5 4 5 3 17 13 12 19 12 6 2 2 2 4 7 3 3 2 2 2 4 5 7 6 9 3 2 4 6 7 4 2 1 3 2 5 3 5
30 26 24 22 17 11 9 2 6 9 7 6 5 10 5 14 16 3 1 2 1 1 2 1 1 2 2 3 1 3 6 5 7 6 4 3 4 6 6 5 3 5 1 1 1 4 5
31 29 28 24 20 17 11 18 12 9 9 9 8 3 6 17 8 2 1 1 2 1 2 2 2 4 2 1 3 3 4 3 6 7 5 3 3 4 3 7 8 4 2 4 1 3 4
36 34 31 27 23 22 20 19 14 11 16 18 4 3 11 13 3 1 1 2 2 2 1 1 2 3 2 1 3 2 3 3 10 4 4 4 3 4 4 2 4 3 5 3 2 4 4
50 52 47 27 27 27 24 20 14 15 32 12 3 3 6 3 2 4 2 1 2 2 1 1 2 1 1 2 1 1 2 3 7 5 4 3 3 2 4 4 2 5 6 4 2 1 3
55 52 34 33 35 33 30 29 35 43 35 11 3 3 2 2 2 4 2 2 3 1 1 1 2 1 2 2 4 3 1 3 5 4 7 1 4 5 3 4 2 2 7 9 5 3 7
56 35 47 52 46 43 41 40 42 38 25 9 3 3 4 4 5 5 2 2 4 2 2 3 2 3 2 2 1 2 1 2 1 5 2 2 4 4 7 6 3 6 7 8 5 3 5
49 35 41 38 35 32 33 30 25 18 11 9 3 4 3 3 8 4 3 4 7 2 1 1 3 3 4 3 3 1 1 0 2 4 3 2 4 2 3 5 4 6 4 3 5 3 5
38 36 23 28 29 28 23 19 15 11 8 5 3 2 3 6 8 5 4 4 6 4 2 3 3 4 8 4 5 6 6 6 4 2 3 2 2 1 2 5 1 5 5 5 3 5 3
31 30 19 16 22 21 22 20 16 11 5 10 4 4 3 5 8 6 4 1 7 1 3 2 3 2 3 6 7 5 7 8 9 10 5 3 3 2 2 1 1 3 3 1 6 5 5
23 25 22 13 17 21 21 20 21 24 15 14 5 2 3 6 8 4 4 3 6 6 4 3 5 3 5 1 1 0 0 1 6 7 9 5 2 3 1 1 1 1 2 3 2 3 3
18 21 16 9 9 16 12 12 15 18 19 22 14 6 3 8 7 1 3 4 4 3 2 3 3 1 1 2 1 1 1 2 1 1 2 2 5 0 1 1 3 3 3 0 1 3 4
19 17 14 8 10 14 14 8 3 7 11 20 16 5 3 4 1 1 1 4 2 3 3 2 2 2 1 1 1 1 0 2 2 1 1 0 1 1 2 2 3 4 4 3 3 3 6
20 15 11 4 8 22 12 6 3 1 5 10 11 13 3 3 2 1 2 1 2 1 4 4 3 2 1 2 2 1 2 1 2 1 2 3 3 3 2 3 3 7 5 5 4 5 4
19 16 7 6 6 13 23 17 5 2 6 8 5 10 12 6 4 2 5 6 2 2 1 1 1 1 1 2 1 2 2 1 2 2 2 3 2 2 5 1 2 6 1 5 5 4 3

GFSGBSN_925_spd_105.txt.gz
Wind_Speed
26 24 22 22 20 21 18 17 17 19 22 21 21 21 20 20 17 21 17 10 8 7 3 3 4 4 1 4 7 7 7 7 7 2 6 7 9 9 12 8 11 17 19 20 19 18 17
26 26 24 23 22 21 20 19 16 16 20 20 22 21 20 21 23 20 19 12 9 5 6 3 5 2 1 6 2 6 7 5 4 5 7 7 6 6 10 12 13 14 16 18 20 20 17
29 27 25 23 23 22 20 18 16 16 16 19 21 21 21 20 25 24 16 14 11 8 5 3 5 4 5 8 1 5 5 6 6 7 7 7 7 7 3 11 10 15 21 20 21 18 20
32 30 28 25 23 20 21 20 17 14 16 17 19 20 22 17 11 19 18 16 9 6 5 8 6 4 4 1 4 5 7 7 6 7 7 5 6 11 11 9 14 16 19 18 22 21 20
34 30 29 27 24 22 19 18 18 17 15 16 17 21 22 23 21 19 19 13 9 6 5 7 7 2 4 2 6 7 9 10 10 7 6 7 6 8 3 7 9 12 14 19 21 20 18
36 33 30 28 24 21 21 20 19 18 14 14 15 20 23 24 23 23 17 16 11 12 10 7 4 3 5 2 4 4 7 9 8 9 9 10 6 5 4 6 11 7 14 18 17 18 20
36 35 33 29 25 22 22 20 19 16 11 12 14 16 17 21 27 24 27 16 6 3 6 5 6 2 1 3 3 6 8 8 11 10 13 9 6 12 15 16 20 16 16 14 16 19 21
37 35 33 30 26 22 22 20 17 13 10 10 12 13 10 7 19 18 17 2 2 3 4 11 2 5 6 2 4 6 6 7 10 12 12 5 15 15 11 15 15 16 13 17 17 14 18
37 35 35 31 28 21 25 21 15 12 8 9 12 13 15 18 19 17 6 1 1 1 2 4 4 4 1 5 5 4 10 3 9 8 10 11 6 3 7 12 12 14 18 17 6 20 19
39 36 35 32 27 27 24 19 12 8 9 10 9 11 16 29 14 9 4 11 3 3 1 5 4 3 4 2 5 6 8 4 3 3 4 7 5 8 11 13 13 14 14 9 17 18 9
34 31 28 26 25 23 17 16 8 5 6 4 4 5 16 14 12 8 2 12 5 4 3 4 4 3 1 6 1 8 6 3 3 2 2 3 2 5 8 10 10 8 14 10 15 8 14
34 31 26 24 21 16 13 8 2 4 6 3 1 6 17 4 7 5 9 12 3 3 3 3 3 3 4 9 4 5 5 2 3 2 4 3 2 3 6 7 10 9 4 7 3 5 5
31 26 23 21 19 14 11 4 9 7 5 1 3 2 9 4 1 12 13 5 2 2 1 4 4 5 5 2 2 1 3 3 2 3 1 2 1 4 6 2 6 3 5 2 1 3 4
31 24 19 16 15 10 11 11 9 10 6 5 2 2 8 5 14 17 6 3 1 3 3 1 3 5 1 2 2 2 3 3 3 3 2 4 3 5 3 4 3 6 5 3 3 2 5
30 27 20 15 11 10 9 10 9 10 6 6 13 15 7 11 17 10 4 0 2 3 2 5 5 4 3 2 2 2 4 5 5 7 4 1 3 5 1 7 6 4 2 4 1 11 5
39 27 14 12 3 8 10 10 5 6 4 8 10 7 7 11 10 3 2 2 2 1 1 2 1 4 2 4 2 3 5 7 4 6 4 3 2 4 7 6 3 2 2 3 1 2 6
60 34 16 14 11 10 11 5 10 12 14 20 7 3 5 10 7 4 0 4 3 1 3 4 4 2 4 4 6 5 6 6 9 6 4 1 3 5 3 7 9 8 6 4 4 3 3
49 38 17 24 17 14 14 11 13 19 19 10 4 3 5 7 1 4 1 3 3 1 1 2 3 5 7 4 5 3 6 7 10 6 5 5 3 3 2 4 2 5 7 6 4 3 4
48 50 35 25 20 19 18 17 22 24 22 10 3 3 5 5 1 2 2 2 3 2 4 4 3 5 4 4 1 3 4 5 8 8 5 6 3 1 3 4 4 4 10 9 3 4 5
37 41 43 25 22 24 25 19 25 28 26 9 4 3 1 2 3 0 3 1 2 1 2 3 3 2 2 4 4 3 2 4 6 6 4 5 5 5 5 5 5 7 12 13 5 5 12
32 32 34 36 28 22 31 33 29 29 20 3 1 3 4 4 3 4 0 1 4 1 1 3 2 4 5 2 2 4 4 2 2 2 2 3 4 5 8 6 5 7 10 13 11 6 9
34 24 25 27 26 29 31 30 32 30 11 4 1 3 4 4 5 6 4 5 6 2 3 2 2 4 6 5 5 4 5 4 4 4 3 1 3 1 4 6 4 7 10 7 10 9 8
23 26 16 16 18 17 18 18 18 13 5 1 2 1 1 6 6 5 4 3 5 2 2 3 2 2 6 6 6 6 6 5 5 6 5 4 2 0 2 3 1 1 8 7 5 8 5
19 19 9 11 12 12 9 5 4 7 6 3 2 4 2 5 7 7 3 1 6 1 1 2 4 2 3 3 0 1 3 4 6 7 4 2 2 2 2 3 2 4 3 2 4 3 4
18 15 13 7 10 11 13 15 15 7 3 9 4 1 1 4 7 7 5 4 4 3 3 2 4 2 3 4 3 2 3 3 2 4 6 5 1 1 2 3 3 1 3 3 2 1 2
13 9 6 4 10 4 5 10 14 19 9 6 5 4 1 6 7 2 7 8 5 3 4 2 3 1 3 2 2 2 2 2 0 2 0 2 2 3 1 2 2 5 7 3 1 4 8
12 11 5 3 6 15 9 2 5 11 15 8 5 3 1 2 2 2 3 5 2 0 2 3 4 2 1 2 2 2 1 2 2 3 1 1 2 4 2 2 0 8 9 5 4 3 10
12 12 10 6 7 15 16 3 2 7 13 11 6 5 3 2 4 1 1 2 2 3 3 4 3 3 2 3 2 0 2 1 3 1 3 3 2 3 1 2 2 10 6 4 5 8 7
13 13 8 7 11 12 14 8 3 4 11 17 4 7 7 4 3 3 4 3 2 3 3 2 2 1 3 2 2 2 3 2 2 1 3 3 2 3 4 1 2 12 2 5 4 6 4

GFSGBSN_925_spd_108.txt.gz
Wind_Speed
29 28 30 29 26 24 22 21 19 17 15 16 16 17 18 19 19 17 12 21 14 11 7 5 5 5 2 2 2 12 9 7 7 1 3 5 5 7 9 6 8 11 12 14 15 15 17
32 33 33 32 29 25 22 21 17 17 15 15 16 17 18 19 20 22 18 20 15 11 9 7 10 5 4 4 4 8 7 7 2 1 2 2 4 8 7 9 10 11 13 15 15 16 16
34 35 34 33 32 28 24 21 20 17 16 15 15 17 18 19 21 16 21 19 14 12 10 8 8 5 3 4 5 6 6 4 3 2 2 3 5 6 8 8 5 10 13 14 18 15 17
35 37 34 33 31 27 26 20 20 14 15 14 15 18 19 18 15 14 20 18 14 10 9 8 8 4 2 3 3 6 7 5 3 2 1 6 5 7 9 7 6 12 12 13 9 17 18
37 37 34 30 28 27 23 17 19 17 14 16 14 17 19 20 17 12 17 15 12 10 10 11 7 5 3 3 5 7 8 6 7 4 4 8 5 8 3 4 6 9 8 12 17 16 14
39 35 33 31 27 22 20 18 16 15 13 14 12 15 19 26 20 13 20 17 15 13 12 7 3 3 2 2 7 4 4 4 5 7 5 7 4 3 3 4 5 5 8 7 15 15 14
39 38 32 29 26 24 20 19 15 11 10 14 10 11 17 24 29 26 25 15 4 4 6 4 5 3 6 6 4 4 6 5 5 7 11 11 4 9 12 14 16 16 17 18 20 12 11
38 37 31 30 24 18 19 12 13 12 9 10 7 7 11 12 25 26 19 2 3 4 5 8 4 2 1 1 2 6 6 3 6 10 8 4 12 13 13 10 14 16 15 16 19 8 10
37 34 27 28 23 22 16 15 13 5 7 6 6 7 6 5 16 20 6 5 5 5 3 4 6 3 2 5 2 2 9 2 4 8 9 8 4 4 7 11 16 13 15 13 9 11 9
32 31 23 23 21 17 12 7 1 2 3 2 4 7 8 11 10 8 3 5 5 6 3 3 5 4 5 1 1 4 6 1 3 3 3 7 8 9 9 13 13 13 7 9 9 7 7
34 31 23 20 17 15 9 3 4 3 5 6 6 13 23 11 10 6 1 7 3 3 3 4 4 3 4 2 2 4 10 4 3 2 3 2 3 3 6 8 8 8 6 14 12 6 11
31 26 23 18 16 10 6 8 8 9 10 8 7 8 10 10 7 3 6 4 2 2 2 2 4 5 4 6 3 6 4 1 2 3 6 6 3 3 4 12 8 6 6 1 3 5 4
19 21 14 14 13 10 12 14 14 17 12 12 8 11 8 9 2 6 6 2 1 2 3 3 3 3 5 4 6 7 6 4 2 3 1 3 3 3 7 7 1 4 2 3 0 2 2
42 11 3 9 8 10 15 14 17 16 14 11 10 10 9 8 10 7 3 2 4 4 2 2 2 4 4 1 2 2 7 3 7 1 3 4 3 4 3 3 3 4 3 3 3 2 2
55 1 9 11 14 12 15 17 16 14 15 19 22 18 9 6 8 2 3 2 3 4 1 3 3 5 5 4 3 4 6 5 4 5 1 3 4 4 10 9 5 4 3 2 3 5 3
49 9 19 18 16 18 16 18 16 15 17 19 16 14 9 4 2 4 2 5 3 3 4 3 2 3 4 4 4 2 3 5 4 3 1 5 4 4 6 3 4 6 6 1 2 3 4
45 17 20 20 17 15 15 14 12 16 21 18 11 3 6 3 2 3 2 4 5 4 5 5 6 1 4 3 4 3 6 3 6 5 5 3 3 3 3 5 5 5 5 4 1 2 1
45 19 15 15 14 12 12 14 17 21 22 12 5 4 2 4 2 3 4 3 3 4 2 3 4 6 6 5 5 3 4 5 7 6 5 3 4 2 2 3 2 5 6 5 3 7 5
42 17 9 7 7 8 9 12 15 21 8 6 3 2 4 5 2 2 2 3 3 4 5 6 4 5 4 4 2 5 4 4 5 5 5 5 4 3 3 2 2 5 9 6 2 2 6
33 36 17 5 3 2 5 12 17 19 10 5 3 2 1 2 5 3 0 2 3 2 1 4 2 5 2 4 4 4 4 1 5 3 4 3 5 4 2 2 3 5 10 10 4 5 10
27 29 26 16 3 4 6 10 14 15 5 9 1 2 3 2 3 4 3 4 2 3 0 3 1 7 5 5 3 4 4 1 4 2 2 4 3 4 3 4 1 5 7 12 11 7 7
23 20 23 22 15 8 7 8 8 10 7 5 2 2 3 1 4 4 2 1 1 2 6 4 6 6 10 6 6 5 6 5 4 7 3 3 1 1 1 6 3 6 8 8 9 11 12
17 12 14 16 16 14 7 4 8 13 7 6 4 3 3 1 3 3 4 3 2 2 2 3 8 3 6 4 6 4 2 0 1 5 6 4 1 2 2 4 6 1 4 6 5 5 1
12 9 5 7 9 9 9 3 6 14 16 14 4 6 2 2 3 3 2 1 3 3 2 2 7 4 2 4 6 7 3 2 3 5 4 4 2 1 3 4 2 3 2 1 6 5 6
8 5 4 5 6 6 9 11 16 14 6 1 2 4 3 1 5 5 2 3 3 3 1 3 3 3 4 4 3 3 2 2 1 2 4 4 2 1 2 1 2 4 4 4 1 4 4
7 8 4 7 10 10 6 3 10 16 16 5 5 6 4 1 4 2 6 4 4 3 4 2 2 3 4 2 2 1 1 1 1 2 2 5 3 1 1 1 2 2 4 3 2 0 6
8 9 9 10 18 17 13 6 4 9 17 11 10 9 5 2 0 4 3 3 1 2 3 3 3 2 1 2 1 1 1 1 1 3 1 1 2 3 4 3 2 5 6 2 2 5 6
11 14 13 15 17 18 23 15 5 3 11 16 6 15 6 3 1 3 3 3 1 2 2 2 2 2 1 1 0 0 2 0 2 2 2 2 1 4 1 2 4 6 3 4 4 4 6
11 14 13 7 12 16 18 12 7 2 6 12 4 10 7 3 3 3 2 1 3 4 2 2 1 1 0 1 1 1 3 2 2 3 1 2 3 2 2 4 1 7 3 4 4 5 4

GFSGBSN_925_spd_111.txt.gz
Wind_Speed
29 31 32 31 27 26 24 22 19 17 14 14 11 12 13 13 14 16 11 8 22 18 13 9 8 8 4 2 0 12 10 10 8 4 4 4 2 2 1 4 6 3 5 8 8 8 9
32 31 32 32 28 25 23 20 18 14 14 12 11 10 12 14 15 15 16 16 20 17 13 9 11 8 2 5 12 13 10 11 6 2 1 2 3 2 2 3 3 5 9 10 9 12 10
32 33 30 29 28 24 19 20 19 14 10 11 11 10 12 14 17 21 9 22 19 16 14 13 11 6 0 3 9 11 11 6 6 2 2 14 9 5 4 5 5 5 6 12 11 11 12
32 30 29 28 25 23 17 15 16 11 9 10 9 9 10 12 11 11 22 20 18 16 13 11 10 2 2 5 7 9 9 6 5 3 3 5 5 2 1 2 6 5 4 5 3 6 8
32 32 30 28 25 20 15 12 12 7 11 8 6 7 10 14 11 9 23 20 16 13 12 10 6 1 3 4 5 9 10 7 12 6 3 1 3 2 5 2 3 2 4 7 12 9 11
35 33 28 24 24 18 12 10 8 7 8 6 5 8 13 20 12 9 23 23 18 17 11 6 2 2 3 3 7 11 9 6 3 6 2 1 3 2 0 3 3 5 4 8 12 6 15
34 30 28 23 21 15 8 8 5 2 4 5 5 9 14 12 28 29 33 19 7 4 3 3 4 1 7 8 8 1 5 5 1 1 2 1 1 7 9 8 7 9 13 17 18 20 17
33 30 25 23 18 17 7 5 7 5 2 5 8 8 11 29 28 29 18 4 3 1 4 4 4 3 6 4 4 6 7 3 3 3 2 3 9 10 9 10 13 12 16 18 16 15 11
28 25 25 20 19 16 9 2 3 4 6 8 7 6 8 15 20 14 12 5 5 6 4 1 3 2 3 4 0 4 6 2 1 2 5 7 3 8 5 11 12 12 13 14 12 12 8
20 17 18 18 16 13 10 14 13 11 11 11 10 7 11 11 8 6 2 2 2 5 4 1 3 2 3 0 4 7 6 2 2 1 2 6 6 9 8 11 12 11 9 7 8 5 3
4 10 10 12 12 11 13 11 14 16 14 14 21 26 23 7 14 4 1 5 4 3 5 4 3 1 4 2 8 2 6 3 3 3 2 2 3 6 6 7 8 9 7 3 14 6 4
25 8 6 9 11 12 15 17 18 15 14 15 19 21 15 11 9 5 6 2 3 4 1 3 3 3 3 4 6 5 2 1 1 2 6 7 3 3 5 8 11 9 4 8 1 2 4
11 13 10 12 15 16 17 20 17 16 15 15 18 15 19 9 3 7 7 2 4 6 3 2 4 4 5 5 6 8 5 4 3 1 3 5 5 4 5 6 2 3 2 3 3 4 3
17 17 15 17 16 14 17 17 15 15 14 16 16 15 17 14 8 5 2 4 9 2 4 3 3 3 3 4 4 8 3 2 5 4 2 5 6 3 4 5 4 2 3 2 4 3 2
21 18 18 16 18 17 15 14 13 16 19 21 19 18 11 10 5 4 3 6 5 2 3 2 2 2 3 2 2 4 4 4 1 2 1 4 4 3 7 5 3 2 2 2 2 1 3
22 18 18 18 16 17 15 11 11 16 15 11 9 9 9 11 6 6 4 4 3 3 4 3 2 5 2 3 1 3 1 3 4 2 2 3 4 5 3 4 6 5 2 3 2 3 4
20 15 16 13 13 12 10 9 9 11 11 8 7 3 10 11 6 4 3 3 3 2 2 3 4 6 4 3 5 4 4 1 4 5 3 3 2 6 2 3 4 5 4 3 1 4 1
17 15 10 11 12 11 7 6 9 11 13 12 5 3 4 18 3 1 2 1 2 3 2 3 2 3 4 6 5 2 2 1 4 4 2 1 2 3 2 4 3 3 5 2 3 5 3
21 13 10 9 9 9 10 7 9 9 17 5 3 1 5 4 3 3 1 2 3 5 4 5 5 3 2 2 2 2 2 3 3 3 3 4 3 3 8 6 6 4 11 3 3 3 4
21 17 10 7 5 5 6 10 13 7 16 10 3 2 3 2 1 2 3 1 2 1 2 3 3 3 2 2 4 2 1 4 3 1 4 0 3 3 5 5 5 6 12 8 5 4 3
17 19 12 7 4 2 4 7 7 1 12 13 1 1 4 2 3 2 2 3 2 1 2 3 2 5 3 3 3 4 4 6 3 4 2 3 2 3 2 3 2 4 5 10 6 5 5
12 13 16 15 10 6 5 1 3 5 12 4 2 2 3 3 2 1 2 1 1 2 2 4 3 4 6 3 2 1 3 3 1 6 4 4 1 2 2 3 2 3 7 7 8 11 7
6 9 9 8 12 11 4 3 6 7 6 3 6 3 3 4 4 1 3 1 1 2 2 1 2 0 2 1 4 5 5 3 2 1 3 2 3 2 3 2 2 4 2 2 2 3 6
5 4 5 6 6 5 5 3 5 7 9 8 6 3 2 3 0 3 1 2 0 2 2 2 4 3 2 4 5 3 5 5 1 2 1 1 2 2 3 3 2 5 1 2 4 2 3
5 4 2 4 3 4 3 5 10 12 2 4 2 2 2 3 3 5 1 2 1 1 1 1 1 2 4 4 4 4 4 3 3 4 1 2 3 1 2 2 3 0 3 5 5 5 5
5 5 5 9 11 10 6 0 4 9 10 6 9 3 2 2 3 4 2 2 2 2 3 2 3 3 2 2 3 1 2 3 3 6 2 1 3 3 1 1 4 4 4 3 3 4 8
7 7 9 10 14 18 14 6 2 5 10 9 10 5 3 1 2 4 1 3 3 1 1 2 2 2 2 2 1 1 3 1 2 2 3 2 2 3 1 2 6 4 6 4 3 5 6
9 9 10 11 16 18 19 15 6 2 6 6 5 10 1 2 3 2 3 2 5 3 1 3 3 3 2 0 2 3 2 3 1 4 3 5 4 4 2 2 6 7 4 7 4 2 6
10 10 10 9 7 10 16 14 12 8 1 3 2 3 1 3 2 2 3 3 2 1 1 3 2 1 3 1 1 0 2 1 3 3 0 3 6 3 7 5 4 8 5 5 6 6 6

GFSGBSN_925_spd_114.txt.gz
Wind_Speed
31 31 25 24 22 21 20 16 14 13 13 11 10 7 6 6 10 11 10 9 20 21 18 12 11 11 5 3 2 10 9 8 8 7 8 4 4 2 0 3 5 2 4 7 6 7 7
36 29 23 22 22 18 17 11 12 10 7 8 9 8 5 7 10 11 12 8 21 21 16 13 14 10 2 4 10 11 11 8 6 6 6 6 3 1 2 2 1 4 5 7 5 9 7
31 28 26 23 19 17 15 10 8 8 3 6 7 6 4 6 11 16 11 13 25 19 13 14 14 7 4 5 9 11 9 6 6 7 7 10 5 5 1 3 4 5 6 9 7 5 6
30 27 24 21 18 14 11 9 7 5 2 4 5 4 2 6 7 11 21 27 22 19 14 14 11 6 4 5 13 12 8 10 6 1 5 4 5 2 1 2 6 5 2 4 4 2 5
30 26 25 22 18 17 6 7 6 6 1 2 3 2 2 5 5 3 30 27 24 18 16 14 9 5 2 4 8 9 9 6 5 3 1 2 3 1 3 2 3 2 4 5 7 1 4
27 23 21 20 19 16 6 5 4 4 5 7 5 3 5 2 8 30 27 26 22 20 16 9 8 5 1 3 6 7 8 4 3 3 3 3 4 2 3 3 3 4 4 6 8 3 13
22 17 20 17 20 15 6 6 9 9 11 10 7 8 8 21 29 32 35 26 8 5 4 4 2 3 4 6 7 5 5 4 3 2 2 2 3 5 8 8 3 2 7 14 17 18 15
20 13 18 18 20 16 9 5 8 9 12 11 12 21 28 33 38 25 11 5 4 5 7 4 2 4 5 4 2 1 5 2 2 2 2 3 7 8 7 8 7 8 15 19 15 13 7
16 11 15 19 19 20 14 10 14 16 11 10 11 17 24 24 19 16 16 9 4 5 6 4 1 2 2 3 1 5 4 2 2 2 4 6 5 5 4 9 12 14 14 15 14 13 13
14 15 17 16 15 18 20 18 16 15 13 8 16 18 17 20 8 7 5 6 2 2 5 2 1 1 1 2 4 3 3 2 2 3 2 6 5 8 7 10 9 13 8 14 14 7 3
14 19 20 18 16 18 17 17 15 16 18 21 19 13 14 3 13 4 2 5 1 2 5 3 2 2 2 2 7 2 2 3 2 4 3 3 3 6 5 6 6 10 4 9 7 10 4
24 23 23 22 20 20 18 15 16 16 18 22 20 16 16 12 8 5 6 2 1 5 1 3 3 2 0 2 4 2 1 2 2 3 6 8 5 4 4 7 12 11 7 9 2 2 2
27 24 22 22 20 19 17 15 16 16 17 17 16 13 8 6 3 5 4 3 4 6 3 2 3 4 4 5 6 7 5 4 4 2 3 1 3 3 5 7 4 4 2 3 2 1 3
27 24 22 20 19 17 17 15 11 10 13 12 13 16 20 17 8 5 3 5 8 2 4 2 4 4 3 5 5 6 2 3 7 3 2 5 7 3 5 5 3 4 2 2 4 3 3
24 22 20 19 17 16 16 15 14 13 14 10 6 12 17 20 8 7 4 6 5 3 2 1 1 0 3 3 3 5 5 3 1 2 2 4 5 4 8 6 7 2 2 2 3 2 3
18 18 16 16 14 13 14 13 12 10 11 14 5 5 9 16 10 6 4 4 2 3 2 1 1 3 2 3 1 4 3 2 3 0 3 2 4 6 5 2 6 6 3 1 2 4 3
15 14 14 12 10 9 10 10 10 14 18 11 3 3 6 16 7 4 4 1 1 3 1 2 1 1 2 2 3 3 3 1 1 3 4 1 2 6 2 1 3 3 4 2 3 2 3
14 12 11 10 10 9 7 8 10 18 23 11 3 3 11 17 4 2 2 2 2 3 2 1 1 2 0 2 3 1 1 3 1 2 2 2 2 4 7 3 3 3 4 2 3 1 2
12 10 10 11 9 8 8 9 5 16 22 5 2 1 7 8 3 3 2 2 2 5 3 4 3 1 1 1 2 1 1 3 3 1 2 1 2 4 8 6 6 4 6 4 2 3 1
13 10 6 8 7 7 7 6 4 13 21 5 3 4 4 4 1 2 2 2 3 2 3 3 3 3 3 5 4 2 3 2 2 2 2 1 2 3 4 5 3 7 13 7 3 4 2
10 13 8 4 7 6 6 4 4 11 20 4 3 1 3 3 4 3 2 1 1 3 3 4 3 5 3 3 3 4 3 5 3 6 2 2 1 2 4 5 3 2 6 10 6 3 3
6 7 9 8 4 8 6 1 6 9 12 7 3 3 3 2 4 6 5 2 0 0 3 3 3 5 5 2 0 2 3 3 2 6 5 3 1 2 3 5 4 3 4 6 6 5 6
2 2 4 6 6 3 2 2 3 4 8 3 2 3 3 3 2 3 3 4 4 3 0 2 1 2 3 3 2 4 4 6 5 2 2 2 3 2 3 5 5 6 4 2 1 2 6
4 2 1 1 4 4 4 6 7 5 3 3 2 3 3 3 1 2 4 4 5 4 2 3 1 1 2 5 5 4 5 6 6 4 3 1 2 1 2 3 3 5 2 3 5 4 5
7 5 4 5 4 5 4 4 8 8 3 3 2 1 2 1 3 5 5 3 4 5 4 3 2 2 3 3 3 4 3 3 3 5 4 2 3 1 1 2 5 3 4 5 5 6 8
10 9 7 7 9 10 7 1 3 6 1 4 3 5 3 4 4 5 2 1 1 2 6 3 4 4 5 3 3 2 2 2 4 7 2 3 4 3 2 1 5 4 2 3 3 6 10
11 12 10 10 10 14 16 11 3 3 0 2 3 4 2 2 3 4 4 5 1 1 2 3 4 3 2 2 1 2 3 2 3 3 3 1 2 3 1 2 7 5 5 3 4 6 5
12 13 13 12 11 14 17 19 14 5 1 4 3 1 2 3 4 6 4 4 3 4 2 3 2 3 3 1 1 2 2 3 2 4 3 5 4 4 2 3 7 6 4 7 6 2 5
13 12 12 11 11 13 18 20 19 15 7 1 4 4 4 2 3 4 9 9 4 5 5 2 3 4 3 2 1 2 2 1 2 4 1 3 6 3 7 5 3 8 4 6 4 4 5

GFSGBSN_925_spd_117.txt.gz
Wind_Speed
30 29 26 22 18 17 16 11 7 7 6 5 11 9 4 2 3 6 7 8 2 25 19 15 14 12 6 4 2 8 7 5 9 12 12 4 5 2 2 2 4 2 4 6 7 7 7
28 28 26 23 17 17 12 10 5 7 4 7 6 5 4 2 5 6 9 10 3 23 19 15 15 12 4 5 6 8 9 9 11 13 10 8 3 2 3 3 1 4 5 8 6 7 5
27 27 25 22 19 15 12 8 4 5 2 8 10 2 2 2 6 7 8 12 16 23 18 16 15 8 8 5 7 8 7 7 10 11 8 8 5 5 1 4 4 5 7 8 4 3 4
24 25 24 23 20 17 9 12 7 5 3 7 2 1 1 3 5 7 19 30 29 24 19 15 12 6 4 2 10 9 9 10 7 8 7 6 7 4 3 2 6 5 2 5 4 5 5
21 21 23 22 20 16 13 13 15 13 11 6 4 3 1 4 5 16 30 29 29 26 15 12 6 6 4 6 7 7 7 4 5 5 7 5 4 3 4 3 4 3 4 4 7 2 4
19 20 24 22 19 13 15 15 14 10 8 6 1 2 3 9 16 38 34 30 28 22 14 12 8 6 2 2 5 6 4 4 2 3 4 5 4 3 2 4 3 4 4 4 6 5 8
23 23 24 23 19 13 13 14 13 15 12 9 6 5 13 20 25 32 35 30 7 5 9 3 2 5 5 7 6 4 4 5 2 5 2 3 4 4 4 4 3 3 4 12 15 13 11
24 25 23 24 20 16 14 15 16 15 14 16 21 26 32 26 27 20 6 4 3 8 8 7 4 5 6 4 4 3 3 3 3 1 2 3 6 7 7 6 5 5 12 15 17 13 5
27 25 22 21 24 20 17 18 15 15 14 17 26 33 32 30 10 12 14 8 6 5 6 4 2 4 2 2 3 3 3 2 2 2 2 4 5 3 4 8 9 9 11 14 13 8 12
29 26 24 21 20 19 19 18 17 14 12 15 19 24 19 9 4 4 5 7 5 4 5 6 4 3 2 2 4 1 3 2 1 2 2 6 4 4 6 10 7 9 7 13 15 8 4
29 26 24 23 21 20 18 18 19 23 20 17 17 16 6 1 6 5 2 4 4 3 6 4 1 1 2 3 5 1 3 2 1 1 0 5 3 5 9 7 7 8 4 7 13 8 5
29 26 23 22 20 20 20 18 18 20 19 15 11 8 7 6 13 8 5 3 4 6 0 3 2 1 1 3 4 3 1 2 1 2 5 9 4 5 6 4 10 10 11 10 5 1 3
29 24 20 21 19 20 18 16 16 16 17 15 9 3 9 7 3 7 5 4 5 6 3 2 2 3 1 2 4 4 2 1 3 2 3 4 5 4 4 4 4 5 2 3 3 3 4
23 25 20 17 18 18 18 17 15 15 17 16 12 15 18 14 8 8 3 5 9 1 3 1 3 3 2 5 4 4 2 3 6 6 3 3 6 6 6 6 3 2 1 2 3 2 4
16 16 16 14 15 16 16 16 16 14 15 15 8 5 7 16 8 10 4 6 5 4 1 0 2 1 3 3 4 3 4 3 4 8 4 2 6 4 6 4 3 2 1 1 3 2 3
12 12 11 12 12 13 14 15 14 15 11 10 5 3 6 18 12 3 4 3 1 3 2 1 1 3 1 1 2 3 3 3 3 6 4 3 6 3 5 4 4 3 1 2 3 4 3
9 10 10 9 10 12 11 9 14 20 10 7 5 3 7 20 4 4 4 3 2 3 3 1 1 1 2 1 1 1 2 3 3 3 3 3 1 6 2 1 2 3 3 3 3 1 2
7 9 9 8 7 11 11 7 13 20 14 8 4 3 11 14 4 2 1 1 0 2 2 1 1 1 1 2 3 1 3 5 4 1 2 1 1 5 7 2 2 3 3 2 2 3 2
7 6 6 7 6 6 7 8 12 18 19 4 2 2 4 5 3 3 4 3 1 2 2 2 1 2 1 1 1 2 2 2 1 2 2 0 2 5 9 5 4 4 3 3 1 3 1
9 6 1 3 5 2 3 2 10 18 18 2 3 3 4 4 2 3 4 4 4 3 2 2 2 2 3 3 3 2 4 2 4 1 2 2 2 3 4 6 3 5 5 3 1 2 3
6 8 3 1 1 4 4 7 10 13 15 4 3 2 3 2 3 2 2 2 4 4 3 4 2 3 2 2 3 2 2 5 3 5 3 2 2 1 5 7 5 4 4 6 2 3 2
3 3 4 2 2 2 1 6 11 11 10 6 2 3 1 2 2 4 4 1 3 4 3 4 2 4 2 2 3 3 1 0 2 5 4 3 2 3 4 4 6 5 7 4 2 1 4
7 3 1 1 2 2 2 5 7 8 7 2 3 2 2 1 2 3 2 3 2 2 1 1 2 3 4 2 3 5 4 4 5 2 2 2 1 3 4 6 8 7 6 5 3 4 6
10 7 5 4 2 2 2 4 7 7 3 2 3 4 3 3 1 4 4 2 2 2 2 3 1 1 1 4 5 3 4 6 6 6 3 0 2 1 3 5 3 5 2 2 5 7 8
12 11 8 9 8 6 4 0 5 7 4 3 2 3 3 2 2 5 5 4 2 3 3 3 3 4 1 3 3 4 4 4 3 3 4 2 3 0 0 2 7 2 4 5 5 7 10
13 14 11 10 12 12 10 7 2 4 4 2 4 3 3 3 5 2 2 2 2 2 3 3 2 3 1 2 3 2 2 2 3 6 4 4 3 3 1 1 5 4 3 4 3 5 5
14 15 15 14 13 14 16 14 8 3 4 4 4 4 1 1 3 4 4 4 2 0 2 4 2 1 2 2 2 1 3 2 2 3 2 1 1 3 3 4 8 4 4 4 2 6 2
18 17 17 16 16 16 16 19 18 11 5 5 5 3 2 2 4 7 5 5 2 2 3 2 3 3 2 2 2 2 2 2 2 4 3 4 4 4 1 3 7 5 3 6 5 1 3
21 20 19 17 15 16 17 19 20 19 12 6 3 5 5 4 5 7 12 13 7 3 4 1 3 2 3 3 1 2 3 1 3 4 1 3 6 3 8 6 5 7 6 5 2 2 4